<?xml version="1.0" encoding="UTF-8" standalone="no" ?>
<gpx xmlns="http://www.topografix.com/GPX/1/1" xmlns:xsi="http://www.w3.org/2001/XMLSchema-instance" xsi:schemaLocation="http://www.topografix.com/GPX/1/1 http://www.topografix.com/GPX/1/1/gpx.xsd" version="1.1" creator="VisuGPX - https://www.visugpx.com">
  <metadata>
    <name>Les châteaux de Saverne</name>
    <desc><![CDATA[Circuit des châteaux de Saverne]]></desc>
  </metadata>
  <trk>
    <name><![CDATA[Les châteaux de Saverne]]></name>
    <cmt><![CDATA[ 07:43:03 ]]></cmt>
    <desc><![CDATA[comment ...]]></desc>
    <trkseg>
      <trkpt lat="48.74463" lon="7.36244">
        <ele>179</ele>
        <time>2014-03-08T07:43:04Z</time>
      </trkpt>
      <trkpt lat="48.74463" lon="7.36244">
        <ele>179</ele>
        <time>2014-03-08T07:43:05Z</time>
      </trkpt>
      <trkpt lat="48.74461" lon="7.36241">
        <ele>179</ele>
        <time>2014-03-08T07:43:28Z</time>
      </trkpt>
      <trkpt lat="48.74454" lon="7.36232">
        <ele>180</ele>
        <time>2014-03-08T07:43:32Z</time>
      </trkpt>
      <trkpt lat="48.74436" lon="7.36154">
        <ele>180</ele>
        <time>2014-03-08T07:44:02Z</time>
      </trkpt>
      <trkpt lat="48.74362" lon="7.36071">
        <ele>177</ele>
        <time>2014-03-08T07:44:32Z</time>
      </trkpt>
      <trkpt lat="48.74296" lon="7.3598">
        <ele>178</ele>
        <time>2014-03-08T07:45:01Z</time>
      </trkpt>
      <trkpt lat="48.74293" lon="7.35979">
        <ele>180</ele>
        <time>2014-03-08T07:45:03Z</time>
      </trkpt>
      <trkpt lat="48.74241" lon="7.35897">
        <ele>176</ele>
        <time>2014-03-08T07:45:27Z</time>
      </trkpt>
      <trkpt lat="48.74208" lon="7.35934">
        <ele>177</ele>
        <time>2014-03-08T07:45:41Z</time>
      </trkpt>
      <trkpt lat="48.74199" lon="7.35942">
        <ele>178</ele>
        <time>2014-03-08T07:45:46Z</time>
      </trkpt>
      <trkpt lat="48.74192" lon="7.35951">
        <ele>183</ele>
        <time>2014-03-08T07:45:50Z</time>
      </trkpt>
      <trkpt lat="48.74188" lon="7.35954">
        <ele>185</ele>
        <time>2014-03-08T07:45:52Z</time>
      </trkpt>
      <trkpt lat="48.74186" lon="7.35954">
        <ele>186</ele>
        <time>2014-03-08T07:45:53Z</time>
      </trkpt>
      <trkpt lat="48.74184" lon="7.35953">
        <ele>187</ele>
        <time>2014-03-08T07:45:54Z</time>
      </trkpt>
      <trkpt lat="48.74182" lon="7.35951">
        <ele>187</ele>
        <time>2014-03-08T07:45:55Z</time>
      </trkpt>
      <trkpt lat="48.74176" lon="7.35929">
        <ele>187</ele>
        <time>2014-03-08T07:46:02Z</time>
      </trkpt>
      <trkpt lat="48.74169" lon="7.35896">
        <ele>191</ele>
        <time>2014-03-08T07:46:14Z</time>
      </trkpt>
      <trkpt lat="48.74171" lon="7.35892">
        <ele>191</ele>
        <time>2014-03-08T07:46:16Z</time>
      </trkpt>
      <trkpt lat="48.7417" lon="7.35887">
        <ele>192</ele>
        <time>2014-03-08T07:46:18Z</time>
      </trkpt>
      <trkpt lat="48.74164" lon="7.35879">
        <ele>193</ele>
        <time>2014-03-08T07:46:21Z</time>
      </trkpt>
      <trkpt lat="48.74161" lon="7.35877">
        <ele>192</ele>
        <time>2014-03-08T07:46:22Z</time>
      </trkpt>
      <trkpt lat="48.74159" lon="7.35878">
        <ele>192</ele>
        <time>2014-03-08T07:46:23Z</time>
      </trkpt>
      <trkpt lat="48.74093" lon="7.35959">
        <ele>198</ele>
        <time>2014-03-08T07:46:53Z</time>
      </trkpt>
      <trkpt lat="48.74091" lon="7.35958">
        <ele>199</ele>
        <time>2014-03-08T07:46:54Z</time>
      </trkpt>
      <trkpt lat="48.74088" lon="7.35951">
        <ele>200</ele>
        <time>2014-03-08T07:46:58Z</time>
      </trkpt>
      <trkpt lat="48.74031" lon="7.35901">
        <ele>199</ele>
        <time>2014-03-08T07:47:28Z</time>
      </trkpt>
      <trkpt lat="48.74029" lon="7.359">
        <ele>199</ele>
        <time>2014-03-08T07:47:29Z</time>
      </trkpt>
      <trkpt lat="48.74021" lon="7.35899">
        <ele>198</ele>
        <time>2014-03-08T07:47:34Z</time>
      </trkpt>
      <trkpt lat="48.74017" lon="7.35898">
        <ele>201</ele>
        <time>2014-03-08T07:47:36Z</time>
      </trkpt>
      <trkpt lat="48.7401" lon="7.35892">
        <ele>202</ele>
        <time>2014-03-08T07:47:42Z</time>
      </trkpt>
      <trkpt lat="48.73949" lon="7.35887">
        <ele>206</ele>
        <time>2014-03-08T07:48:13Z</time>
      </trkpt>
      <trkpt lat="48.73895" lon="7.35876">
        <ele>206</ele>
        <time>2014-03-08T07:48:43Z</time>
      </trkpt>
      <trkpt lat="48.73857" lon="7.3587">
        <ele>203</ele>
        <time>2014-03-08T07:49:13Z</time>
      </trkpt>
      <trkpt lat="48.7385" lon="7.35865">
        <ele>202</ele>
        <time>2014-03-08T07:49:17Z</time>
      </trkpt>
      <trkpt lat="48.73793" lon="7.35851">
        <ele>213</ele>
        <time>2014-03-08T07:49:47Z</time>
      </trkpt>
      <trkpt lat="48.73792" lon="7.3585">
        <ele>214</ele>
        <time>2014-03-08T07:49:49Z</time>
      </trkpt>
      <trkpt lat="48.7379" lon="7.35849">
        <ele>214</ele>
        <time>2014-03-08T07:49:51Z</time>
      </trkpt>
      <trkpt lat="48.73789" lon="7.35847">
        <ele>214</ele>
        <time>2014-03-08T07:49:52Z</time>
      </trkpt>
      <trkpt lat="48.73789" lon="7.35845">
        <ele>214</ele>
        <time>2014-03-08T07:49:53Z</time>
      </trkpt>
      <trkpt lat="48.73788" lon="7.35802">
        <ele>216</ele>
        <time>2014-03-08T07:50:06Z</time>
      </trkpt>
      <trkpt lat="48.73771" lon="7.35757">
        <ele>219</ele>
        <time>2014-03-08T07:50:28Z</time>
      </trkpt>
      <trkpt lat="48.73771" lon="7.35755">
        <ele>219</ele>
        <time>2014-03-08T07:50:33Z</time>
      </trkpt>
      <trkpt lat="48.73749" lon="7.35748">
        <ele>221</ele>
        <time>2014-03-08T07:50:43Z</time>
      </trkpt>
      <trkpt lat="48.73673" lon="7.35813">
        <ele>226</ele>
        <time>2014-03-08T07:51:13Z</time>
      </trkpt>
      <trkpt lat="48.73621" lon="7.35841">
        <ele>228</ele>
        <time>2014-03-08T07:51:34Z</time>
      </trkpt>
      <trkpt lat="48.73556" lon="7.35795">
        <ele>236</ele>
        <time>2014-03-08T07:52:04Z</time>
      </trkpt>
      <trkpt lat="48.73501" lon="7.35691">
        <ele>238</ele>
        <time>2014-03-08T07:52:34Z</time>
      </trkpt>
      <trkpt lat="48.7344" lon="7.35508">
        <ele>243</ele>
        <time>2014-03-08T07:53:04Z</time>
      </trkpt>
      <trkpt lat="48.73386" lon="7.35337">
        <ele>244</ele>
        <time>2014-03-08T07:53:34Z</time>
      </trkpt>
      <trkpt lat="48.73366" lon="7.35199">
        <ele>249</ele>
        <time>2014-03-08T07:54:04Z</time>
      </trkpt>
      <trkpt lat="48.73375" lon="7.35078">
        <ele>254</ele>
        <time>2014-03-08T07:54:34Z</time>
      </trkpt>
      <trkpt lat="48.73375" lon="7.35034">
        <ele>257</ele>
        <time>2014-03-08T07:54:47Z</time>
      </trkpt>
      <trkpt lat="48.73373" lon="7.35032">
        <ele>257</ele>
        <time>2014-03-08T07:54:48Z</time>
      </trkpt>
      <trkpt lat="48.7337" lon="7.35028">
        <ele>256</ele>
        <time>2014-03-08T07:54:51Z</time>
      </trkpt>
      <trkpt lat="48.73368" lon="7.35028">
        <ele>257</ele>
        <time>2014-03-08T07:54:54Z</time>
      </trkpt>
      <trkpt lat="48.73365" lon="7.35027">
        <ele>258</ele>
        <time>2014-03-08T07:54:58Z</time>
      </trkpt>
      <trkpt lat="48.73362" lon="7.35025">
        <ele>258</ele>
        <time>2014-03-08T07:55:02Z</time>
      </trkpt>
      <trkpt lat="48.7336" lon="7.35024">
        <ele>258</ele>
        <time>2014-03-08T07:55:04Z</time>
      </trkpt>
      <trkpt lat="48.73359" lon="7.35021">
        <ele>258</ele>
        <time>2014-03-08T07:55:07Z</time>
      </trkpt>
      <trkpt lat="48.73356" lon="7.35019">
        <ele>260</ele>
        <time>2014-03-08T07:55:10Z</time>
      </trkpt>
      <trkpt lat="48.73283" lon="7.34955">
        <ele>259</ele>
        <time>2014-03-08T07:55:40Z</time>
      </trkpt>
      <trkpt lat="48.73271" lon="7.34939">
        <ele>262</ele>
        <time>2014-03-08T07:55:49Z</time>
      </trkpt>
      <trkpt lat="48.73272" lon="7.34942">
        <ele>265</ele>
        <time>2014-03-08T07:56:25Z</time>
      </trkpt>
      <trkpt lat="48.7327" lon="7.34945">
        <ele>266</ele>
        <time>2014-03-08T07:56:36Z</time>
      </trkpt>
      <trkpt lat="48.73268" lon="7.34943">
        <ele>267</ele>
        <time>2014-03-08T07:58:05Z</time>
      </trkpt>
      <trkpt lat="48.73197" lon="7.34896">
        <ele>269</ele>
        <time>2014-03-08T07:58:35Z</time>
      </trkpt>
      <trkpt lat="48.73194" lon="7.34894">
        <ele>269</ele>
        <time>2014-03-08T07:58:36Z</time>
      </trkpt>
      <trkpt lat="48.73126" lon="7.34846">
        <ele>271</ele>
        <time>2014-03-08T07:59:07Z</time>
      </trkpt>
      <trkpt lat="48.73125" lon="7.34844">
        <ele>271</ele>
        <time>2014-03-08T07:59:13Z</time>
      </trkpt>
      <trkpt lat="48.73062" lon="7.34807">
        <ele>272</ele>
        <time>2014-03-08T07:59:43Z</time>
      </trkpt>
      <trkpt lat="48.7306" lon="7.34805">
        <ele>272</ele>
        <time>2014-03-08T07:59:44Z</time>
      </trkpt>
      <trkpt lat="48.73058" lon="7.34803">
        <ele>272</ele>
        <time>2014-03-08T07:59:45Z</time>
      </trkpt>
      <trkpt lat="48.73046" lon="7.34796">
        <ele>272</ele>
        <time>2014-03-08T07:59:52Z</time>
      </trkpt>
      <trkpt lat="48.73038" lon="7.34797">
        <ele>272</ele>
        <time>2014-03-08T07:59:58Z</time>
      </trkpt>
      <trkpt lat="48.73032" lon="7.34794">
        <ele>273</ele>
        <time>2014-03-08T08:00:03Z</time>
      </trkpt>
      <trkpt lat="48.73031" lon="7.34792">
        <ele>273</ele>
        <time>2014-03-08T08:00:04Z</time>
      </trkpt>
      <trkpt lat="48.73028" lon="7.34783">
        <ele>274</ele>
        <time>2014-03-08T08:00:10Z</time>
      </trkpt>
      <trkpt lat="48.73015" lon="7.34745">
        <ele>281</ele>
        <time>2014-03-08T08:00:31Z</time>
      </trkpt>
      <trkpt lat="48.73007" lon="7.34736">
        <ele>285</ele>
        <time>2014-03-08T08:00:37Z</time>
      </trkpt>
      <trkpt lat="48.73005" lon="7.34734">
        <ele>288</ele>
        <time>2014-03-08T08:00:39Z</time>
      </trkpt>
      <trkpt lat="48.72999" lon="7.34726">
        <ele>290</ele>
        <time>2014-03-08T08:00:44Z</time>
      </trkpt>
      <trkpt lat="48.72994" lon="7.34716">
        <ele>292</ele>
        <time>2014-03-08T08:00:49Z</time>
      </trkpt>
      <trkpt lat="48.72992" lon="7.34715">
        <ele>294</ele>
        <time>2014-03-08T08:00:50Z</time>
      </trkpt>
      <trkpt lat="48.72943" lon="7.34666">
        <ele>300</ele>
        <time>2014-03-08T08:01:20Z</time>
      </trkpt>
      <trkpt lat="48.72924" lon="7.34649">
        <ele>302</ele>
        <time>2014-03-08T08:01:32Z</time>
      </trkpt>
      <trkpt lat="48.72902" lon="7.34626">
        <ele>301</ele>
        <time>2014-03-08T08:01:46Z</time>
      </trkpt>
      <trkpt lat="48.72898" lon="7.34624">
        <ele>304</ele>
        <time>2014-03-08T08:01:48Z</time>
      </trkpt>
      <trkpt lat="48.72885" lon="7.34621">
        <ele>310</ele>
        <time>2014-03-08T08:01:54Z</time>
      </trkpt>
      <trkpt lat="48.72881" lon="7.3462">
        <ele>313</ele>
        <time>2014-03-08T08:01:56Z</time>
      </trkpt>
      <trkpt lat="48.72845" lon="7.34598">
        <ele>313</ele>
        <time>2014-03-08T08:02:14Z</time>
      </trkpt>
      <trkpt lat="48.72792" lon="7.34567">
        <ele>311</ele>
        <time>2014-03-08T08:02:45Z</time>
      </trkpt>
      <trkpt lat="48.7279" lon="7.34563">
        <ele>311</ele>
        <time>2014-03-08T08:02:47Z</time>
      </trkpt>
      <trkpt lat="48.72778" lon="7.34555">
        <ele>312</ele>
        <time>2014-03-08T08:02:55Z</time>
      </trkpt>
      <trkpt lat="48.7277" lon="7.34552">
        <ele>314</ele>
        <time>2014-03-08T08:03:01Z</time>
      </trkpt>
      <trkpt lat="48.72767" lon="7.34552">
        <ele>316</ele>
        <time>2014-03-08T08:03:03Z</time>
      </trkpt>
      <trkpt lat="48.72765" lon="7.34553">
        <ele>315</ele>
        <time>2014-03-08T08:03:05Z</time>
      </trkpt>
      <trkpt lat="48.72761" lon="7.34552">
        <ele>316</ele>
        <time>2014-03-08T08:03:07Z</time>
      </trkpt>
      <trkpt lat="48.72754" lon="7.34544">
        <ele>313</ele>
        <time>2014-03-08T08:03:12Z</time>
      </trkpt>
      <trkpt lat="48.72745" lon="7.34522">
        <ele>314</ele>
        <time>2014-03-08T08:03:28Z</time>
      </trkpt>
      <trkpt lat="48.72726" lon="7.34499">
        <ele>315</ele>
        <time>2014-03-08T08:03:48Z</time>
      </trkpt>
      <trkpt lat="48.72718" lon="7.34496">
        <ele>318</ele>
        <time>2014-03-08T08:03:54Z</time>
      </trkpt>
      <trkpt lat="48.72682" lon="7.34447">
        <ele>317</ele>
        <time>2014-03-08T08:04:26Z</time>
      </trkpt>
      <trkpt lat="48.72653" lon="7.34401">
        <ele>307</ele>
        <time>2014-03-08T08:04:56Z</time>
      </trkpt>
      <trkpt lat="48.72638" lon="7.34383">
        <ele>307</ele>
        <time>2014-03-08T08:05:08Z</time>
      </trkpt>
      <trkpt lat="48.72636" lon="7.34376">
        <ele>306</ele>
        <time>2014-03-08T08:05:11Z</time>
      </trkpt>
      <trkpt lat="48.72632" lon="7.34374">
        <ele>309</ele>
        <time>2014-03-08T08:05:14Z</time>
      </trkpt>
      <trkpt lat="48.72624" lon="7.34372">
        <ele>313</ele>
        <time>2014-03-08T08:05:20Z</time>
      </trkpt>
      <trkpt lat="48.7259" lon="7.34321">
        <ele>310</ele>
        <time>2014-03-08T08:05:52Z</time>
      </trkpt>
      <trkpt lat="48.72578" lon="7.34312">
        <ele>312</ele>
        <time>2014-03-08T08:06:02Z</time>
      </trkpt>
      <trkpt lat="48.72574" lon="7.34311">
        <ele>314</ele>
        <time>2014-03-08T08:06:05Z</time>
      </trkpt>
      <trkpt lat="48.72559" lon="7.34291">
        <ele>311</ele>
        <time>2014-03-08T08:06:16Z</time>
      </trkpt>
      <trkpt lat="48.72554" lon="7.3428">
        <ele>307</ele>
        <time>2014-03-08T08:06:21Z</time>
      </trkpt>
      <trkpt lat="48.7252" lon="7.3425">
        <ele>305</ele>
        <time>2014-03-08T08:06:39Z</time>
      </trkpt>
      <trkpt lat="48.7251" lon="7.34243">
        <ele>305</ele>
        <time>2014-03-08T08:06:45Z</time>
      </trkpt>
      <trkpt lat="48.72496" lon="7.34222">
        <ele>307</ele>
        <time>2014-03-08T08:06:54Z</time>
      </trkpt>
      <trkpt lat="48.72451" lon="7.34176">
        <ele>305</ele>
        <time>2014-03-08T08:07:25Z</time>
      </trkpt>
      <trkpt lat="48.72411" lon="7.34132">
        <ele>303</ele>
        <time>2014-03-08T08:07:50Z</time>
      </trkpt>
      <trkpt lat="48.72408" lon="7.34124">
        <ele>306</ele>
        <time>2014-03-08T08:07:53Z</time>
      </trkpt>
      <trkpt lat="48.72362" lon="7.34059">
        <ele>305</ele>
        <time>2014-03-08T08:08:22Z</time>
      </trkpt>
      <trkpt lat="48.72337" lon="7.34023">
        <ele>304</ele>
        <time>2014-03-08T08:08:42Z</time>
      </trkpt>
      <trkpt lat="48.72334" lon="7.34016">
        <ele>307</ele>
        <time>2014-03-08T08:08:45Z</time>
      </trkpt>
      <trkpt lat="48.7233" lon="7.34012">
        <ele>310</ele>
        <time>2014-03-08T08:08:48Z</time>
      </trkpt>
      <trkpt lat="48.72292" lon="7.33972">
        <ele>308</ele>
        <time>2014-03-08T08:09:11Z</time>
      </trkpt>
      <trkpt lat="48.72288" lon="7.33969">
        <ele>313</ele>
        <time>2014-03-08T08:09:14Z</time>
      </trkpt>
      <trkpt lat="48.72282" lon="7.3396">
        <ele>318</ele>
        <time>2014-03-08T08:09:25Z</time>
      </trkpt>
      <trkpt lat="48.72266" lon="7.33954">
        <ele>320</ele>
        <time>2014-03-08T08:09:35Z</time>
      </trkpt>
      <trkpt lat="48.72181" lon="7.33878">
        <ele>317</ele>
        <time>2014-03-08T08:10:08Z</time>
      </trkpt>
      <trkpt lat="48.72178" lon="7.33874">
        <ele>320</ele>
        <time>2014-03-08T08:10:13Z</time>
      </trkpt>
      <trkpt lat="48.72175" lon="7.33869">
        <ele>324</ele>
        <time>2014-03-08T08:10:20Z</time>
      </trkpt>
      <trkpt lat="48.72166" lon="7.33863">
        <ele>325</ele>
        <time>2014-03-08T08:10:51Z</time>
      </trkpt>
      <trkpt lat="48.72155" lon="7.3386">
        <ele>324</ele>
        <time>2014-03-08T08:10:58Z</time>
      </trkpt>
      <trkpt lat="48.7215" lon="7.33863">
        <ele>327</ele>
        <time>2014-03-08T08:11:12Z</time>
      </trkpt>
      <trkpt lat="48.72149" lon="7.33858">
        <ele>324</ele>
        <time>2014-03-08T08:11:27Z</time>
      </trkpt>
      <trkpt lat="48.72146" lon="7.33855">
        <ele>323</ele>
        <time>2014-03-08T08:11:29Z</time>
      </trkpt>
      <trkpt lat="48.72142" lon="7.33854">
        <ele>324</ele>
        <time>2014-03-08T08:11:31Z</time>
      </trkpt>
      <trkpt lat="48.72139" lon="7.33852">
        <ele>326</ele>
        <time>2014-03-08T08:11:33Z</time>
      </trkpt>
      <trkpt lat="48.72132" lon="7.3385">
        <ele>329</ele>
        <time>2014-03-08T08:11:37Z</time>
      </trkpt>
      <trkpt lat="48.72112" lon="7.33843">
        <ele>334</ele>
        <time>2014-03-08T08:11:48Z</time>
      </trkpt>
      <trkpt lat="48.72103" lon="7.33828">
        <ele>331</ele>
        <time>2014-03-08T08:11:54Z</time>
      </trkpt>
      <trkpt lat="48.72099" lon="7.33826">
        <ele>332</ele>
        <time>2014-03-08T08:11:56Z</time>
      </trkpt>
      <trkpt lat="48.7208" lon="7.33809">
        <ele>335</ele>
        <time>2014-03-08T08:12:06Z</time>
      </trkpt>
      <trkpt lat="48.72058" lon="7.33778">
        <ele>336</ele>
        <time>2014-03-08T08:12:23Z</time>
      </trkpt>
      <trkpt lat="48.72054" lon="7.33776">
        <ele>338</ele>
        <time>2014-03-08T08:12:26Z</time>
      </trkpt>
      <trkpt lat="48.72045" lon="7.33767">
        <ele>340</ele>
        <time>2014-03-08T08:12:35Z</time>
      </trkpt>
      <trkpt lat="48.72042" lon="7.33764">
        <ele>345</ele>
        <time>2014-03-08T08:12:38Z</time>
      </trkpt>
      <trkpt lat="48.72032" lon="7.33756">
        <ele>347</ele>
        <time>2014-03-08T08:12:45Z</time>
      </trkpt>
      <trkpt lat="48.72029" lon="7.33753">
        <ele>349</ele>
        <time>2014-03-08T08:12:47Z</time>
      </trkpt>
      <trkpt lat="48.72022" lon="7.33749">
        <ele>353</ele>
        <time>2014-03-08T08:12:52Z</time>
      </trkpt>
      <trkpt lat="48.72009" lon="7.33737">
        <ele>355</ele>
        <time>2014-03-08T08:13:01Z</time>
      </trkpt>
      <trkpt lat="48.72002" lon="7.33726">
        <ele>357</ele>
        <time>2014-03-08T08:13:07Z</time>
      </trkpt>
      <trkpt lat="48.71991" lon="7.33708">
        <ele>357</ele>
        <time>2014-03-08T08:13:19Z</time>
      </trkpt>
      <trkpt lat="48.71988" lon="7.33705">
        <ele>359</ele>
        <time>2014-03-08T08:13:22Z</time>
      </trkpt>
      <trkpt lat="48.71963" lon="7.33667">
        <ele>359</ele>
        <time>2014-03-08T08:13:46Z</time>
      </trkpt>
      <trkpt lat="48.71935" lon="7.33615">
        <ele>355</ele>
        <time>2014-03-08T08:14:18Z</time>
      </trkpt>
      <trkpt lat="48.71909" lon="7.33579">
        <ele>354</ele>
        <time>2014-03-08T08:14:52Z</time>
      </trkpt>
      <trkpt lat="48.71877" lon="7.33523">
        <ele>352</ele>
        <time>2014-03-08T08:15:24Z</time>
      </trkpt>
      <trkpt lat="48.7186" lon="7.33498">
        <ele>352</ele>
        <time>2014-03-08T08:15:41Z</time>
      </trkpt>
      <trkpt lat="48.71855" lon="7.33488">
        <ele>350</ele>
        <time>2014-03-08T08:15:54Z</time>
      </trkpt>
      <trkpt lat="48.71851" lon="7.33485">
        <ele>356</ele>
        <time>2014-03-08T08:15:59Z</time>
      </trkpt>
      <trkpt lat="48.71848" lon="7.33481">
        <ele>360</ele>
        <time>2014-03-08T08:16:07Z</time>
      </trkpt>
      <trkpt lat="48.71844" lon="7.33475">
        <ele>362</ele>
        <time>2014-03-08T08:16:11Z</time>
      </trkpt>
      <trkpt lat="48.71842" lon="7.3347">
        <ele>365</ele>
        <time>2014-03-08T08:16:14Z</time>
      </trkpt>
      <trkpt lat="48.71838" lon="7.33467">
        <ele>368</ele>
        <time>2014-03-08T08:16:17Z</time>
      </trkpt>
      <trkpt lat="48.71835" lon="7.33466">
        <ele>371</ele>
        <time>2014-03-08T08:16:20Z</time>
      </trkpt>
      <trkpt lat="48.7183" lon="7.33459">
        <ele>372</ele>
        <time>2014-03-08T08:16:26Z</time>
      </trkpt>
      <trkpt lat="48.71822" lon="7.33449">
        <ele>376</ele>
        <time>2014-03-08T08:16:35Z</time>
      </trkpt>
      <trkpt lat="48.71815" lon="7.33442">
        <ele>378</ele>
        <time>2014-03-08T08:16:43Z</time>
      </trkpt>
      <trkpt lat="48.71806" lon="7.33414">
        <ele>373</ele>
        <time>2014-03-08T08:17:00Z</time>
      </trkpt>
      <trkpt lat="48.71806" lon="7.33409">
        <ele>380</ele>
        <time>2014-03-08T08:17:21Z</time>
      </trkpt>
      <trkpt lat="48.71807" lon="7.33405">
        <ele>383</ele>
        <time>2014-03-08T08:17:24Z</time>
      </trkpt>
      <trkpt lat="48.71805" lon="7.33402">
        <ele>384</ele>
        <time>2014-03-08T08:17:29Z</time>
      </trkpt>
      <trkpt lat="48.71797" lon="7.33393">
        <ele>389</ele>
        <time>2014-03-08T08:17:47Z</time>
      </trkpt>
      <trkpt lat="48.71795" lon="7.33391">
        <ele>391</ele>
        <time>2014-03-08T08:18:11Z</time>
      </trkpt>
      <trkpt lat="48.71792" lon="7.33395">
        <ele>395</ele>
        <time>2014-03-08T08:22:04Z</time>
      </trkpt>
      <trkpt lat="48.71794" lon="7.33398">
        <ele>399</ele>
        <time>2014-03-08T08:22:20Z</time>
      </trkpt>
      <trkpt lat="48.71796" lon="7.33401">
        <ele>401</ele>
        <time>2014-03-08T08:22:22Z</time>
      </trkpt>
      <trkpt lat="48.71796" lon="7.33404">
        <ele>401</ele>
        <time>2014-03-08T08:22:24Z</time>
      </trkpt>
      <trkpt lat="48.71793" lon="7.33405">
        <ele>400</ele>
        <time>2014-03-08T08:22:27Z</time>
      </trkpt>
      <trkpt lat="48.71788" lon="7.33406">
        <ele>400</ele>
        <time>2014-03-08T08:22:31Z</time>
      </trkpt>
      <trkpt lat="48.71714" lon="7.33411">
        <ele>394</ele>
        <time>2014-03-08T08:23:01Z</time>
      </trkpt>
      <trkpt lat="48.71691" lon="7.33426">
        <ele>390</ele>
        <time>2014-03-08T08:24:08Z</time>
      </trkpt>
      <trkpt lat="48.71688" lon="7.33428">
        <ele>387</ele>
        <time>2014-03-08T08:24:11Z</time>
      </trkpt>
      <trkpt lat="48.71686" lon="7.33431">
        <ele>393</ele>
        <time>2014-03-08T08:25:01Z</time>
      </trkpt>
      <trkpt lat="48.71603" lon="7.33444">
        <ele>382</ele>
        <time>2014-03-08T08:25:32Z</time>
      </trkpt>
      <trkpt lat="48.716" lon="7.33444">
        <ele>381</ele>
        <time>2014-03-08T08:25:34Z</time>
      </trkpt>
      <trkpt lat="48.71557" lon="7.33444">
        <ele>380</ele>
        <time>2014-03-08T08:26:01Z</time>
      </trkpt>
      <trkpt lat="48.71552" lon="7.33445">
        <ele>382</ele>
        <time>2014-03-08T08:26:04Z</time>
      </trkpt>
      <trkpt lat="48.71544" lon="7.33448">
        <ele>385</ele>
        <time>2014-03-08T08:26:09Z</time>
      </trkpt>
      <trkpt lat="48.71521" lon="7.33451">
        <ele>390</ele>
        <time>2014-03-08T08:26:24Z</time>
      </trkpt>
      <trkpt lat="48.71519" lon="7.33451">
        <ele>393</ele>
        <time>2014-03-08T08:26:26Z</time>
      </trkpt>
      <trkpt lat="48.7147" lon="7.33453">
        <ele>393</ele>
        <time>2014-03-08T08:26:57Z</time>
      </trkpt>
      <trkpt lat="48.71467" lon="7.33454">
        <ele>394</ele>
        <time>2014-03-08T08:26:59Z</time>
      </trkpt>
      <trkpt lat="48.71431" lon="7.33452">
        <ele>394</ele>
        <time>2014-03-08T08:27:21Z</time>
      </trkpt>
      <trkpt lat="48.71422" lon="7.33452">
        <ele>396</ele>
        <time>2014-03-08T08:27:26Z</time>
      </trkpt>
      <trkpt lat="48.71416" lon="7.33452">
        <ele>398</ele>
        <time>2014-03-08T08:27:29Z</time>
      </trkpt>
      <trkpt lat="48.71413" lon="7.3345">
        <ele>399</ele>
        <time>2014-03-08T08:27:31Z</time>
      </trkpt>
      <trkpt lat="48.71379" lon="7.33445">
        <ele>400</ele>
        <time>2014-03-08T08:27:50Z</time>
      </trkpt>
      <trkpt lat="48.71377" lon="7.33446">
        <ele>401</ele>
        <time>2014-03-08T08:27:51Z</time>
      </trkpt>
      <trkpt lat="48.71369" lon="7.33449">
        <ele>403</ele>
        <time>2014-03-08T08:27:55Z</time>
      </trkpt>
      <trkpt lat="48.71281" lon="7.33418">
        <ele>401</ele>
        <time>2014-03-08T08:28:25Z</time>
      </trkpt>
      <trkpt lat="48.71275" lon="7.33414">
        <ele>402</ele>
        <time>2014-03-08T08:28:29Z</time>
      </trkpt>
      <trkpt lat="48.71273" lon="7.33412">
        <ele>403</ele>
        <time>2014-03-08T08:28:31Z</time>
      </trkpt>
      <trkpt lat="48.71272" lon="7.33411">
        <ele>404</ele>
        <time>2014-03-08T08:28:36Z</time>
      </trkpt>
      <trkpt lat="48.71268" lon="7.33412">
        <ele>407</ele>
        <time>2014-03-08T08:30:22Z</time>
      </trkpt>
      <trkpt lat="48.71204" lon="7.33387">
        <ele>398</ele>
        <time>2014-03-08T08:30:52Z</time>
      </trkpt>
      <trkpt lat="48.71197" lon="7.33386">
        <ele>398</ele>
        <time>2014-03-08T08:30:55Z</time>
      </trkpt>
      <trkpt lat="48.71194" lon="7.33386">
        <ele>401</ele>
        <time>2014-03-08T08:30:56Z</time>
      </trkpt>
      <trkpt lat="48.71123" lon="7.33378">
        <ele>401</ele>
        <time>2014-03-08T08:31:27Z</time>
      </trkpt>
      <trkpt lat="48.71108" lon="7.33379">
        <ele>401</ele>
        <time>2014-03-08T08:31:33Z</time>
      </trkpt>
      <trkpt lat="48.7109" lon="7.33384">
        <ele>401</ele>
        <time>2014-03-08T08:31:41Z</time>
      </trkpt>
      <trkpt lat="48.71088" lon="7.33384">
        <ele>402</ele>
        <time>2014-03-08T08:31:42Z</time>
      </trkpt>
      <trkpt lat="48.7109" lon="7.33382">
        <ele>400</ele>
        <time>2014-03-08T08:32:07Z</time>
      </trkpt>
      <trkpt lat="48.71104" lon="7.33376">
        <ele>398</ele>
        <time>2014-03-08T08:32:19Z</time>
      </trkpt>
      <trkpt lat="48.71102" lon="7.33372">
        <ele>400</ele>
        <time>2014-03-08T08:32:31Z</time>
      </trkpt>
      <trkpt lat="48.711" lon="7.3337">
        <ele>403</ele>
        <time>2014-03-08T08:32:43Z</time>
      </trkpt>
      <trkpt lat="48.711" lon="7.33365">
        <ele>404</ele>
        <time>2014-03-08T08:32:51Z</time>
      </trkpt>
      <trkpt lat="48.71102" lon="7.33358">
        <ele>404</ele>
        <time>2014-03-08T08:33:02Z</time>
      </trkpt>
      <trkpt lat="48.71102" lon="7.33354">
        <ele>403</ele>
        <time>2014-03-08T08:33:13Z</time>
      </trkpt>
      <trkpt lat="48.71103" lon="7.33353">
        <ele>402</ele>
        <time>2014-03-08T08:33:21Z</time>
      </trkpt>
      <trkpt lat="48.71103" lon="7.3335">
        <ele>402</ele>
        <time>2014-03-08T08:33:28Z</time>
      </trkpt>
      <trkpt lat="48.71101" lon="7.33341">
        <ele>404</ele>
        <time>2014-03-08T08:33:58Z</time>
      </trkpt>
      <trkpt lat="48.71097" lon="7.33336">
        <ele>409</ele>
        <time>2014-03-08T08:34:29Z</time>
      </trkpt>
      <trkpt lat="48.71095" lon="7.33335">
        <ele>408</ele>
        <time>2014-03-08T08:34:31Z</time>
      </trkpt>
      <trkpt lat="48.71095" lon="7.33328">
        <ele>408</ele>
        <time>2014-03-08T08:34:39Z</time>
      </trkpt>
      <trkpt lat="48.71096" lon="7.33314">
        <ele>411</ele>
        <time>2014-03-08T08:34:50Z</time>
      </trkpt>
      <trkpt lat="48.71096" lon="7.33312">
        <ele>413</ele>
        <time>2014-03-08T08:34:53Z</time>
      </trkpt>
      <trkpt lat="48.71101" lon="7.33297">
        <ele>415</ele>
        <time>2014-03-08T08:35:25Z</time>
      </trkpt>
      <trkpt lat="48.71102" lon="7.33294">
        <ele>415</ele>
        <time>2014-03-08T08:35:28Z</time>
      </trkpt>
      <trkpt lat="48.71104" lon="7.33292">
        <ele>418</ele>
        <time>2014-03-08T08:35:32Z</time>
      </trkpt>
      <trkpt lat="48.71106" lon="7.33291">
        <ele>420</ele>
        <time>2014-03-08T08:35:34Z</time>
      </trkpt>
      <trkpt lat="48.71106" lon="7.33289">
        <ele>420</ele>
        <time>2014-03-08T08:35:36Z</time>
      </trkpt>
      <trkpt lat="48.71106" lon="7.33287">
        <ele>420</ele>
        <time>2014-03-08T08:35:39Z</time>
      </trkpt>
      <trkpt lat="48.71115" lon="7.33278">
        <ele>420</ele>
        <time>2014-03-08T08:36:06Z</time>
      </trkpt>
      <trkpt lat="48.71119" lon="7.33261">
        <ele>422</ele>
        <time>2014-03-08T08:36:24Z</time>
      </trkpt>
      <trkpt lat="48.71121" lon="7.33262">
        <ele>425</ele>
        <time>2014-03-08T08:36:27Z</time>
      </trkpt>
      <trkpt lat="48.71123" lon="7.3326">
        <ele>427</ele>
        <time>2014-03-08T08:36:30Z</time>
      </trkpt>
      <trkpt lat="48.71137" lon="7.33233">
        <ele>429</ele>
        <time>2014-03-08T08:37:01Z</time>
      </trkpt>
      <trkpt lat="48.71143" lon="7.33222">
        <ele>428</ele>
        <time>2014-03-08T08:37:11Z</time>
      </trkpt>
      <trkpt lat="48.71142" lon="7.33218">
        <ele>429</ele>
        <time>2014-03-08T08:37:16Z</time>
      </trkpt>
      <trkpt lat="48.71142" lon="7.33216">
        <ele>430</ele>
        <time>2014-03-08T08:37:20Z</time>
      </trkpt>
      <trkpt lat="48.71142" lon="7.33213">
        <ele>430</ele>
        <time>2014-03-08T08:37:24Z</time>
      </trkpt>
      <trkpt lat="48.71137" lon="7.33193">
        <ele>431</ele>
        <time>2014-03-08T08:37:47Z</time>
      </trkpt>
      <trkpt lat="48.71138" lon="7.3319">
        <ele>433</ele>
        <time>2014-03-08T08:37:50Z</time>
      </trkpt>
      <trkpt lat="48.71147" lon="7.33178">
        <ele>427</ele>
        <time>2014-03-08T08:37:58Z</time>
      </trkpt>
      <trkpt lat="48.71146" lon="7.33176">
        <ele>426</ele>
        <time>2014-03-08T08:38:04Z</time>
      </trkpt>
      <trkpt lat="48.71149" lon="7.3317">
        <ele>426</ele>
        <time>2014-03-08T08:38:11Z</time>
      </trkpt>
      <trkpt lat="48.71153" lon="7.33168">
        <ele>426</ele>
        <time>2014-03-08T08:38:14Z</time>
      </trkpt>
      <trkpt lat="48.71154" lon="7.33163">
        <ele>427</ele>
        <time>2014-03-08T08:38:16Z</time>
      </trkpt>
      <trkpt lat="48.71152" lon="7.33157">
        <ele>428</ele>
        <time>2014-03-08T08:38:21Z</time>
      </trkpt>
      <trkpt lat="48.71155" lon="7.33157">
        <ele>436</ele>
        <time>2014-03-08T08:45:36Z</time>
      </trkpt>
      <trkpt lat="48.71178" lon="7.33176">
        <ele>433</ele>
        <time>2014-03-08T08:46:06Z</time>
      </trkpt>
      <trkpt lat="48.71187" lon="7.3317">
        <ele>430</ele>
        <time>2014-03-08T08:46:30Z</time>
      </trkpt>
      <trkpt lat="48.71187" lon="7.33166">
        <ele>431</ele>
        <time>2014-03-08T08:46:34Z</time>
      </trkpt>
      <trkpt lat="48.71185" lon="7.33167">
        <ele>430</ele>
        <time>2014-03-08T08:46:36Z</time>
      </trkpt>
      <trkpt lat="48.71166" lon="7.33173">
        <ele>429</ele>
        <time>2014-03-08T08:46:46Z</time>
      </trkpt>
      <trkpt lat="48.71165" lon="7.33176">
        <ele>425</ele>
        <time>2014-03-08T08:46:58Z</time>
      </trkpt>
      <trkpt lat="48.71165" lon="7.3318">
        <ele>425</ele>
        <time>2014-03-08T08:47:09Z</time>
      </trkpt>
      <trkpt lat="48.71163" lon="7.33178">
        <ele>427</ele>
        <time>2014-03-08T08:47:11Z</time>
      </trkpt>
      <trkpt lat="48.71158" lon="7.33161">
        <ele>428</ele>
        <time>2014-03-08T08:47:22Z</time>
      </trkpt>
      <trkpt lat="48.71156" lon="7.33162">
        <ele>431</ele>
        <time>2014-03-08T08:48:15Z</time>
      </trkpt>
      <trkpt lat="48.71155" lon="7.33162">
        <ele>430</ele>
        <time>2014-03-08T08:48:18Z</time>
      </trkpt>
      <trkpt lat="48.71154" lon="7.33159">
        <ele>433</ele>
        <time>2014-03-08T08:48:29Z</time>
      </trkpt>
      <trkpt lat="48.71152" lon="7.33157">
        <ele>433</ele>
        <time>2014-03-08T08:48:32Z</time>
      </trkpt>
      <trkpt lat="48.7115" lon="7.33156">
        <ele>434</ele>
        <time>2014-03-08T08:48:34Z</time>
      </trkpt>
      <trkpt lat="48.71148" lon="7.33151">
        <ele>439</ele>
        <time>2014-03-08T08:48:48Z</time>
      </trkpt>
      <trkpt lat="48.71148" lon="7.33149">
        <ele>438</ele>
        <time>2014-03-08T08:48:49Z</time>
      </trkpt>
      <trkpt lat="48.71144" lon="7.33135">
        <ele>439</ele>
        <time>2014-03-08T08:48:54Z</time>
      </trkpt>
      <trkpt lat="48.71143" lon="7.33132">
        <ele>441</ele>
        <time>2014-03-08T08:48:55Z</time>
      </trkpt>
      <trkpt lat="48.7112" lon="7.33081">
        <ele>443</ele>
        <time>2014-03-08T08:49:18Z</time>
      </trkpt>
      <trkpt lat="48.71116" lon="7.3307">
        <ele>446</ele>
        <time>2014-03-08T08:49:22Z</time>
      </trkpt>
      <trkpt lat="48.71115" lon="7.33067">
        <ele>450</ele>
        <time>2014-03-08T08:49:23Z</time>
      </trkpt>
      <trkpt lat="48.71073" lon="7.32988">
        <ele>429</ele>
        <time>2014-03-08T08:49:53Z</time>
      </trkpt>
      <trkpt lat="48.7107" lon="7.32981">
        <ele>438</ele>
        <time>2014-03-08T08:49:56Z</time>
      </trkpt>
      <trkpt lat="48.71068" lon="7.32976">
        <ele>440</ele>
        <time>2014-03-08T08:49:58Z</time>
      </trkpt>
      <trkpt lat="48.71045" lon="7.32951">
        <ele>440</ele>
        <time>2014-03-08T08:50:11Z</time>
      </trkpt>
      <trkpt lat="48.71034" lon="7.3293">
        <ele>445</ele>
        <time>2014-03-08T08:50:23Z</time>
      </trkpt>
      <trkpt lat="48.71033" lon="7.32923">
        <ele>447</ele>
        <time>2014-03-08T08:50:27Z</time>
      </trkpt>
      <trkpt lat="48.7102" lon="7.32903">
        <ele>446</ele>
        <time>2014-03-08T08:51:23Z</time>
      </trkpt>
      <trkpt lat="48.71019" lon="7.32901">
        <ele>448</ele>
        <time>2014-03-08T08:52:21Z</time>
      </trkpt>
      <trkpt lat="48.70973" lon="7.32877">
        <ele>449</ele>
        <time>2014-03-08T08:52:52Z</time>
      </trkpt>
      <trkpt lat="48.70972" lon="7.32876">
        <ele>450</ele>
        <time>2014-03-08T08:52:54Z</time>
      </trkpt>
      <trkpt lat="48.7097" lon="7.32876">
        <ele>450</ele>
        <time>2014-03-08T08:52:56Z</time>
      </trkpt>
      <trkpt lat="48.70968" lon="7.32874">
        <ele>452</ele>
        <time>2014-03-08T08:53:00Z</time>
      </trkpt>
      <trkpt lat="48.70957" lon="7.32871">
        <ele>453</ele>
        <time>2014-03-08T08:53:07Z</time>
      </trkpt>
      <trkpt lat="48.70928" lon="7.32863">
        <ele>455</ele>
        <time>2014-03-08T08:53:29Z</time>
      </trkpt>
      <trkpt lat="48.70923" lon="7.32861">
        <ele>457</ele>
        <time>2014-03-08T08:53:33Z</time>
      </trkpt>
      <trkpt lat="48.70903" lon="7.3285">
        <ele>458</ele>
        <time>2014-03-08T08:53:51Z</time>
      </trkpt>
      <trkpt lat="48.70898" lon="7.32847">
        <ele>460</ele>
        <time>2014-03-08T08:53:56Z</time>
      </trkpt>
      <trkpt lat="48.70883" lon="7.3284">
        <ele>463</ele>
        <time>2014-03-08T08:54:17Z</time>
      </trkpt>
      <trkpt lat="48.70872" lon="7.32838">
        <ele>459</ele>
        <time>2014-03-08T08:55:41Z</time>
      </trkpt>
      <trkpt lat="48.7087" lon="7.32837">
        <ele>460</ele>
        <time>2014-03-08T08:55:43Z</time>
      </trkpt>
      <trkpt lat="48.70859" lon="7.32832">
        <ele>464</ele>
        <time>2014-03-08T08:55:52Z</time>
      </trkpt>
      <trkpt lat="48.70854" lon="7.3283">
        <ele>468</ele>
        <time>2014-03-08T08:55:56Z</time>
      </trkpt>
      <trkpt lat="48.70851" lon="7.32823">
        <ele>474</ele>
        <time>2014-03-08T08:56:11Z</time>
      </trkpt>
      <trkpt lat="48.70848" lon="7.32821">
        <ele>473</ele>
        <time>2014-03-08T08:56:14Z</time>
      </trkpt>
      <trkpt lat="48.70842" lon="7.32822">
        <ele>476</ele>
        <time>2014-03-08T08:56:23Z</time>
      </trkpt>
      <trkpt lat="48.70836" lon="7.32821">
        <ele>478</ele>
        <time>2014-03-08T08:56:32Z</time>
      </trkpt>
      <trkpt lat="48.70832" lon="7.32823">
        <ele>479</ele>
        <time>2014-03-08T08:56:39Z</time>
      </trkpt>
      <trkpt lat="48.70813" lon="7.32829">
        <ele>479</ele>
        <time>2014-03-08T08:56:57Z</time>
      </trkpt>
      <trkpt lat="48.70803" lon="7.32829">
        <ele>483</ele>
        <time>2014-03-08T08:57:11Z</time>
      </trkpt>
      <trkpt lat="48.70801" lon="7.3283">
        <ele>481</ele>
        <time>2014-03-08T08:57:13Z</time>
      </trkpt>
      <trkpt lat="48.70799" lon="7.32831">
        <ele>480</ele>
        <time>2014-03-08T08:57:15Z</time>
      </trkpt>
      <trkpt lat="48.7078" lon="7.32826">
        <ele>481</ele>
        <time>2014-03-08T08:57:33Z</time>
      </trkpt>
      <trkpt lat="48.70778" lon="7.32824">
        <ele>483</ele>
        <time>2014-03-08T08:57:35Z</time>
      </trkpt>
      <trkpt lat="48.70778" lon="7.32823">
        <ele>485</ele>
        <time>2014-03-08T08:57:37Z</time>
      </trkpt>
      <trkpt lat="48.70774" lon="7.32821">
        <ele>486</ele>
        <time>2014-03-08T08:57:52Z</time>
      </trkpt>
      <trkpt lat="48.70768" lon="7.32817">
        <ele>490</ele>
        <time>2014-03-08T08:57:58Z</time>
      </trkpt>
      <trkpt lat="48.70767" lon="7.32816">
        <ele>492</ele>
        <time>2014-03-08T08:58:00Z</time>
      </trkpt>
      <trkpt lat="48.70765" lon="7.32814">
        <ele>494</ele>
        <time>2014-03-08T08:58:02Z</time>
      </trkpt>
      <trkpt lat="48.7075" lon="7.32804">
        <ele>496</ele>
        <time>2014-03-08T08:58:15Z</time>
      </trkpt>
      <trkpt lat="48.70748" lon="7.32803">
        <ele>499</ele>
        <time>2014-03-08T08:58:18Z</time>
      </trkpt>
      <trkpt lat="48.70746" lon="7.32802">
        <ele>497</ele>
        <time>2014-03-08T08:58:21Z</time>
      </trkpt>
      <trkpt lat="48.70743" lon="7.32801">
        <ele>494</ele>
        <time>2014-03-08T08:58:27Z</time>
      </trkpt>
      <trkpt lat="48.70742" lon="7.32799">
        <ele>495</ele>
        <time>2014-03-08T08:58:40Z</time>
      </trkpt>
      <trkpt lat="48.70753" lon="7.32771">
        <ele>499</ele>
        <time>2014-03-08T08:59:06Z</time>
      </trkpt>
      <trkpt lat="48.7075" lon="7.32769">
        <ele>501</ele>
        <time>2014-03-08T08:59:17Z</time>
      </trkpt>
      <trkpt lat="48.70748" lon="7.32769">
        <ele>503</ele>
        <time>2014-03-08T08:59:20Z</time>
      </trkpt>
      <trkpt lat="48.70746" lon="7.32768">
        <ele>504</ele>
        <time>2014-03-08T08:59:22Z</time>
      </trkpt>
      <trkpt lat="48.70742" lon="7.32766">
        <ele>504</ele>
        <time>2014-03-08T08:59:26Z</time>
      </trkpt>
      <trkpt lat="48.70741" lon="7.32764">
        <ele>505</ele>
        <time>2014-03-08T08:59:28Z</time>
      </trkpt>
      <trkpt lat="48.7074" lon="7.32763">
        <ele>507</ele>
        <time>2014-03-08T08:59:33Z</time>
      </trkpt>
      <trkpt lat="48.70738" lon="7.32761">
        <ele>506</ele>
        <time>2014-03-08T08:59:39Z</time>
      </trkpt>
      <trkpt lat="48.70737" lon="7.32761">
        <ele>507</ele>
        <time>2014-03-08T08:59:43Z</time>
      </trkpt>
      <trkpt lat="48.70736" lon="7.32759">
        <ele>508</ele>
        <time>2014-03-08T08:59:47Z</time>
      </trkpt>
      <trkpt lat="48.70735" lon="7.32756">
        <ele>508</ele>
        <time>2014-03-08T08:59:53Z</time>
      </trkpt>
      <trkpt lat="48.70735" lon="7.32754">
        <ele>509</ele>
        <time>2014-03-08T08:59:57Z</time>
      </trkpt>
      <trkpt lat="48.70738" lon="7.32749">
        <ele>508</ele>
        <time>2014-03-08T09:00:05Z</time>
      </trkpt>
      <trkpt lat="48.70738" lon="7.32739">
        <ele>512</ele>
        <time>2014-03-08T09:00:16Z</time>
      </trkpt>
      <trkpt lat="48.70736" lon="7.32737">
        <ele>514</ele>
        <time>2014-03-08T09:00:19Z</time>
      </trkpt>
      <trkpt lat="48.70734" lon="7.32733">
        <ele>514</ele>
        <time>2014-03-08T09:00:23Z</time>
      </trkpt>
      <trkpt lat="48.70733" lon="7.32727">
        <ele>515</ele>
        <time>2014-03-08T09:00:27Z</time>
      </trkpt>
      <trkpt lat="48.70733" lon="7.32725">
        <ele>517</ele>
        <time>2014-03-08T09:00:29Z</time>
      </trkpt>
      <trkpt lat="48.70732" lon="7.32722">
        <ele>517</ele>
        <time>2014-03-08T09:00:31Z</time>
      </trkpt>
      <trkpt lat="48.70731" lon="7.32718">
        <ele>515</ele>
        <time>2014-03-08T09:00:33Z</time>
      </trkpt>
      <trkpt lat="48.7073" lon="7.32715">
        <ele>516</ele>
        <time>2014-03-08T09:00:35Z</time>
      </trkpt>
      <trkpt lat="48.70728" lon="7.32713">
        <ele>517</ele>
        <time>2014-03-08T09:00:37Z</time>
      </trkpt>
      <trkpt lat="48.70727" lon="7.3271">
        <ele>518</ele>
        <time>2014-03-08T09:00:39Z</time>
      </trkpt>
      <trkpt lat="48.70725" lon="7.32701">
        <ele>520</ele>
        <time>2014-03-08T09:00:45Z</time>
      </trkpt>
      <trkpt lat="48.70725" lon="7.32697">
        <ele>520</ele>
        <time>2014-03-08T09:00:48Z</time>
      </trkpt>
      <trkpt lat="48.7072" lon="7.32667">
        <ele>521</ele>
        <time>2014-03-08T09:01:06Z</time>
      </trkpt>
      <trkpt lat="48.70721" lon="7.32637">
        <ele>520</ele>
        <time>2014-03-08T09:01:20Z</time>
      </trkpt>
      <trkpt lat="48.70722" lon="7.32629">
        <ele>521</ele>
        <time>2014-03-08T09:01:24Z</time>
      </trkpt>
      <trkpt lat="48.70727" lon="7.32608">
        <ele>519</ele>
        <time>2014-03-08T09:01:41Z</time>
      </trkpt>
      <trkpt lat="48.70724" lon="7.32605">
        <ele>520</ele>
        <time>2014-03-08T09:01:46Z</time>
      </trkpt>
      <trkpt lat="48.70719" lon="7.32605">
        <ele>520</ele>
        <time>2014-03-08T09:01:50Z</time>
      </trkpt>
      <trkpt lat="48.70714" lon="7.32603">
        <ele>523</ele>
        <time>2014-03-08T09:01:56Z</time>
      </trkpt>
      <trkpt lat="48.7071" lon="7.32601">
        <ele>524</ele>
        <time>2014-03-08T09:02:07Z</time>
      </trkpt>
      <trkpt lat="48.70709" lon="7.32601">
        <ele>526</ele>
        <time>2014-03-08T09:02:11Z</time>
      </trkpt>
      <trkpt lat="48.70707" lon="7.32601">
        <ele>526</ele>
        <time>2014-03-08T09:02:20Z</time>
      </trkpt>
      <trkpt lat="48.70706" lon="7.32601">
        <ele>527</ele>
        <time>2014-03-08T09:02:28Z</time>
      </trkpt>
      <trkpt lat="48.70704" lon="7.32598">
        <ele>529</ele>
        <time>2014-03-08T09:02:36Z</time>
      </trkpt>
      <trkpt lat="48.70705" lon="7.32596">
        <ele>528</ele>
        <time>2014-03-08T09:02:40Z</time>
      </trkpt>
      <trkpt lat="48.70704" lon="7.32593">
        <ele>527</ele>
        <time>2014-03-08T09:02:43Z</time>
      </trkpt>
      <trkpt lat="48.70705" lon="7.32591">
        <ele>528</ele>
        <time>2014-03-08T09:02:47Z</time>
      </trkpt>
      <trkpt lat="48.70703" lon="7.32569">
        <ele>531</ele>
        <time>2014-03-08T09:03:05Z</time>
      </trkpt>
      <trkpt lat="48.70701" lon="7.32561">
        <ele>533</ele>
        <time>2014-03-08T09:03:11Z</time>
      </trkpt>
      <trkpt lat="48.70696" lon="7.32547">
        <ele>535</ele>
        <time>2014-03-08T09:03:21Z</time>
      </trkpt>
      <trkpt lat="48.70695" lon="7.32544">
        <ele>535</ele>
        <time>2014-03-08T09:03:23Z</time>
      </trkpt>
      <trkpt lat="48.70694" lon="7.32541">
        <ele>535</ele>
        <time>2014-03-08T09:03:25Z</time>
      </trkpt>
      <trkpt lat="48.70693" lon="7.32539">
        <ele>537</ele>
        <time>2014-03-08T09:03:27Z</time>
      </trkpt>
      <trkpt lat="48.70692" lon="7.32536">
        <ele>536</ele>
        <time>2014-03-08T09:03:29Z</time>
      </trkpt>
      <trkpt lat="48.70691" lon="7.32533">
        <ele>538</ele>
        <time>2014-03-08T09:03:32Z</time>
      </trkpt>
      <trkpt lat="48.7069" lon="7.32534">
        <ele>538</ele>
        <time>2014-03-08T09:03:39Z</time>
      </trkpt>
      <trkpt lat="48.7069" lon="7.32531">
        <ele>538</ele>
        <time>2014-03-08T09:04:06Z</time>
      </trkpt>
      <trkpt lat="48.7069" lon="7.32529">
        <ele>539</ele>
        <time>2014-03-08T09:04:25Z</time>
      </trkpt>
      <trkpt lat="48.70688" lon="7.32527">
        <ele>540</ele>
        <time>2014-03-08T09:05:19Z</time>
      </trkpt>
      <trkpt lat="48.70669" lon="7.32504">
        <ele>544</ele>
        <time>2014-03-08T09:05:43Z</time>
      </trkpt>
      <trkpt lat="48.70668" lon="7.32505">
        <ele>544</ele>
        <time>2014-03-08T09:05:48Z</time>
      </trkpt>
      <trkpt lat="48.70669" lon="7.32507">
        <ele>542</ele>
        <time>2014-03-08T09:06:15Z</time>
      </trkpt>
      <trkpt lat="48.70673" lon="7.32509">
        <ele>542</ele>
        <time>2014-03-08T09:06:20Z</time>
      </trkpt>
      <trkpt lat="48.70675" lon="7.32481">
        <ele>595</ele>
        <time>2014-03-08T09:14:46Z</time>
      </trkpt>
      <trkpt lat="48.70675" lon="7.32481">
        <ele>547</ele>
        <time>2014-03-08T09:14:47Z</time>
      </trkpt>
      <trkpt lat="48.70674" lon="7.32483">
        <ele>547</ele>
        <time>2014-03-08T09:14:57Z</time>
      </trkpt>
      <trkpt lat="48.70672" lon="7.32486">
        <ele>548</ele>
        <time>2014-03-08T09:14:59Z</time>
      </trkpt>
      <trkpt lat="48.70672" lon="7.32488">
        <ele>547</ele>
        <time>2014-03-08T09:15:00Z</time>
      </trkpt>
      <trkpt lat="48.70665" lon="7.3255">
        <ele>547</ele>
        <time>2014-03-08T09:15:17Z</time>
      </trkpt>
      <trkpt lat="48.70626" lon="7.3256">
        <ele>549</ele>
        <time>2014-03-08T09:15:27Z</time>
      </trkpt>
      <trkpt lat="48.70529" lon="7.32603">
        <ele>534</ele>
        <time>2014-03-08T09:15:47Z</time>
      </trkpt>
      <trkpt lat="48.70519" lon="7.32635">
        <ele>531</ele>
        <time>2014-03-08T09:15:51Z</time>
      </trkpt>
      <trkpt lat="48.7051" lon="7.32641">
        <ele>530</ele>
        <time>2014-03-08T09:15:53Z</time>
      </trkpt>
      <trkpt lat="48.70505" lon="7.32642">
        <ele>529</ele>
        <time>2014-03-08T09:15:54Z</time>
      </trkpt>
      <trkpt lat="48.70488" lon="7.32651">
        <ele>531</ele>
        <time>2014-03-08T09:15:58Z</time>
      </trkpt>
      <trkpt lat="48.70487" lon="7.32655">
        <ele>531</ele>
        <time>2014-03-08T09:15:59Z</time>
      </trkpt>
      <trkpt lat="48.70482" lon="7.32662">
        <ele>528</ele>
        <time>2014-03-08T09:16:01Z</time>
      </trkpt>
      <trkpt lat="48.70466" lon="7.32673">
        <ele>523</ele>
        <time>2014-03-08T09:16:08Z</time>
      </trkpt>
      <trkpt lat="48.70465" lon="7.32673">
        <ele>524</ele>
        <time>2014-03-08T09:16:11Z</time>
      </trkpt>
      <trkpt lat="48.70463" lon="7.32673">
        <ele>524</ele>
        <time>2014-03-08T09:16:14Z</time>
      </trkpt>
      <trkpt lat="48.7046" lon="7.32673">
        <ele>525</ele>
        <time>2014-03-08T09:16:16Z</time>
      </trkpt>
      <trkpt lat="48.70459" lon="7.32673">
        <ele>524</ele>
        <time>2014-03-08T09:16:17Z</time>
      </trkpt>
      <trkpt lat="48.70457" lon="7.32672">
        <ele>523</ele>
        <time>2014-03-08T09:16:19Z</time>
      </trkpt>
      <trkpt lat="48.70455" lon="7.32672">
        <ele>523</ele>
        <time>2014-03-08T09:16:26Z</time>
      </trkpt>
      <trkpt lat="48.70426" lon="7.32676">
        <ele>521</ele>
        <time>2014-03-08T09:16:39Z</time>
      </trkpt>
      <trkpt lat="48.70393" lon="7.3266">
        <ele>521</ele>
        <time>2014-03-08T09:16:47Z</time>
      </trkpt>
      <trkpt lat="48.70329" lon="7.32627">
        <ele>518</ele>
        <time>2014-03-08T09:17:18Z</time>
      </trkpt>
      <trkpt lat="48.70299" lon="7.32619">
        <ele>521</ele>
        <time>2014-03-08T09:17:30Z</time>
      </trkpt>
      <trkpt lat="48.70294" lon="7.32615">
        <ele>521</ele>
        <time>2014-03-08T09:17:33Z</time>
      </trkpt>
      <trkpt lat="48.7028" lon="7.32604">
        <ele>520</ele>
        <time>2014-03-08T09:17:50Z</time>
      </trkpt>
      <trkpt lat="48.70281" lon="7.32602">
        <ele>519</ele>
        <time>2014-03-08T09:21:10Z</time>
      </trkpt>
      <trkpt lat="48.70281" lon="7.326">
        <ele>520</ele>
        <time>2014-03-08T09:21:12Z</time>
      </trkpt>
      <trkpt lat="48.70283" lon="7.32598">
        <ele>518</ele>
        <time>2014-03-08T09:21:14Z</time>
      </trkpt>
      <trkpt lat="48.7029" lon="7.32594">
        <ele>519</ele>
        <time>2014-03-08T09:21:21Z</time>
      </trkpt>
      <trkpt lat="48.70355" lon="7.32546">
        <ele>514</ele>
        <time>2014-03-08T09:21:45Z</time>
      </trkpt>
      <trkpt lat="48.70353" lon="7.32542">
        <ele>514</ele>
        <time>2014-03-08T09:21:47Z</time>
      </trkpt>
      <trkpt lat="48.70351" lon="7.32541">
        <ele>513</ele>
        <time>2014-03-08T09:21:49Z</time>
      </trkpt>
      <trkpt lat="48.70349" lon="7.32542">
        <ele>510</ele>
        <time>2014-03-08T09:21:57Z</time>
      </trkpt>
      <trkpt lat="48.70314" lon="7.32551">
        <ele>505</ele>
        <time>2014-03-08T09:22:27Z</time>
      </trkpt>
      <trkpt lat="48.70311" lon="7.32551">
        <ele>505</ele>
        <time>2014-03-08T09:22:29Z</time>
      </trkpt>
      <trkpt lat="48.70309" lon="7.3255">
        <ele>504</ele>
        <time>2014-03-08T09:22:31Z</time>
      </trkpt>
      <trkpt lat="48.70302" lon="7.32551">
        <ele>505</ele>
        <time>2014-03-08T09:22:39Z</time>
      </trkpt>
      <trkpt lat="48.70303" lon="7.32548">
        <ele>506</ele>
        <time>2014-03-08T09:22:46Z</time>
      </trkpt>
      <trkpt lat="48.70302" lon="7.32546">
        <ele>500</ele>
        <time>2014-03-08T09:22:54Z</time>
      </trkpt>
      <trkpt lat="48.70292" lon="7.32546">
        <ele>500</ele>
        <time>2014-03-08T09:22:59Z</time>
      </trkpt>
      <trkpt lat="48.7029" lon="7.32545">
        <ele>503</ele>
        <time>2014-03-08T09:23:01Z</time>
      </trkpt>
      <trkpt lat="48.70288" lon="7.32546">
        <ele>501</ele>
        <time>2014-03-08T09:23:02Z</time>
      </trkpt>
      <trkpt lat="48.70284" lon="7.3255">
        <ele>497</ele>
        <time>2014-03-08T09:23:04Z</time>
      </trkpt>
      <trkpt lat="48.70283" lon="7.32552">
        <ele>497</ele>
        <time>2014-03-08T09:23:06Z</time>
      </trkpt>
      <trkpt lat="48.70281" lon="7.32552">
        <ele>496</ele>
        <time>2014-03-08T09:23:11Z</time>
      </trkpt>
      <trkpt lat="48.70279" lon="7.32553">
        <ele>492</ele>
        <time>2014-03-08T09:23:23Z</time>
      </trkpt>
      <trkpt lat="48.70278" lon="7.32558">
        <ele>490</ele>
        <time>2014-03-08T09:23:25Z</time>
      </trkpt>
      <trkpt lat="48.70278" lon="7.32561">
        <ele>490</ele>
        <time>2014-03-08T09:23:26Z</time>
      </trkpt>
      <trkpt lat="48.70274" lon="7.32566">
        <ele>488</ele>
        <time>2014-03-08T09:23:28Z</time>
      </trkpt>
      <trkpt lat="48.70254" lon="7.32582">
        <ele>490</ele>
        <time>2014-03-08T09:23:40Z</time>
      </trkpt>
      <trkpt lat="48.70255" lon="7.32581">
        <ele>493</ele>
        <time>2014-03-08T09:24:42Z</time>
      </trkpt>
      <trkpt lat="48.70256" lon="7.32577">
        <ele>495</ele>
        <time>2014-03-08T09:24:45Z</time>
      </trkpt>
      <trkpt lat="48.70255" lon="7.3257">
        <ele>493</ele>
        <time>2014-03-08T09:24:49Z</time>
      </trkpt>
      <trkpt lat="48.70256" lon="7.32567">
        <ele>496</ele>
        <time>2014-03-08T09:24:52Z</time>
      </trkpt>
      <trkpt lat="48.70257" lon="7.32565">
        <ele>490</ele>
        <time>2014-03-08T09:24:58Z</time>
      </trkpt>
      <trkpt lat="48.70259" lon="7.32567">
        <ele>489</ele>
        <time>2014-03-08T09:26:08Z</time>
      </trkpt>
      <trkpt lat="48.70254" lon="7.32569">
        <ele>515</ele>
        <time>2014-03-08T09:27:25Z</time>
      </trkpt>
      <trkpt lat="48.70247" lon="7.32576">
        <ele>506</ele>
        <time>2014-03-08T09:27:28Z</time>
      </trkpt>
      <trkpt lat="48.70247" lon="7.32578">
        <ele>505</ele>
        <time>2014-03-08T09:27:45Z</time>
      </trkpt>
      <trkpt lat="48.70245" lon="7.32583">
        <ele>503</ele>
        <time>2014-03-08T09:27:50Z</time>
      </trkpt>
      <trkpt lat="48.70242" lon="7.32585">
        <ele>504</ele>
        <time>2014-03-08T09:27:54Z</time>
      </trkpt>
      <trkpt lat="48.70241" lon="7.32589">
        <ele>503</ele>
        <time>2014-03-08T09:27:57Z</time>
      </trkpt>
      <trkpt lat="48.70238" lon="7.32593">
        <ele>496</ele>
        <time>2014-03-08T09:28:02Z</time>
      </trkpt>
      <trkpt lat="48.70237" lon="7.32595">
        <ele>496</ele>
        <time>2014-03-08T09:28:04Z</time>
      </trkpt>
      <trkpt lat="48.70236" lon="7.32597">
        <ele>499</ele>
        <time>2014-03-08T09:28:42Z</time>
      </trkpt>
      <trkpt lat="48.70235" lon="7.32599">
        <ele>496</ele>
        <time>2014-03-08T09:28:45Z</time>
      </trkpt>
      <trkpt lat="48.70234" lon="7.32601">
        <ele>497</ele>
        <time>2014-03-08T09:28:48Z</time>
      </trkpt>
      <trkpt lat="48.70233" lon="7.32605">
        <ele>497</ele>
        <time>2014-03-08T09:28:50Z</time>
      </trkpt>
      <trkpt lat="48.70232" lon="7.32607">
        <ele>496</ele>
        <time>2014-03-08T09:28:52Z</time>
      </trkpt>
      <trkpt lat="48.70231" lon="7.32609">
        <ele>495</ele>
        <time>2014-03-08T09:28:55Z</time>
      </trkpt>
      <trkpt lat="48.7023" lon="7.32611">
        <ele>494</ele>
        <time>2014-03-08T09:28:58Z</time>
      </trkpt>
      <trkpt lat="48.70228" lon="7.32612">
        <ele>493</ele>
        <time>2014-03-08T09:29:00Z</time>
      </trkpt>
      <trkpt lat="48.70225" lon="7.32612">
        <ele>493</ele>
        <time>2014-03-08T09:29:01Z</time>
      </trkpt>
      <trkpt lat="48.7021" lon="7.32622">
        <ele>493</ele>
        <time>2014-03-08T09:29:08Z</time>
      </trkpt>
      <trkpt lat="48.70205" lon="7.32632">
        <ele>490</ele>
        <time>2014-03-08T09:29:13Z</time>
      </trkpt>
      <trkpt lat="48.70201" lon="7.32633">
        <ele>488</ele>
        <time>2014-03-08T09:29:17Z</time>
      </trkpt>
      <trkpt lat="48.70184" lon="7.32635">
        <ele>488</ele>
        <time>2014-03-08T09:29:33Z</time>
      </trkpt>
      <trkpt lat="48.70131" lon="7.32711">
        <ele>471</ele>
        <time>2014-03-08T09:29:54Z</time>
      </trkpt>
      <trkpt lat="48.70123" lon="7.32769">
        <ele>461</ele>
        <time>2014-03-08T09:30:08Z</time>
      </trkpt>
      <trkpt lat="48.70127" lon="7.3279">
        <ele>459</ele>
        <time>2014-03-08T09:30:13Z</time>
      </trkpt>
      <trkpt lat="48.70125" lon="7.3279">
        <ele>461</ele>
        <time>2014-03-08T09:30:15Z</time>
      </trkpt>
      <trkpt lat="48.70123" lon="7.32791">
        <ele>461</ele>
        <time>2014-03-08T09:30:17Z</time>
      </trkpt>
      <trkpt lat="48.70101" lon="7.32788">
        <ele>456</ele>
        <time>2014-03-08T09:30:27Z</time>
      </trkpt>
      <trkpt lat="48.70094" lon="7.32782">
        <ele>454</ele>
        <time>2014-03-08T09:30:29Z</time>
      </trkpt>
      <trkpt lat="48.70003" lon="7.32773">
        <ele>441</ele>
        <time>2014-03-08T09:30:46Z</time>
      </trkpt>
      <trkpt lat="48.69977" lon="7.32782">
        <ele>443</ele>
        <time>2014-03-08T09:30:52Z</time>
      </trkpt>
      <trkpt lat="48.6998" lon="7.32783">
        <ele>445</ele>
        <time>2014-03-08T09:31:07Z</time>
      </trkpt>
      <trkpt lat="48.69983" lon="7.32781">
        <ele>446</ele>
        <time>2014-03-08T09:31:09Z</time>
      </trkpt>
      <trkpt lat="48.69987" lon="7.32782">
        <ele>445</ele>
        <time>2014-03-08T09:31:12Z</time>
      </trkpt>
      <trkpt lat="48.69987" lon="7.32784">
        <ele>445</ele>
        <time>2014-03-08T09:31:13Z</time>
      </trkpt>
      <trkpt lat="48.69987" lon="7.32787">
        <ele>445</ele>
        <time>2014-03-08T09:31:14Z</time>
      </trkpt>
      <trkpt lat="48.69981" lon="7.32806">
        <ele>443</ele>
        <time>2014-03-08T09:31:19Z</time>
      </trkpt>
      <trkpt lat="48.69943" lon="7.3291">
        <ele>432</ele>
        <time>2014-03-08T09:31:50Z</time>
      </trkpt>
      <trkpt lat="48.69926" lon="7.32926">
        <ele>423</ele>
        <time>2014-03-08T09:32:00Z</time>
      </trkpt>
      <trkpt lat="48.69926" lon="7.32929">
        <ele>424</ele>
        <time>2014-03-08T09:32:05Z</time>
      </trkpt>
      <trkpt lat="48.69927" lon="7.32932">
        <ele>423</ele>
        <time>2014-03-08T09:32:08Z</time>
      </trkpt>
      <trkpt lat="48.69927" lon="7.32935">
        <ele>425</ele>
        <time>2014-03-08T09:32:12Z</time>
      </trkpt>
      <trkpt lat="48.69927" lon="7.3294">
        <ele>424</ele>
        <time>2014-03-08T09:33:08Z</time>
      </trkpt>
      <trkpt lat="48.69982" lon="7.32987">
        <ele>413</ele>
        <time>2014-03-08T09:33:28Z</time>
      </trkpt>
      <trkpt lat="48.6998" lon="7.32986">
        <ele>413</ele>
        <time>2014-03-08T09:33:35Z</time>
      </trkpt>
      <trkpt lat="48.69964" lon="7.32984">
        <ele>414</ele>
        <time>2014-03-08T09:33:51Z</time>
      </trkpt>
      <trkpt lat="48.69824" lon="7.3294">
        <ele>411</ele>
        <time>2014-03-08T09:34:21Z</time>
      </trkpt>
      <trkpt lat="48.69815" lon="7.32932">
        <ele>410</ele>
        <time>2014-03-08T09:34:23Z</time>
      </trkpt>
      <trkpt lat="48.6972" lon="7.32765">
        <ele>401</ele>
        <time>2014-03-08T09:34:53Z</time>
      </trkpt>
      <trkpt lat="48.69715" lon="7.32734">
        <ele>401</ele>
        <time>2014-03-08T09:35:02Z</time>
      </trkpt>
      <trkpt lat="48.69713" lon="7.32732">
        <ele>401</ele>
        <time>2014-03-08T09:35:03Z</time>
      </trkpt>
      <trkpt lat="48.69694" lon="7.32705">
        <ele>401</ele>
        <time>2014-03-08T09:35:12Z</time>
      </trkpt>
      <trkpt lat="48.69675" lon="7.32684">
        <ele>396</ele>
        <time>2014-03-08T09:35:19Z</time>
      </trkpt>
      <trkpt lat="48.69657" lon="7.32641">
        <ele>392</ele>
        <time>2014-03-08T09:35:28Z</time>
      </trkpt>
      <trkpt lat="48.69655" lon="7.32642">
        <ele>389</ele>
        <time>2014-03-08T09:35:37Z</time>
      </trkpt>
      <trkpt lat="48.69578" lon="7.32648">
        <ele>392</ele>
        <time>2014-03-08T09:36:01Z</time>
      </trkpt>
      <trkpt lat="48.69577" lon="7.3265">
        <ele>392</ele>
        <time>2014-03-08T09:36:30Z</time>
      </trkpt>
      <trkpt lat="48.69541" lon="7.32657">
        <ele>392</ele>
        <time>2014-03-08T09:36:44Z</time>
      </trkpt>
      <trkpt lat="48.69536" lon="7.32656">
        <ele>392</ele>
        <time>2014-03-08T09:37:33Z</time>
      </trkpt>
      <trkpt lat="48.69526" lon="7.32658">
        <ele>395</ele>
        <time>2014-03-08T09:37:37Z</time>
      </trkpt>
      <trkpt lat="48.69523" lon="7.32658">
        <ele>397</ele>
        <time>2014-03-08T09:37:38Z</time>
      </trkpt>
      <trkpt lat="48.69485" lon="7.32665">
        <ele>401</ele>
        <time>2014-03-08T09:37:47Z</time>
      </trkpt>
      <trkpt lat="48.69477" lon="7.32665">
        <ele>403</ele>
        <time>2014-03-08T09:37:49Z</time>
      </trkpt>
      <trkpt lat="48.69373" lon="7.32663">
        <ele>406</ele>
        <time>2014-03-08T09:38:19Z</time>
      </trkpt>
      <trkpt lat="48.69326" lon="7.3264">
        <ele>406</ele>
        <time>2014-03-08T09:38:35Z</time>
      </trkpt>
      <trkpt lat="48.6926" lon="7.32601">
        <ele>413</ele>
        <time>2014-03-08T09:39:05Z</time>
      </trkpt>
      <trkpt lat="48.69209" lon="7.32534">
        <ele>412</ele>
        <time>2014-03-08T09:39:35Z</time>
      </trkpt>
      <trkpt lat="48.69189" lon="7.32505">
        <ele>412</ele>
        <time>2014-03-08T09:39:45Z</time>
      </trkpt>
      <trkpt lat="48.69172" lon="7.32482">
        <ele>418</ele>
        <time>2014-03-08T09:39:54Z</time>
      </trkpt>
      <trkpt lat="48.69159" lon="7.32459">
        <ele>421</ele>
        <time>2014-03-08T09:40:01Z</time>
      </trkpt>
      <trkpt lat="48.69089" lon="7.32377">
        <ele>425</ele>
        <time>2014-03-08T09:40:29Z</time>
      </trkpt>
      <trkpt lat="48.69085" lon="7.32371">
        <ele>428</ele>
        <time>2014-03-08T09:40:31Z</time>
      </trkpt>
      <trkpt lat="48.69083" lon="7.32369">
        <ele>430</ele>
        <time>2014-03-08T09:40:32Z</time>
      </trkpt>
      <trkpt lat="48.69081" lon="7.32367">
        <ele>433</ele>
        <time>2014-03-08T09:40:33Z</time>
      </trkpt>
      <trkpt lat="48.6908" lon="7.32365">
        <ele>432</ele>
        <time>2014-03-08T09:40:34Z</time>
      </trkpt>
      <trkpt lat="48.69076" lon="7.32361">
        <ele>432</ele>
        <time>2014-03-08T09:40:36Z</time>
      </trkpt>
      <trkpt lat="48.69058" lon="7.32345">
        <ele>434</ele>
        <time>2014-03-08T09:40:43Z</time>
      </trkpt>
      <trkpt lat="48.69009" lon="7.32305">
        <ele>434</ele>
        <time>2014-03-08T09:41:02Z</time>
      </trkpt>
      <trkpt lat="48.69007" lon="7.32304">
        <ele>438</ele>
        <time>2014-03-08T09:41:03Z</time>
      </trkpt>
      <trkpt lat="48.68952" lon="7.32248">
        <ele>439</ele>
        <time>2014-03-08T09:41:33Z</time>
      </trkpt>
      <trkpt lat="48.68905" lon="7.32189">
        <ele>439</ele>
        <time>2014-03-08T09:42:03Z</time>
      </trkpt>
      <trkpt lat="48.68898" lon="7.3218">
        <ele>439</ele>
        <time>2014-03-08T09:42:07Z</time>
      </trkpt>
      <trkpt lat="48.68865" lon="7.32128">
        <ele>440</ele>
        <time>2014-03-08T09:42:26Z</time>
      </trkpt>
      <trkpt lat="48.68862" lon="7.32123">
        <ele>442</ele>
        <time>2014-03-08T09:42:28Z</time>
      </trkpt>
      <trkpt lat="48.6882" lon="7.32058">
        <ele>445</ele>
        <time>2014-03-08T09:42:58Z</time>
      </trkpt>
      <trkpt lat="48.68775" lon="7.31992">
        <ele>450</ele>
        <time>2014-03-08T09:43:28Z</time>
      </trkpt>
      <trkpt lat="48.68746" lon="7.31937">
        <ele>454</ele>
        <time>2014-03-08T09:43:49Z</time>
      </trkpt>
      <trkpt lat="48.68743" lon="7.31933">
        <ele>455</ele>
        <time>2014-03-08T09:43:51Z</time>
      </trkpt>
      <trkpt lat="48.6874" lon="7.31928">
        <ele>457</ele>
        <time>2014-03-08T09:43:53Z</time>
      </trkpt>
      <trkpt lat="48.68696" lon="7.31853">
        <ele>458</ele>
        <time>2014-03-08T09:44:23Z</time>
      </trkpt>
      <trkpt lat="48.68663" lon="7.31746">
        <ele>459</ele>
        <time>2014-03-08T09:44:53Z</time>
      </trkpt>
      <trkpt lat="48.68622" lon="7.31645">
        <ele>461</ele>
        <time>2014-03-08T09:45:23Z</time>
      </trkpt>
      <trkpt lat="48.68606" lon="7.31629">
        <ele>461</ele>
        <time>2014-03-08T09:45:30Z</time>
      </trkpt>
      <trkpt lat="48.68592" lon="7.3161">
        <ele>463</ele>
        <time>2014-03-08T09:45:35Z</time>
      </trkpt>
      <trkpt lat="48.68548" lon="7.31574">
        <ele>465</ele>
        <time>2014-03-08T09:45:55Z</time>
      </trkpt>
      <trkpt lat="48.68473" lon="7.31551">
        <ele>470</ele>
        <time>2014-03-08T09:46:25Z</time>
      </trkpt>
      <trkpt lat="48.68424" lon="7.31524">
        <ele>470</ele>
        <time>2014-03-08T09:46:50Z</time>
      </trkpt>
      <trkpt lat="48.6833" lon="7.31447">
        <ele>472</ele>
        <time>2014-03-08T09:47:19Z</time>
      </trkpt>
      <trkpt lat="48.6826" lon="7.31394">
        <ele>472</ele>
        <time>2014-03-08T09:47:36Z</time>
      </trkpt>
      <trkpt lat="48.6817" lon="7.3124">
        <ele>465</ele>
        <time>2014-03-08T09:48:06Z</time>
      </trkpt>
      <trkpt lat="48.68141" lon="7.3118">
        <ele>467</ele>
        <time>2014-03-08T09:48:19Z</time>
      </trkpt>
      <trkpt lat="48.68141" lon="7.31173">
        <ele>469</ele>
        <time>2014-03-08T09:48:21Z</time>
      </trkpt>
      <trkpt lat="48.68129" lon="7.31161">
        <ele>471</ele>
        <time>2014-03-08T09:48:32Z</time>
      </trkpt>
      <trkpt lat="48.68127" lon="7.31162">
        <ele>471</ele>
        <time>2014-03-08T09:48:34Z</time>
      </trkpt>
      <trkpt lat="48.68108" lon="7.31175">
        <ele>476</ele>
        <time>2014-03-08T09:48:48Z</time>
      </trkpt>
      <trkpt lat="48.68085" lon="7.31207">
        <ele>479</ele>
        <time>2014-03-08T09:49:05Z</time>
      </trkpt>
      <trkpt lat="48.68059" lon="7.31264">
        <ele>481</ele>
        <time>2014-03-08T09:49:18Z</time>
      </trkpt>
      <trkpt lat="48.68008" lon="7.31294">
        <ele>485</ele>
        <time>2014-03-08T09:49:33Z</time>
      </trkpt>
      <trkpt lat="48.6795" lon="7.31275">
        <ele>487</ele>
        <time>2014-03-08T09:49:51Z</time>
      </trkpt>
      <trkpt lat="48.67916" lon="7.31248">
        <ele>487</ele>
        <time>2014-03-08T09:50:06Z</time>
      </trkpt>
      <trkpt lat="48.67816" lon="7.3125">
        <ele>488</ele>
        <time>2014-03-08T09:50:36Z</time>
      </trkpt>
      <trkpt lat="48.67725" lon="7.31256">
        <ele>487</ele>
        <time>2014-03-08T09:51:06Z</time>
      </trkpt>
      <trkpt lat="48.67629" lon="7.31289">
        <ele>488</ele>
        <time>2014-03-08T09:51:36Z</time>
      </trkpt>
      <trkpt lat="48.67563" lon="7.31281">
        <ele>489</ele>
        <time>2014-03-08T09:51:52Z</time>
      </trkpt>
      <trkpt lat="48.67508" lon="7.31175">
        <ele>487</ele>
        <time>2014-03-08T09:52:15Z</time>
      </trkpt>
      <trkpt lat="48.6751" lon="7.31043">
        <ele>487</ele>
        <time>2014-03-08T09:52:45Z</time>
      </trkpt>
      <trkpt lat="48.67511" lon="7.31027">
        <ele>489</ele>
        <time>2014-03-08T09:52:48Z</time>
      </trkpt>
      <trkpt lat="48.67485" lon="7.30877">
        <ele>492</ele>
        <time>2014-03-08T09:53:18Z</time>
      </trkpt>
      <trkpt lat="48.67441" lon="7.30727">
        <ele>488</ele>
        <time>2014-03-08T09:53:48Z</time>
      </trkpt>
      <trkpt lat="48.6743" lon="7.30703">
        <ele>489</ele>
        <time>2014-03-08T09:53:53Z</time>
      </trkpt>
      <trkpt lat="48.67384" lon="7.30585">
        <ele>489</ele>
        <time>2014-03-08T09:54:23Z</time>
      </trkpt>
      <trkpt lat="48.67378" lon="7.30525">
        <ele>491</ele>
        <time>2014-03-08T09:54:38Z</time>
      </trkpt>
      <trkpt lat="48.67403" lon="7.30469">
        <ele>493</ele>
        <time>2014-03-08T09:55:03Z</time>
      </trkpt>
      <trkpt lat="48.67401" lon="7.30471">
        <ele>491</ele>
        <time>2014-03-08T09:55:05Z</time>
      </trkpt>
      <trkpt lat="48.67371" lon="7.30537">
        <ele>492</ele>
        <time>2014-03-08T09:55:22Z</time>
      </trkpt>
      <trkpt lat="48.67377" lon="7.30571">
        <ele>492</ele>
        <time>2014-03-08T09:55:28Z</time>
      </trkpt>
      <trkpt lat="48.67457" lon="7.30772">
        <ele>490</ele>
        <time>2014-03-08T09:55:58Z</time>
      </trkpt>
      <trkpt lat="48.67508" lon="7.31026">
        <ele>485</ele>
        <time>2014-03-08T09:56:28Z</time>
      </trkpt>
      <trkpt lat="48.67533" lon="7.31242">
        <ele>478</ele>
        <time>2014-03-08T09:56:57Z</time>
      </trkpt>
      <trkpt lat="48.67572" lon="7.31285">
        <ele>481</ele>
        <time>2014-03-08T09:57:06Z</time>
      </trkpt>
      <trkpt lat="48.67639" lon="7.31285">
        <ele>485</ele>
        <time>2014-03-08T09:57:20Z</time>
      </trkpt>
      <trkpt lat="48.6764" lon="7.31281">
        <ele>487</ele>
        <time>2014-03-08T09:57:58Z</time>
      </trkpt>
      <trkpt lat="48.67672" lon="7.3126">
        <ele>488</ele>
        <time>2014-03-08T09:58:07Z</time>
      </trkpt>
      <trkpt lat="48.6782" lon="7.31248">
        <ele>485</ele>
        <time>2014-03-08T09:58:37Z</time>
      </trkpt>
      <trkpt lat="48.67961" lon="7.31285">
        <ele>479</ele>
        <time>2014-03-08T09:59:07Z</time>
      </trkpt>
      <trkpt lat="48.6802" lon="7.3129">
        <ele>479</ele>
        <time>2014-03-08T09:59:20Z</time>
      </trkpt>
      <trkpt lat="48.68049" lon="7.31276">
        <ele>485</ele>
        <time>2014-03-08T09:59:27Z</time>
      </trkpt>
      <trkpt lat="48.68133" lon="7.31163">
        <ele>477</ele>
        <time>2014-03-08T09:59:57Z</time>
      </trkpt>
      <trkpt lat="48.6814" lon="7.31161">
        <ele>477</ele>
        <time>2014-03-08T09:59:59Z</time>
      </trkpt>
      <trkpt lat="48.68141" lon="7.31159">
        <ele>476</ele>
        <time>2014-03-08T10:00:01Z</time>
      </trkpt>
      <trkpt lat="48.68141" lon="7.31155">
        <ele>476</ele>
        <time>2014-03-08T10:00:03Z</time>
      </trkpt>
      <trkpt lat="48.6814" lon="7.31153">
        <ele>474</ele>
        <time>2014-03-08T10:00:05Z</time>
      </trkpt>
      <trkpt lat="48.68137" lon="7.31153">
        <ele>472</ele>
        <time>2014-03-08T10:01:27Z</time>
      </trkpt>
      <trkpt lat="48.68132" lon="7.31161">
        <ele>474</ele>
        <time>2014-03-08T10:01:33Z</time>
      </trkpt>
      <trkpt lat="48.68129" lon="7.31161">
        <ele>473</ele>
        <time>2014-03-08T10:01:35Z</time>
      </trkpt>
      <trkpt lat="48.68127" lon="7.31159">
        <ele>474</ele>
        <time>2014-03-08T10:01:36Z</time>
      </trkpt>
      <trkpt lat="48.68125" lon="7.31149">
        <ele>474</ele>
        <time>2014-03-08T10:01:41Z</time>
      </trkpt>
      <trkpt lat="48.68125" lon="7.31147">
        <ele>474</ele>
        <time>2014-03-08T10:01:42Z</time>
      </trkpt>
      <trkpt lat="48.68125" lon="7.31144">
        <ele>474</ele>
        <time>2014-03-08T10:01:46Z</time>
      </trkpt>
      <trkpt lat="48.68127" lon="7.31143">
        <ele>475</ele>
        <time>2014-03-08T10:01:49Z</time>
      </trkpt>
      <trkpt lat="48.68129" lon="7.3114">
        <ele>477</ele>
        <time>2014-03-08T10:02:10Z</time>
      </trkpt>
      <trkpt lat="48.68131" lon="7.31141">
        <ele>479</ele>
        <time>2014-03-08T10:02:19Z</time>
      </trkpt>
      <trkpt lat="48.68133" lon="7.31144">
        <ele>480</ele>
        <time>2014-03-08T10:02:21Z</time>
      </trkpt>
      <trkpt lat="48.68133" lon="7.31148">
        <ele>479</ele>
        <time>2014-03-08T10:02:23Z</time>
      </trkpt>
      <trkpt lat="48.68132" lon="7.31149">
        <ele>479</ele>
        <time>2014-03-08T10:02:25Z</time>
      </trkpt>
      <trkpt lat="48.6813" lon="7.31149">
        <ele>477</ele>
        <time>2014-03-08T10:02:29Z</time>
      </trkpt>
      <trkpt lat="48.68129" lon="7.31148">
        <ele>479</ele>
        <time>2014-03-08T10:02:34Z</time>
      </trkpt>
      <trkpt lat="48.68127" lon="7.31147">
        <ele>480</ele>
        <time>2014-03-08T10:02:50Z</time>
      </trkpt>
      <trkpt lat="48.6811" lon="7.31121">
        <ele>479</ele>
        <time>2014-03-08T10:03:04Z</time>
      </trkpt>
      <trkpt lat="48.68102" lon="7.31101">
        <ele>478</ele>
        <time>2014-03-08T10:03:47Z</time>
      </trkpt>
      <trkpt lat="48.68048" lon="7.30977">
        <ele>474</ele>
        <time>2014-03-08T10:04:17Z</time>
      </trkpt>
      <trkpt lat="48.68049" lon="7.30945">
        <ele>478</ele>
        <time>2014-03-08T10:04:24Z</time>
      </trkpt>
      <trkpt lat="48.68071" lon="7.30875">
        <ele>484</ele>
        <time>2014-03-08T10:04:42Z</time>
      </trkpt>
      <trkpt lat="48.68072" lon="7.30873">
        <ele>486</ele>
        <time>2014-03-08T10:04:43Z</time>
      </trkpt>
      <trkpt lat="48.68098" lon="7.3075">
        <ele>484</ele>
        <time>2014-03-08T10:05:13Z</time>
      </trkpt>
      <trkpt lat="48.68088" lon="7.30693">
        <ele>479</ele>
        <time>2014-03-08T10:05:27Z</time>
      </trkpt>
      <trkpt lat="48.68032" lon="7.30537">
        <ele>482</ele>
        <time>2014-03-08T10:05:57Z</time>
      </trkpt>
      <trkpt lat="48.67974" lon="7.30405">
        <ele>485</ele>
        <time>2014-03-08T10:06:27Z</time>
      </trkpt>
      <trkpt lat="48.67964" lon="7.3038">
        <ele>486</ele>
        <time>2014-03-08T10:06:36Z</time>
      </trkpt>
      <trkpt lat="48.67964" lon="7.30379">
        <ele>487</ele>
        <time>2014-03-08T10:06:48Z</time>
      </trkpt>
      <trkpt lat="48.67963" lon="7.30376">
        <ele>488</ele>
        <time>2014-03-08T10:07:16Z</time>
      </trkpt>
      <trkpt lat="48.67886" lon="7.3023">
        <ele>485</ele>
        <time>2014-03-08T10:07:46Z</time>
      </trkpt>
      <trkpt lat="48.67818" lon="7.30095">
        <ele>485</ele>
        <time>2014-03-08T10:08:05Z</time>
      </trkpt>
      <trkpt lat="48.67811" lon="7.30057">
        <ele>485</ele>
        <time>2014-03-08T10:08:12Z</time>
      </trkpt>
      <trkpt lat="48.67809" lon="7.30057">
        <ele>487</ele>
        <time>2014-03-08T10:08:27Z</time>
      </trkpt>
      <trkpt lat="48.67807" lon="7.30057">
        <ele>486</ele>
        <time>2014-03-08T10:08:28Z</time>
      </trkpt>
      <trkpt lat="48.67803" lon="7.30064">
        <ele>484</ele>
        <time>2014-03-08T10:08:32Z</time>
      </trkpt>
      <trkpt lat="48.67804" lon="7.30069">
        <ele>485</ele>
        <time>2014-03-08T10:08:34Z</time>
      </trkpt>
      <trkpt lat="48.67823" lon="7.30102">
        <ele>485</ele>
        <time>2014-03-08T10:08:44Z</time>
      </trkpt>
      <trkpt lat="48.67834" lon="7.30125">
        <ele>490</ele>
        <time>2014-03-08T10:08:53Z</time>
      </trkpt>
      <trkpt lat="48.67809" lon="7.30065">
        <ele>490</ele>
        <time>2014-03-08T10:09:15Z</time>
      </trkpt>
      <trkpt lat="48.67809" lon="7.30061">
        <ele>492</ele>
        <time>2014-03-08T10:09:16Z</time>
      </trkpt>
      <trkpt lat="48.6781" lon="7.30058">
        <ele>491</ele>
        <time>2014-03-08T10:09:17Z</time>
      </trkpt>
      <trkpt lat="48.67817" lon="7.3005">
        <ele>486</ele>
        <time>2014-03-08T10:09:20Z</time>
      </trkpt>
      <trkpt lat="48.6783" lon="7.29955">
        <ele>483</ele>
        <time>2014-03-08T10:09:29Z</time>
      </trkpt>
      <trkpt lat="48.67806" lon="7.29805">
        <ele>472</ele>
        <time>2014-03-08T10:09:49Z</time>
      </trkpt>
      <trkpt lat="48.67804" lon="7.29805">
        <ele>472</ele>
        <time>2014-03-08T10:09:51Z</time>
      </trkpt>
      <trkpt lat="48.67805" lon="7.29813">
        <ele>473</ele>
        <time>2014-03-08T10:09:53Z</time>
      </trkpt>
      <trkpt lat="48.67804" lon="7.29817">
        <ele>475</ele>
        <time>2014-03-08T10:09:54Z</time>
      </trkpt>
      <trkpt lat="48.67795" lon="7.29852">
        <ele>472</ele>
        <time>2014-03-08T10:10:04Z</time>
      </trkpt>
      <trkpt lat="48.67797" lon="7.29851">
        <ele>470</ele>
        <time>2014-03-08T10:10:13Z</time>
      </trkpt>
      <trkpt lat="48.67823" lon="7.298">
        <ele>474</ele>
        <time>2014-03-08T10:10:43Z</time>
      </trkpt>
      <trkpt lat="48.67824" lon="7.29796">
        <ele>475</ele>
        <time>2014-03-08T10:10:57Z</time>
      </trkpt>
      <trkpt lat="48.67844" lon="7.2978">
        <ele>477</ele>
        <time>2014-03-08T10:11:09Z</time>
      </trkpt>
      <trkpt lat="48.67866" lon="7.29781">
        <ele>480</ele>
        <time>2014-03-08T10:11:21Z</time>
      </trkpt>
      <trkpt lat="48.67867" lon="7.29782">
        <ele>482</ele>
        <time>2014-03-08T10:11:23Z</time>
      </trkpt>
      <trkpt lat="48.67872" lon="7.29782">
        <ele>483</ele>
        <time>2014-03-08T10:11:29Z</time>
      </trkpt>
      <trkpt lat="48.67874" lon="7.29784">
        <ele>483</ele>
        <time>2014-03-08T10:11:31Z</time>
      </trkpt>
      <trkpt lat="48.67892" lon="7.29806">
        <ele>483</ele>
        <time>2014-03-08T10:11:48Z</time>
      </trkpt>
      <trkpt lat="48.67905" lon="7.29818">
        <ele>484</ele>
        <time>2014-03-08T10:11:54Z</time>
      </trkpt>
      <trkpt lat="48.67931" lon="7.29843">
        <ele>489</ele>
        <time>2014-03-08T10:12:07Z</time>
      </trkpt>
      <trkpt lat="48.67971" lon="7.29869">
        <ele>488</ele>
        <time>2014-03-08T10:12:30Z</time>
      </trkpt>
      <trkpt lat="48.67985" lon="7.29873">
        <ele>489</ele>
        <time>2014-03-08T10:12:40Z</time>
      </trkpt>
      <trkpt lat="48.68002" lon="7.29877">
        <ele>495</ele>
        <time>2014-03-08T10:12:53Z</time>
      </trkpt>
      <trkpt lat="48.68005" lon="7.29878">
        <ele>497</ele>
        <time>2014-03-08T10:12:57Z</time>
      </trkpt>
      <trkpt lat="48.68016" lon="7.29883">
        <ele>498</ele>
        <time>2014-03-08T10:13:12Z</time>
      </trkpt>
      <trkpt lat="48.68037" lon="7.29905">
        <ele>501</ele>
        <time>2014-03-08T10:13:35Z</time>
      </trkpt>
      <trkpt lat="48.68043" lon="7.2991">
        <ele>503</ele>
        <time>2014-03-08T10:13:41Z</time>
      </trkpt>
      <trkpt lat="48.68045" lon="7.29912">
        <ele>502</ele>
        <time>2014-03-08T10:13:43Z</time>
      </trkpt>
      <trkpt lat="48.68063" lon="7.29942">
        <ele>505</ele>
        <time>2014-03-08T10:14:17Z</time>
      </trkpt>
      <trkpt lat="48.68064" lon="7.29947">
        <ele>507</ele>
        <time>2014-03-08T10:14:25Z</time>
      </trkpt>
      <trkpt lat="48.68065" lon="7.29951">
        <ele>510</ele>
        <time>2014-03-08T10:14:27Z</time>
      </trkpt>
      <trkpt lat="48.68068" lon="7.29965">
        <ele>510</ele>
        <time>2014-03-08T10:14:33Z</time>
      </trkpt>
      <trkpt lat="48.68069" lon="7.29967">
        <ele>512</ele>
        <time>2014-03-08T10:14:34Z</time>
      </trkpt>
      <trkpt lat="48.68078" lon="7.29981">
        <ele>512</ele>
        <time>2014-03-08T10:14:40Z</time>
      </trkpt>
      <trkpt lat="48.68079" lon="7.29984">
        <ele>514</ele>
        <time>2014-03-08T10:14:41Z</time>
      </trkpt>
      <trkpt lat="48.6811" lon="7.30024">
        <ele>511</ele>
        <time>2014-03-08T10:15:02Z</time>
      </trkpt>
      <trkpt lat="48.68124" lon="7.30033">
        <ele>512</ele>
        <time>2014-03-08T10:15:24Z</time>
      </trkpt>
      <trkpt lat="48.68143" lon="7.30048">
        <ele>512</ele>
        <time>2014-03-08T10:15:41Z</time>
      </trkpt>
      <trkpt lat="48.68164" lon="7.30063">
        <ele>514</ele>
        <time>2014-03-08T10:15:57Z</time>
      </trkpt>
      <trkpt lat="48.68192" lon="7.30083">
        <ele>522</ele>
        <time>2014-03-08T10:16:22Z</time>
      </trkpt>
      <trkpt lat="48.68197" lon="7.30087">
        <ele>525</ele>
        <time>2014-03-08T10:16:28Z</time>
      </trkpt>
      <trkpt lat="48.682" lon="7.30089">
        <ele>527</ele>
        <time>2014-03-08T10:16:32Z</time>
      </trkpt>
      <trkpt lat="48.68203" lon="7.3009">
        <ele>528</ele>
        <time>2014-03-08T10:16:37Z</time>
      </trkpt>
      <trkpt lat="48.68223" lon="7.30097">
        <ele>531</ele>
        <time>2014-03-08T10:16:51Z</time>
      </trkpt>
      <trkpt lat="48.68239" lon="7.30104">
        <ele>535</ele>
        <time>2014-03-08T10:17:02Z</time>
      </trkpt>
      <trkpt lat="48.68284" lon="7.30105">
        <ele>537</ele>
        <time>2014-03-08T10:17:32Z</time>
      </trkpt>
      <trkpt lat="48.68334" lon="7.30102">
        <ele>540</ele>
        <time>2014-03-08T10:18:03Z</time>
      </trkpt>
      <trkpt lat="48.68336" lon="7.30102">
        <ele>539</ele>
        <time>2014-03-08T10:18:08Z</time>
      </trkpt>
      <trkpt lat="48.6834" lon="7.301">
        <ele>540</ele>
        <time>2014-03-08T10:18:14Z</time>
      </trkpt>
      <trkpt lat="48.68341" lon="7.30096">
        <ele>545</ele>
        <time>2014-03-08T10:18:24Z</time>
      </trkpt>
      <trkpt lat="48.6834" lon="7.30092">
        <ele>545</ele>
        <time>2014-03-08T10:18:32Z</time>
      </trkpt>
      <trkpt lat="48.68338" lon="7.3009">
        <ele>546</ele>
        <time>2014-03-08T10:18:36Z</time>
      </trkpt>
      <trkpt lat="48.68335" lon="7.30088">
        <ele>548</ele>
        <time>2014-03-08T10:18:38Z</time>
      </trkpt>
      <trkpt lat="48.68333" lon="7.30085">
        <ele>548</ele>
        <time>2014-03-08T10:18:42Z</time>
      </trkpt>
      <trkpt lat="48.68332" lon="7.3008">
        <ele>549</ele>
        <time>2014-03-08T10:18:47Z</time>
      </trkpt>
      <trkpt lat="48.68299" lon="7.3005">
        <ele>546</ele>
        <time>2014-03-08T10:19:19Z</time>
      </trkpt>
      <trkpt lat="48.68293" lon="7.30046">
        <ele>548</ele>
        <time>2014-03-08T10:19:26Z</time>
      </trkpt>
      <trkpt lat="48.68292" lon="7.30045">
        <ele>551</ele>
        <time>2014-03-08T10:19:29Z</time>
      </trkpt>
      <trkpt lat="48.6829" lon="7.30043">
        <ele>550</ele>
        <time>2014-03-08T10:19:40Z</time>
      </trkpt>
      <trkpt lat="48.68288" lon="7.30042">
        <ele>551</ele>
        <time>2014-03-08T10:19:43Z</time>
      </trkpt>
      <trkpt lat="48.68287" lon="7.30039">
        <ele>554</ele>
        <time>2014-03-08T10:19:46Z</time>
      </trkpt>
      <trkpt lat="48.68286" lon="7.30037">
        <ele>553</ele>
        <time>2014-03-08T10:19:48Z</time>
      </trkpt>
      <trkpt lat="48.68285" lon="7.30035">
        <ele>554</ele>
        <time>2014-03-08T10:19:51Z</time>
      </trkpt>
      <trkpt lat="48.68286" lon="7.30032">
        <ele>551</ele>
        <time>2014-03-08T10:20:02Z</time>
      </trkpt>
      <trkpt lat="48.68288" lon="7.30033">
        <ele>554</ele>
        <time>2014-03-08T10:20:05Z</time>
      </trkpt>
      <trkpt lat="48.68293" lon="7.30033">
        <ele>557</ele>
        <time>2014-03-08T10:20:10Z</time>
      </trkpt>
      <trkpt lat="48.68297" lon="7.30032">
        <ele>558</ele>
        <time>2014-03-08T10:20:15Z</time>
      </trkpt>
      <trkpt lat="48.68301" lon="7.30032">
        <ele>558</ele>
        <time>2014-03-08T10:20:20Z</time>
      </trkpt>
      <trkpt lat="48.68303" lon="7.30031">
        <ele>558</ele>
        <time>2014-03-08T10:20:24Z</time>
      </trkpt>
      <trkpt lat="48.68305" lon="7.30031">
        <ele>560</ele>
        <time>2014-03-08T10:20:27Z</time>
      </trkpt>
      <trkpt lat="48.6832" lon="7.30025">
        <ele>564</ele>
        <time>2014-03-08T10:20:57Z</time>
      </trkpt>
      <trkpt lat="48.68325" lon="7.30021">
        <ele>565</ele>
        <time>2014-03-08T10:21:02Z</time>
      </trkpt>
      <trkpt lat="48.68326" lon="7.30017">
        <ele>567</ele>
        <time>2014-03-08T10:21:05Z</time>
      </trkpt>
      <trkpt lat="48.68325" lon="7.30011">
        <ele>566</ele>
        <time>2014-03-08T10:21:11Z</time>
      </trkpt>
      <trkpt lat="48.68325" lon="7.30009">
        <ele>566</ele>
        <time>2014-03-08T10:21:13Z</time>
      </trkpt>
      <trkpt lat="48.68324" lon="7.30006">
        <ele>566</ele>
        <time>2014-03-08T10:21:15Z</time>
      </trkpt>
      <trkpt lat="48.68323" lon="7.30004">
        <ele>565</ele>
        <time>2014-03-08T10:21:17Z</time>
      </trkpt>
      <trkpt lat="48.68321" lon="7.30002">
        <ele>564</ele>
        <time>2014-03-08T10:21:19Z</time>
      </trkpt>
      <trkpt lat="48.6831" lon="7.29998">
        <ele>562</ele>
        <time>2014-03-08T10:21:31Z</time>
      </trkpt>
      <trkpt lat="48.68312" lon="7.3">
        <ele>563</ele>
        <time>2014-03-08T10:22:01Z</time>
      </trkpt>
      <trkpt lat="48.68319" lon="7.30001">
        <ele>563</ele>
        <time>2014-03-08T10:22:09Z</time>
      </trkpt>
      <trkpt lat="48.68321" lon="7.30003">
        <ele>563</ele>
        <time>2014-03-08T10:22:11Z</time>
      </trkpt>
      <trkpt lat="48.68321" lon="7.30006">
        <ele>564</ele>
        <time>2014-03-08T10:22:14Z</time>
      </trkpt>
      <trkpt lat="48.6832" lon="7.30012">
        <ele>562</ele>
        <time>2014-03-08T10:22:20Z</time>
      </trkpt>
      <trkpt lat="48.6832" lon="7.30015">
        <ele>562</ele>
        <time>2014-03-08T10:22:23Z</time>
      </trkpt>
      <trkpt lat="48.68322" lon="7.30017">
        <ele>562</ele>
        <time>2014-03-08T10:22:26Z</time>
      </trkpt>
      <trkpt lat="48.68324" lon="7.30021">
        <ele>562</ele>
        <time>2014-03-08T10:22:33Z</time>
      </trkpt>
      <trkpt lat="48.68324" lon="7.30018">
        <ele>562</ele>
        <time>2014-03-08T10:22:44Z</time>
      </trkpt>
      <trkpt lat="48.68324" lon="7.30015">
        <ele>561</ele>
        <time>2014-03-08T10:22:46Z</time>
      </trkpt>
      <trkpt lat="48.68324" lon="7.30013">
        <ele>563</ele>
        <time>2014-03-08T10:22:49Z</time>
      </trkpt>
      <trkpt lat="48.68304" lon="7.29995">
        <ele>618</ele>
        <time>2014-03-08T10:31:22Z</time>
      </trkpt>
      <trkpt lat="48.68304" lon="7.29995">
        <ele>570</ele>
        <time>2014-03-08T10:31:23Z</time>
      </trkpt>
      <trkpt lat="48.68306" lon="7.29994">
        <ele>572</ele>
        <time>2014-03-08T10:33:00Z</time>
      </trkpt>
      <trkpt lat="48.68308" lon="7.29995">
        <ele>569</ele>
        <time>2014-03-08T10:33:32Z</time>
      </trkpt>
      <trkpt lat="48.68347" lon="7.29994">
        <ele>562</ele>
        <time>2014-03-08T10:33:46Z</time>
      </trkpt>
      <trkpt lat="48.68354" lon="7.29987">
        <ele>560</ele>
        <time>2014-03-08T10:33:50Z</time>
      </trkpt>
      <trkpt lat="48.68402" lon="7.30008">
        <ele>560</ele>
        <time>2014-03-08T10:34:15Z</time>
      </trkpt>
      <trkpt lat="48.68413" lon="7.30029">
        <ele>559</ele>
        <time>2014-03-08T10:34:24Z</time>
      </trkpt>
      <trkpt lat="48.68412" lon="7.30031">
        <ele>560</ele>
        <time>2014-03-08T10:34:30Z</time>
      </trkpt>
      <trkpt lat="48.68416" lon="7.30038">
        <ele>559</ele>
        <time>2014-03-08T10:34:35Z</time>
      </trkpt>
      <trkpt lat="48.68417" lon="7.30047">
        <ele>561</ele>
        <time>2014-03-08T10:34:38Z</time>
      </trkpt>
      <trkpt lat="48.68419" lon="7.30065">
        <ele>561</ele>
        <time>2014-03-08T10:34:41Z</time>
      </trkpt>
      <trkpt lat="48.68423" lon="7.30072">
        <ele>562</ele>
        <time>2014-03-08T10:34:43Z</time>
      </trkpt>
      <trkpt lat="48.68425" lon="7.30071">
        <ele>559</ele>
        <time>2014-03-08T10:34:46Z</time>
      </trkpt>
      <trkpt lat="48.6843" lon="7.3007">
        <ele>556</ele>
        <time>2014-03-08T10:34:51Z</time>
      </trkpt>
      <trkpt lat="48.68432" lon="7.30071">
        <ele>556</ele>
        <time>2014-03-08T10:34:54Z</time>
      </trkpt>
      <trkpt lat="48.68428" lon="7.30072">
        <ele>561</ele>
        <time>2014-03-08T10:35:20Z</time>
      </trkpt>
      <trkpt lat="48.68427" lon="7.30069">
        <ele>561</ele>
        <time>2014-03-08T10:35:22Z</time>
      </trkpt>
      <trkpt lat="48.68426" lon="7.30062">
        <ele>555</ele>
        <time>2014-03-08T10:35:26Z</time>
      </trkpt>
      <trkpt lat="48.68424" lon="7.30058">
        <ele>554</ele>
        <time>2014-03-08T10:35:29Z</time>
      </trkpt>
      <trkpt lat="48.68422" lon="7.30056">
        <ele>554</ele>
        <time>2014-03-08T10:35:32Z</time>
      </trkpt>
      <trkpt lat="48.68424" lon="7.30055">
        <ele>555</ele>
        <time>2014-03-08T10:35:55Z</time>
      </trkpt>
      <trkpt lat="48.68419" lon="7.30052">
        <ele>555</ele>
        <time>2014-03-08T10:36:15Z</time>
      </trkpt>
      <trkpt lat="48.68422" lon="7.30057">
        <ele>557</ele>
        <time>2014-03-08T10:36:29Z</time>
      </trkpt>
      <trkpt lat="48.68432" lon="7.30072">
        <ele>554</ele>
        <time>2014-03-08T10:36:39Z</time>
      </trkpt>
      <trkpt lat="48.68435" lon="7.30073">
        <ele>554</ele>
        <time>2014-03-08T10:36:41Z</time>
      </trkpt>
      <trkpt lat="48.68438" lon="7.30073">
        <ele>559</ele>
        <time>2014-03-08T10:37:14Z</time>
      </trkpt>
      <trkpt lat="48.68439" lon="7.30067">
        <ele>573</ele>
        <time>2014-03-08T10:38:04Z</time>
      </trkpt>
      <trkpt lat="48.6844" lon="7.30065">
        <ele>571</ele>
        <time>2014-03-08T10:38:15Z</time>
      </trkpt>
      <trkpt lat="48.68435" lon="7.30063">
        <ele>570</ele>
        <time>2014-03-08T10:38:44Z</time>
      </trkpt>
      <trkpt lat="48.68432" lon="7.30068">
        <ele>567</ele>
        <time>2014-03-08T10:40:18Z</time>
      </trkpt>
      <trkpt lat="48.68435" lon="7.3008">
        <ele>605</ele>
        <time>2014-03-08T10:43:21Z</time>
      </trkpt>
      <trkpt lat="48.68435" lon="7.3008">
        <ele>557</ele>
        <time>2014-03-08T10:43:22Z</time>
      </trkpt>
      <trkpt lat="48.68444" lon="7.30077">
        <ele>555</ele>
        <time>2014-03-08T10:43:52Z</time>
      </trkpt>
      <trkpt lat="48.6845" lon="7.30076">
        <ele>558</ele>
        <time>2014-03-08T10:43:55Z</time>
      </trkpt>
      <trkpt lat="48.68457" lon="7.30083">
        <ele>557</ele>
        <time>2014-03-08T10:44:01Z</time>
      </trkpt>
      <trkpt lat="48.68461" lon="7.30082">
        <ele>556</ele>
        <time>2014-03-08T10:44:13Z</time>
      </trkpt>
      <trkpt lat="48.68462" lon="7.30079">
        <ele>558</ele>
        <time>2014-03-08T10:44:23Z</time>
      </trkpt>
      <trkpt lat="48.68458" lon="7.30076">
        <ele>556</ele>
        <time>2014-03-08T10:44:27Z</time>
      </trkpt>
      <trkpt lat="48.68455" lon="7.30075">
        <ele>557</ele>
        <time>2014-03-08T10:44:28Z</time>
      </trkpt>
      <trkpt lat="48.68458" lon="7.30077">
        <ele>565</ele>
        <time>2014-03-08T10:44:57Z</time>
      </trkpt>
      <trkpt lat="48.68461" lon="7.30083">
        <ele>566</ele>
        <time>2014-03-08T10:45:01Z</time>
      </trkpt>
      <trkpt lat="48.68472" lon="7.30101">
        <ele>568</ele>
        <time>2014-03-08T10:45:12Z</time>
      </trkpt>
      <trkpt lat="48.68473" lon="7.30104">
        <ele>572</ele>
        <time>2014-03-08T10:45:15Z</time>
      </trkpt>
      <trkpt lat="48.68481" lon="7.3011">
        <ele>570</ele>
        <time>2014-03-08T10:45:29Z</time>
      </trkpt>
      <trkpt lat="48.68483" lon="7.30113">
        <ele>572</ele>
        <time>2014-03-08T10:45:39Z</time>
      </trkpt>
      <trkpt lat="48.68514" lon="7.30125">
        <ele>574</ele>
        <time>2014-03-08T10:46:10Z</time>
      </trkpt>
      <trkpt lat="48.68541" lon="7.30151">
        <ele>574</ele>
        <time>2014-03-08T10:46:40Z</time>
      </trkpt>
      <trkpt lat="48.68555" lon="7.30165">
        <ele>575</ele>
        <time>2014-03-08T10:46:49Z</time>
      </trkpt>
      <trkpt lat="48.68562" lon="7.30135">
        <ele>575</ele>
        <time>2014-03-08T10:47:03Z</time>
      </trkpt>
      <trkpt lat="48.6856" lon="7.30136">
        <ele>575</ele>
        <time>2014-03-08T10:47:08Z</time>
      </trkpt>
      <trkpt lat="48.6856" lon="7.30139">
        <ele>575</ele>
        <time>2014-03-08T10:47:10Z</time>
      </trkpt>
      <trkpt lat="48.68558" lon="7.3017">
        <ele>575</ele>
        <time>2014-03-08T10:47:21Z</time>
      </trkpt>
      <trkpt lat="48.68561" lon="7.30174">
        <ele>574</ele>
        <time>2014-03-08T10:47:23Z</time>
      </trkpt>
      <trkpt lat="48.68627" lon="7.30202">
        <ele>572</ele>
        <time>2014-03-08T10:47:53Z</time>
      </trkpt>
      <trkpt lat="48.68752" lon="7.30223">
        <ele>570</ele>
        <time>2014-03-08T10:48:23Z</time>
      </trkpt>
      <trkpt lat="48.68772" lon="7.30219">
        <ele>567</ele>
        <time>2014-03-08T10:48:28Z</time>
      </trkpt>
      <trkpt lat="48.6878" lon="7.30202">
        <ele>565</ele>
        <time>2014-03-08T10:48:31Z</time>
      </trkpt>
      <trkpt lat="48.68781" lon="7.30196">
        <ele>565</ele>
        <time>2014-03-08T10:48:32Z</time>
      </trkpt>
      <trkpt lat="48.68823" lon="7.30118">
        <ele>560</ele>
        <time>2014-03-08T10:48:51Z</time>
      </trkpt>
      <trkpt lat="48.6892" lon="7.30029">
        <ele>553</ele>
        <time>2014-03-08T10:49:25Z</time>
      </trkpt>
      <trkpt lat="48.68936" lon="7.30034">
        <ele>549</ele>
        <time>2014-03-08T10:49:44Z</time>
      </trkpt>
      <trkpt lat="48.68937" lon="7.30031">
        <ele>548</ele>
        <time>2014-03-08T10:49:47Z</time>
      </trkpt>
      <trkpt lat="48.68938" lon="7.30027">
        <ele>548</ele>
        <time>2014-03-08T10:49:59Z</time>
      </trkpt>
      <trkpt lat="48.68935" lon="7.30021">
        <ele>548</ele>
        <time>2014-03-08T10:50:04Z</time>
      </trkpt>
      <trkpt lat="48.68934" lon="7.30017">
        <ele>547</ele>
        <time>2014-03-08T10:50:08Z</time>
      </trkpt>
      <trkpt lat="48.68928" lon="7.30004">
        <ele>538</ele>
        <time>2014-03-08T10:50:14Z</time>
      </trkpt>
      <trkpt lat="48.68929" lon="7.30002">
        <ele>536</ele>
        <time>2014-03-08T10:50:17Z</time>
      </trkpt>
      <trkpt lat="48.68992" lon="7.30022">
        <ele>530</ele>
        <time>2014-03-08T10:50:47Z</time>
      </trkpt>
      <trkpt lat="48.69032" lon="7.30054">
        <ele>522</ele>
        <time>2014-03-08T10:50:59Z</time>
      </trkpt>
      <trkpt lat="48.69043" lon="7.30072">
        <ele>524</ele>
        <time>2014-03-08T10:51:04Z</time>
      </trkpt>
      <trkpt lat="48.69164" lon="7.30111">
        <ele>497</ele>
        <time>2014-03-08T10:51:35Z</time>
      </trkpt>
      <trkpt lat="48.69166" lon="7.30111">
        <ele>497</ele>
        <time>2014-03-08T10:52:59Z</time>
      </trkpt>
      <trkpt lat="48.69173" lon="7.30112">
        <ele>497</ele>
        <time>2014-03-08T10:53:03Z</time>
      </trkpt>
      <trkpt lat="48.69239" lon="7.30178">
        <ele>492</ele>
        <time>2014-03-08T10:53:33Z</time>
      </trkpt>
      <trkpt lat="48.6931" lon="7.3023">
        <ele>488</ele>
        <time>2014-03-08T10:53:59Z</time>
      </trkpt>
      <trkpt lat="48.69401" lon="7.30298">
        <ele>497</ele>
        <time>2014-03-08T10:54:29Z</time>
      </trkpt>
      <trkpt lat="48.69536" lon="7.30396">
        <ele>482</ele>
        <time>2014-03-08T10:54:59Z</time>
      </trkpt>
      <trkpt lat="48.69598" lon="7.30416">
        <ele>483</ele>
        <time>2014-03-08T10:55:13Z</time>
      </trkpt>
      <trkpt lat="48.69598" lon="7.3042">
        <ele>484</ele>
        <time>2014-03-08T10:55:22Z</time>
      </trkpt>
      <trkpt lat="48.69737" lon="7.30479">
        <ele>476</ele>
        <time>2014-03-08T10:55:52Z</time>
      </trkpt>
      <trkpt lat="48.69846" lon="7.30525">
        <ele>465</ele>
        <time>2014-03-08T10:56:22Z</time>
      </trkpt>
      <trkpt lat="48.6998" lon="7.30485">
        <ele>462</ele>
        <time>2014-03-08T10:56:52Z</time>
      </trkpt>
      <trkpt lat="48.70039" lon="7.30452">
        <ele>453</ele>
        <time>2014-03-08T10:57:22Z</time>
      </trkpt>
      <trkpt lat="48.70149" lon="7.30443">
        <ele>447</ele>
        <time>2014-03-08T10:57:52Z</time>
      </trkpt>
      <trkpt lat="48.70258" lon="7.30347">
        <ele>432</ele>
        <time>2014-03-08T10:58:22Z</time>
      </trkpt>
      <trkpt lat="48.70266" lon="7.30342">
        <ele>432</ele>
        <time>2014-03-08T10:58:24Z</time>
      </trkpt>
      <trkpt lat="48.7028" lon="7.30326">
        <ele>434</ele>
        <time>2014-03-08T10:58:32Z</time>
      </trkpt>
      <trkpt lat="48.7036" lon="7.30286">
        <ele>430</ele>
        <time>2014-03-08T10:58:53Z</time>
      </trkpt>
      <trkpt lat="48.70364" lon="7.30285">
        <ele>434</ele>
        <time>2014-03-08T10:59:49Z</time>
      </trkpt>
      <trkpt lat="48.70437" lon="7.3024">
        <ele>423</ele>
        <time>2014-03-08T11:00:11Z</time>
      </trkpt>
      <trkpt lat="48.70434" lon="7.30242">
        <ele>421</ele>
        <time>2014-03-08T11:00:30Z</time>
      </trkpt>
      <trkpt lat="48.70436" lon="7.30245">
        <ele>423</ele>
        <time>2014-03-08T11:00:38Z</time>
      </trkpt>
      <trkpt lat="48.70452" lon="7.30249">
        <ele>414</ele>
        <time>2014-03-08T11:00:58Z</time>
      </trkpt>
      <trkpt lat="48.70456" lon="7.30253">
        <ele>414</ele>
        <time>2014-03-08T11:01:05Z</time>
      </trkpt>
      <trkpt lat="48.70459" lon="7.30253">
        <ele>413</ele>
        <time>2014-03-08T11:01:07Z</time>
      </trkpt>
      <trkpt lat="48.70463" lon="7.30249">
        <ele>412</ele>
        <time>2014-03-08T11:01:11Z</time>
      </trkpt>
      <trkpt lat="48.7051" lon="7.30254">
        <ele>401</ele>
        <time>2014-03-08T11:01:41Z</time>
      </trkpt>
      <trkpt lat="48.70531" lon="7.30244">
        <ele>397</ele>
        <time>2014-03-08T11:01:57Z</time>
      </trkpt>
      <trkpt lat="48.70583" lon="7.30261">
        <ele>387</ele>
        <time>2014-03-08T11:02:27Z</time>
      </trkpt>
      <trkpt lat="48.70617" lon="7.30289">
        <ele>387</ele>
        <time>2014-03-08T11:02:57Z</time>
      </trkpt>
      <trkpt lat="48.70621" lon="7.30295">
        <ele>385</ele>
        <time>2014-03-08T11:02:59Z</time>
      </trkpt>
      <trkpt lat="48.70628" lon="7.30298">
        <ele>388</ele>
        <time>2014-03-08T11:03:02Z</time>
      </trkpt>
      <trkpt lat="48.70636" lon="7.30288">
        <ele>379</ele>
        <time>2014-03-08T11:03:10Z</time>
      </trkpt>
      <trkpt lat="48.70637" lon="7.30286">
        <ele>376</ele>
        <time>2014-03-08T11:03:12Z</time>
      </trkpt>
      <trkpt lat="48.7064" lon="7.30279">
        <ele>376</ele>
        <time>2014-03-08T11:03:27Z</time>
      </trkpt>
      <trkpt lat="48.70658" lon="7.30171">
        <ele>362</ele>
        <time>2014-03-08T11:03:57Z</time>
      </trkpt>
      <trkpt lat="48.70655" lon="7.30132">
        <ele>360</ele>
        <time>2014-03-08T11:04:02Z</time>
      </trkpt>
      <trkpt lat="48.70653" lon="7.30128">
        <ele>359</ele>
        <time>2014-03-08T11:04:03Z</time>
      </trkpt>
      <trkpt lat="48.70642" lon="7.30029">
        <ele>342</ele>
        <time>2014-03-08T11:04:21Z</time>
      </trkpt>
      <trkpt lat="48.70644" lon="7.30028">
        <ele>343</ele>
        <time>2014-03-08T11:04:26Z</time>
      </trkpt>
      <trkpt lat="48.70658" lon="7.3005">
        <ele>337</ele>
        <time>2014-03-08T11:04:35Z</time>
      </trkpt>
      <trkpt lat="48.70664" lon="7.30055">
        <ele>337</ele>
        <time>2014-03-08T11:04:38Z</time>
      </trkpt>
      <trkpt lat="48.70721" lon="7.30122">
        <ele>331</ele>
        <time>2014-03-08T11:05:08Z</time>
      </trkpt>
      <trkpt lat="48.70725" lon="7.30125">
        <ele>332</ele>
        <time>2014-03-08T11:05:10Z</time>
      </trkpt>
      <trkpt lat="48.70758" lon="7.3016">
        <ele>328</ele>
        <time>2014-03-08T11:05:23Z</time>
      </trkpt>
      <trkpt lat="48.70767" lon="7.30154">
        <ele>328</ele>
        <time>2014-03-08T11:05:27Z</time>
      </trkpt>
      <trkpt lat="48.70768" lon="7.30155">
        <ele>321</ele>
        <time>2014-03-08T11:05:56Z</time>
      </trkpt>
      <trkpt lat="48.70747" lon="7.30083">
        <ele>322</ele>
        <time>2014-03-08T11:06:12Z</time>
      </trkpt>
      <trkpt lat="48.70724" lon="7.29972">
        <ele>315</ele>
        <time>2014-03-08T11:06:45Z</time>
      </trkpt>
      <trkpt lat="48.70655" lon="7.29753">
        <ele>300</ele>
        <time>2014-03-08T11:07:13Z</time>
      </trkpt>
      <trkpt lat="48.70557" lon="7.2955">
        <ele>281</ele>
        <time>2014-03-08T11:07:39Z</time>
      </trkpt>
      <trkpt lat="48.70565" lon="7.29238">
        <ele>262</ele>
        <time>2014-03-08T11:08:09Z</time>
      </trkpt>
      <trkpt lat="48.70535" lon="7.29172">
        <ele>262</ele>
        <time>2014-03-08T11:08:20Z</time>
      </trkpt>
      <trkpt lat="48.70537" lon="7.29164">
        <ele>266</ele>
        <time>2014-03-08T11:08:22Z</time>
      </trkpt>
      <trkpt lat="48.70531" lon="7.29146">
        <ele>268</ele>
        <time>2014-03-08T11:08:27Z</time>
      </trkpt>
      <trkpt lat="48.70526" lon="7.29147">
        <ele>266</ele>
        <time>2014-03-08T11:08:29Z</time>
      </trkpt>
      <trkpt lat="48.70522" lon="7.29144">
        <ele>264</ele>
        <time>2014-03-08T11:08:32Z</time>
      </trkpt>
      <trkpt lat="48.70523" lon="7.29136">
        <ele>263</ele>
        <time>2014-03-08T11:08:36Z</time>
      </trkpt>
      <trkpt lat="48.70539" lon="7.29158">
        <ele>263</ele>
        <time>2014-03-08T11:08:42Z</time>
      </trkpt>
      <trkpt lat="48.70628" lon="7.2933">
        <ele>252</ele>
        <time>2014-03-08T11:09:11Z</time>
      </trkpt>
      <trkpt lat="48.70626" lon="7.29341">
        <ele>250</ele>
        <time>2014-03-08T11:09:12Z</time>
      </trkpt>
      <trkpt lat="48.70629" lon="7.29371">
        <ele>250</ele>
        <time>2014-03-08T11:09:15Z</time>
      </trkpt>
      <trkpt lat="48.70633" lon="7.2959">
        <ele>248</ele>
        <time>2014-03-08T11:09:36Z</time>
      </trkpt>
      <trkpt lat="48.70712" lon="7.29629">
        <ele>247</ele>
        <time>2014-03-08T11:09:50Z</time>
      </trkpt>
      <trkpt lat="48.70718" lon="7.29628">
        <ele>246</ele>
        <time>2014-03-08T11:09:51Z</time>
      </trkpt>
      <trkpt lat="48.70758" lon="7.29642">
        <ele>248</ele>
        <time>2014-03-08T11:09:58Z</time>
      </trkpt>
      <trkpt lat="48.70771" lon="7.2965">
        <ele>251</ele>
        <time>2014-03-08T11:10:01Z</time>
      </trkpt>
      <trkpt lat="48.70878" lon="7.2992">
        <ele>242</ele>
        <time>2014-03-08T11:10:31Z</time>
      </trkpt>
      <trkpt lat="48.70881" lon="7.29927">
        <ele>242</ele>
        <time>2014-03-08T11:10:32Z</time>
      </trkpt>
      <trkpt lat="48.70921" lon="7.29978">
        <ele>246</ele>
        <time>2014-03-08T11:10:40Z</time>
      </trkpt>
      <trkpt lat="48.70926" lon="7.29984">
        <ele>248</ele>
        <time>2014-03-08T11:10:41Z</time>
      </trkpt>
      <trkpt lat="48.70954" lon="7.30009">
        <ele>249</ele>
        <time>2014-03-08T11:10:46Z</time>
      </trkpt>
      <trkpt lat="48.71002" lon="7.30152">
        <ele>242</ele>
        <time>2014-03-08T11:11:05Z</time>
      </trkpt>
      <trkpt lat="48.71002" lon="7.30166">
        <ele>243</ele>
        <time>2014-03-08T11:11:07Z</time>
      </trkpt>
      <trkpt lat="48.70996" lon="7.30185">
        <ele>241</ele>
        <time>2014-03-08T11:11:10Z</time>
      </trkpt>
      <trkpt lat="48.71" lon="7.30197">
        <ele>243</ele>
        <time>2014-03-08T11:11:12Z</time>
      </trkpt>
      <trkpt lat="48.70978" lon="7.30293">
        <ele>241</ele>
        <time>2014-03-08T11:11:23Z</time>
      </trkpt>
      <trkpt lat="48.70992" lon="7.30515">
        <ele>237</ele>
        <time>2014-03-08T11:11:50Z</time>
      </trkpt>
      <trkpt lat="48.70997" lon="7.30529">
        <ele>239</ele>
        <time>2014-03-08T11:11:52Z</time>
      </trkpt>
      <trkpt lat="48.70996" lon="7.30553">
        <ele>238</ele>
        <time>2014-03-08T11:11:55Z</time>
      </trkpt>
      <trkpt lat="48.70988" lon="7.30587">
        <ele>238</ele>
        <time>2014-03-08T11:11:59Z</time>
      </trkpt>
      <trkpt lat="48.70979" lon="7.30612">
        <ele>236</ele>
        <time>2014-03-08T11:12:03Z</time>
      </trkpt>
      <trkpt lat="48.70961" lon="7.30844">
        <ele>230</ele>
        <time>2014-03-08T11:12:30Z</time>
      </trkpt>
      <trkpt lat="48.70966" lon="7.30859">
        <ele>230</ele>
        <time>2014-03-08T11:12:32Z</time>
      </trkpt>
      <trkpt lat="48.70973" lon="7.30868">
        <ele>231</ele>
        <time>2014-03-08T11:12:34Z</time>
      </trkpt>
      <trkpt lat="48.71035" lon="7.30857">
        <ele>226</ele>
        <time>2014-03-08T11:12:55Z</time>
      </trkpt>
      <trkpt lat="48.71032" lon="7.30857">
        <ele>223</ele>
        <time>2014-03-08T11:14:12Z</time>
      </trkpt>
      <trkpt lat="48.70969" lon="7.30888">
        <ele>219</ele>
        <time>2014-03-08T11:14:36Z</time>
      </trkpt>
      <trkpt lat="48.70966" lon="7.30892">
        <ele>221</ele>
        <time>2014-03-08T11:16:39Z</time>
      </trkpt>
      <trkpt lat="48.70963" lon="7.30893">
        <ele>218</ele>
        <time>2014-03-08T11:17:16Z</time>
      </trkpt>
      <trkpt lat="48.70957" lon="7.30895">
        <ele>217</ele>
        <time>2014-03-08T11:17:18Z</time>
      </trkpt>
      <trkpt lat="48.70955" lon="7.30895">
        <ele>218</ele>
        <time>2014-03-08T11:17:19Z</time>
      </trkpt>
      <trkpt lat="48.70911" lon="7.3092">
        <ele>218</ele>
        <time>2014-03-08T11:17:36Z</time>
      </trkpt>
      <trkpt lat="48.70839" lon="7.3094">
        <ele>222</ele>
        <time>2014-03-08T11:18:06Z</time>
      </trkpt>
      <trkpt lat="48.70831" lon="7.30942">
        <ele>222</ele>
        <time>2014-03-08T11:18:10Z</time>
      </trkpt>
      <trkpt lat="48.70825" lon="7.30944">
        <ele>224</ele>
        <time>2014-03-08T11:18:13Z</time>
      </trkpt>
      <trkpt lat="48.70825" lon="7.30945">
        <ele>224</ele>
        <time>2014-03-08T11:18:22Z</time>
      </trkpt>
      <trkpt lat="48.70831" lon="7.30946">
        <ele>232</ele>
        <time>2014-03-08T11:19:15Z</time>
      </trkpt>
      <trkpt lat="48.70846" lon="7.30944">
        <ele>236</ele>
        <time>2014-03-08T11:19:18Z</time>
      </trkpt>
      <trkpt lat="48.70978" lon="7.30892">
        <ele>226</ele>
        <time>2014-03-08T11:19:47Z</time>
      </trkpt>
      <trkpt lat="48.70977" lon="7.30887">
        <ele>224</ele>
        <time>2014-03-08T11:19:49Z</time>
      </trkpt>
      <trkpt lat="48.70974" lon="7.30887">
        <ele>226</ele>
        <time>2014-03-08T11:19:50Z</time>
      </trkpt>
      <trkpt lat="48.7097" lon="7.30891">
        <ele>226</ele>
        <time>2014-03-08T11:19:52Z</time>
      </trkpt>
      <trkpt lat="48.7097" lon="7.30895">
        <ele>221</ele>
        <time>2014-03-08T11:19:57Z</time>
      </trkpt>
      <trkpt lat="48.70973" lon="7.30893">
        <ele>217</ele>
        <time>2014-03-08T11:20:15Z</time>
      </trkpt>
      <trkpt lat="48.70985" lon="7.30867">
        <ele>218</ele>
        <time>2014-03-08T11:20:21Z</time>
      </trkpt>
      <trkpt lat="48.71106" lon="7.30859">
        <ele>220</ele>
        <time>2014-03-08T11:20:44Z</time>
      </trkpt>
      <trkpt lat="48.71146" lon="7.30884">
        <ele>222</ele>
        <time>2014-03-08T11:20:51Z</time>
      </trkpt>
      <trkpt lat="48.71252" lon="7.30948">
        <ele>227</ele>
        <time>2014-03-08T11:21:11Z</time>
      </trkpt>
      <trkpt lat="48.71349" lon="7.3109">
        <ele>227</ele>
        <time>2014-03-08T11:21:36Z</time>
      </trkpt>
      <trkpt lat="48.71369" lon="7.31115">
        <ele>230</ele>
        <time>2014-03-08T11:21:41Z</time>
      </trkpt>
      <trkpt lat="48.71396" lon="7.31147">
        <ele>229</ele>
        <time>2014-03-08T11:21:46Z</time>
      </trkpt>
      <trkpt lat="48.71401" lon="7.3115">
        <ele>232</ele>
        <time>2014-03-08T11:21:47Z</time>
      </trkpt>
      <trkpt lat="48.71407" lon="7.31162">
        <ele>231</ele>
        <time>2014-03-08T11:21:48Z</time>
      </trkpt>
      <trkpt lat="48.71413" lon="7.31164">
        <ele>232</ele>
        <time>2014-03-08T11:21:49Z</time>
      </trkpt>
      <trkpt lat="48.71528" lon="7.31219">
        <ele>240</ele>
        <time>2014-03-08T11:22:13Z</time>
      </trkpt>
      <trkpt lat="48.71532" lon="7.31222">
        <ele>242</ele>
        <time>2014-03-08T11:22:14Z</time>
      </trkpt>
      <trkpt lat="48.7154" lon="7.31238">
        <ele>239</ele>
        <time>2014-03-08T11:22:17Z</time>
      </trkpt>
      <trkpt lat="48.71568" lon="7.31273">
        <ele>238</ele>
        <time>2014-03-08T11:22:28Z</time>
      </trkpt>
      <trkpt lat="48.71678" lon="7.31429">
        <ele>235</ele>
        <time>2014-03-08T11:22:58Z</time>
      </trkpt>
      <trkpt lat="48.71697" lon="7.31447">
        <ele>237</ele>
        <time>2014-03-08T11:23:04Z</time>
      </trkpt>
      <trkpt lat="48.71709" lon="7.31462">
        <ele>238</ele>
        <time>2014-03-08T11:23:08Z</time>
      </trkpt>
      <trkpt lat="48.7173" lon="7.31481">
        <ele>241</ele>
        <time>2014-03-08T11:23:13Z</time>
      </trkpt>
      <trkpt lat="48.71746" lon="7.31493">
        <ele>242</ele>
        <time>2014-03-08T11:23:16Z</time>
      </trkpt>
      <trkpt lat="48.71856" lon="7.31479">
        <ele>219</ele>
        <time>2014-03-08T11:23:47Z</time>
      </trkpt>
      <trkpt lat="48.7186" lon="7.31487">
        <ele>219</ele>
        <time>2014-03-08T11:23:50Z</time>
      </trkpt>
      <trkpt lat="48.7186" lon="7.31492">
        <ele>219</ele>
        <time>2014-03-08T11:23:52Z</time>
      </trkpt>
      <trkpt lat="48.71858" lon="7.31495">
        <ele>219</ele>
        <time>2014-03-08T11:23:54Z</time>
      </trkpt>
      <trkpt lat="48.71856" lon="7.31495">
        <ele>219</ele>
        <time>2014-03-08T11:23:57Z</time>
      </trkpt>
      <trkpt lat="48.71854" lon="7.31489">
        <ele>220</ele>
        <time>2014-03-08T11:24:02Z</time>
      </trkpt>
      <trkpt lat="48.71857" lon="7.31485">
        <ele>220</ele>
        <time>2014-03-08T11:24:04Z</time>
      </trkpt>
      <trkpt lat="48.71859" lon="7.31486">
        <ele>219</ele>
        <time>2014-03-08T11:24:11Z</time>
      </trkpt>
      <trkpt lat="48.71861" lon="7.31488">
        <ele>218</ele>
        <time>2014-03-08T11:24:34Z</time>
      </trkpt>
      <trkpt lat="48.71876" lon="7.31487">
        <ele>209</ele>
        <time>2014-03-08T11:24:41Z</time>
      </trkpt>
      <trkpt lat="48.71877" lon="7.31485">
        <ele>207</ele>
        <time>2014-03-08T11:24:44Z</time>
      </trkpt>
      <trkpt lat="48.71881" lon="7.31484">
        <ele>201</ele>
        <time>2014-03-08T11:25:48Z</time>
      </trkpt>
      <trkpt lat="48.71884" lon="7.31485">
        <ele>199</ele>
        <time>2014-03-08T11:25:50Z</time>
      </trkpt>
      <trkpt lat="48.71893" lon="7.31476">
        <ele>200</ele>
        <time>2014-03-08T11:25:56Z</time>
      </trkpt>
      <trkpt lat="48.71911" lon="7.3145">
        <ele>203</ele>
        <time>2014-03-08T11:26:09Z</time>
      </trkpt>
      <trkpt lat="48.71913" lon="7.31446">
        <ele>205</ele>
        <time>2014-03-08T11:26:11Z</time>
      </trkpt>
      <trkpt lat="48.71924" lon="7.31428">
        <ele>209</ele>
        <time>2014-03-08T11:26:21Z</time>
      </trkpt>
      <trkpt lat="48.71926" lon="7.31426">
        <ele>211</ele>
        <time>2014-03-08T11:26:23Z</time>
      </trkpt>
      <trkpt lat="48.71928" lon="7.31426">
        <ele>214</ele>
        <time>2014-03-08T11:26:26Z</time>
      </trkpt>
      <trkpt lat="48.71966" lon="7.31445">
        <ele>218</ele>
        <time>2014-03-08T11:26:56Z</time>
      </trkpt>
      <trkpt lat="48.71968" lon="7.31446">
        <ele>218</ele>
        <time>2014-03-08T11:26:58Z</time>
      </trkpt>
      <trkpt lat="48.7197" lon="7.3145">
        <ele>220</ele>
        <time>2014-03-08T11:28:27Z</time>
      </trkpt>
      <trkpt lat="48.71993" lon="7.31538">
        <ele>217</ele>
        <time>2014-03-08T11:28:51Z</time>
      </trkpt>
      <trkpt lat="48.71994" lon="7.3154">
        <ele>217</ele>
        <time>2014-03-08T11:28:54Z</time>
      </trkpt>
      <trkpt lat="48.71995" lon="7.31543">
        <ele>220</ele>
        <time>2014-03-08T11:29:58Z</time>
      </trkpt>
      <trkpt lat="48.71994" lon="7.3155">
        <ele>222</ele>
        <time>2014-03-08T11:30:03Z</time>
      </trkpt>
      <trkpt lat="48.71994" lon="7.31623">
        <ele>220</ele>
        <time>2014-03-08T11:30:34Z</time>
      </trkpt>
      <trkpt lat="48.71994" lon="7.31627">
        <ele>225</ele>
        <time>2014-03-08T11:30:36Z</time>
      </trkpt>
      <trkpt lat="48.71994" lon="7.31629">
        <ele>227</ele>
        <time>2014-03-08T11:30:38Z</time>
      </trkpt>
      <trkpt lat="48.71994" lon="7.31665">
        <ele>229</ele>
        <time>2014-03-08T11:31:01Z</time>
      </trkpt>
      <trkpt lat="48.71994" lon="7.31686">
        <ele>228</ele>
        <time>2014-03-08T11:31:13Z</time>
      </trkpt>
      <trkpt lat="48.71995" lon="7.31692">
        <ele>230</ele>
        <time>2014-03-08T11:31:17Z</time>
      </trkpt>
      <trkpt lat="48.71995" lon="7.31702">
        <ele>231</ele>
        <time>2014-03-08T11:31:22Z</time>
      </trkpt>
      <trkpt lat="48.71995" lon="7.31721">
        <ele>232</ele>
        <time>2014-03-08T11:31:32Z</time>
      </trkpt>
      <trkpt lat="48.71995" lon="7.3173">
        <ele>235</ele>
        <time>2014-03-08T11:31:38Z</time>
      </trkpt>
      <trkpt lat="48.71995" lon="7.31736">
        <ele>238</ele>
        <time>2014-03-08T11:31:42Z</time>
      </trkpt>
      <trkpt lat="48.71994" lon="7.31749">
        <ele>239</ele>
        <time>2014-03-08T11:31:52Z</time>
      </trkpt>
      <trkpt lat="48.71991" lon="7.31785">
        <ele>246</ele>
        <time>2014-03-08T11:32:13Z</time>
      </trkpt>
      <trkpt lat="48.71988" lon="7.31792">
        <ele>248</ele>
        <time>2014-03-08T11:32:24Z</time>
      </trkpt>
      <trkpt lat="48.71988" lon="7.31797">
        <ele>250</ele>
        <time>2014-03-08T11:32:30Z</time>
      </trkpt>
      <trkpt lat="48.71987" lon="7.318">
        <ele>249</ele>
        <time>2014-03-08T11:32:33Z</time>
      </trkpt>
      <trkpt lat="48.71987" lon="7.31802">
        <ele>250</ele>
        <time>2014-03-08T11:32:37Z</time>
      </trkpt>
      <trkpt lat="48.71986" lon="7.31804">
        <ele>251</ele>
        <time>2014-03-08T11:32:41Z</time>
      </trkpt>
      <trkpt lat="48.71986" lon="7.31809">
        <ele>250</ele>
        <time>2014-03-08T11:32:44Z</time>
      </trkpt>
      <trkpt lat="48.71985" lon="7.31813">
        <ele>251</ele>
        <time>2014-03-08T11:32:46Z</time>
      </trkpt>
      <trkpt lat="48.71984" lon="7.31816">
        <ele>251</ele>
        <time>2014-03-08T11:32:48Z</time>
      </trkpt>
      <trkpt lat="48.71983" lon="7.31819">
        <ele>253</ele>
        <time>2014-03-08T11:32:51Z</time>
      </trkpt>
      <trkpt lat="48.71981" lon="7.31824">
        <ele>252</ele>
        <time>2014-03-08T11:32:55Z</time>
      </trkpt>
      <trkpt lat="48.7198" lon="7.31827">
        <ele>253</ele>
        <time>2014-03-08T11:32:57Z</time>
      </trkpt>
      <trkpt lat="48.71978" lon="7.31839">
        <ele>253</ele>
        <time>2014-03-08T11:33:14Z</time>
      </trkpt>
      <trkpt lat="48.71969" lon="7.31842">
        <ele>260</ele>
        <time>2014-03-08T11:33:34Z</time>
      </trkpt>
      <trkpt lat="48.71967" lon="7.31843">
        <ele>259</ele>
        <time>2014-03-08T11:33:37Z</time>
      </trkpt>
      <trkpt lat="48.71964" lon="7.31846">
        <ele>258</ele>
        <time>2014-03-08T11:33:41Z</time>
      </trkpt>
      <trkpt lat="48.71961" lon="7.31847">
        <ele>258</ele>
        <time>2014-03-08T11:33:43Z</time>
      </trkpt>
      <trkpt lat="48.71959" lon="7.31847">
        <ele>258</ele>
        <time>2014-03-08T11:33:45Z</time>
      </trkpt>
      <trkpt lat="48.71954" lon="7.31854">
        <ele>262</ele>
        <time>2014-03-08T11:33:59Z</time>
      </trkpt>
      <trkpt lat="48.71952" lon="7.31859">
        <ele>267</ele>
        <time>2014-03-08T11:34:04Z</time>
      </trkpt>
      <trkpt lat="48.71953" lon="7.31862">
        <ele>266</ele>
        <time>2014-03-08T11:34:08Z</time>
      </trkpt>
      <trkpt lat="48.71953" lon="7.31867">
        <ele>269</ele>
        <time>2014-03-08T11:35:04Z</time>
      </trkpt>
      <trkpt lat="48.71951" lon="7.3187">
        <ele>267</ele>
        <time>2014-03-08T11:35:12Z</time>
      </trkpt>
      <trkpt lat="48.7195" lon="7.31872">
        <ele>266</ele>
        <time>2014-03-08T11:35:15Z</time>
      </trkpt>
      <trkpt lat="48.71947" lon="7.31873">
        <ele>266</ele>
        <time>2014-03-08T11:35:19Z</time>
      </trkpt>
      <trkpt lat="48.7194" lon="7.31873">
        <ele>267</ele>
        <time>2014-03-08T11:35:25Z</time>
      </trkpt>
      <trkpt lat="48.71934" lon="7.31873">
        <ele>269</ele>
        <time>2014-03-08T11:35:34Z</time>
      </trkpt>
      <trkpt lat="48.71933" lon="7.31874">
        <ele>268</ele>
        <time>2014-03-08T11:35:36Z</time>
      </trkpt>
      <trkpt lat="48.71931" lon="7.31874">
        <ele>268</ele>
        <time>2014-03-08T11:35:39Z</time>
      </trkpt>
      <trkpt lat="48.71919" lon="7.319">
        <ele>268</ele>
        <time>2014-03-08T11:36:03Z</time>
      </trkpt>
      <trkpt lat="48.71918" lon="7.31903">
        <ele>270</ele>
        <time>2014-03-08T11:36:05Z</time>
      </trkpt>
      <trkpt lat="48.71912" lon="7.31919">
        <ele>274</ele>
        <time>2014-03-08T11:36:19Z</time>
      </trkpt>
      <trkpt lat="48.71911" lon="7.31923">
        <ele>277</ele>
        <time>2014-03-08T11:36:22Z</time>
      </trkpt>
      <trkpt lat="48.71908" lon="7.31934">
        <ele>281</ele>
        <time>2014-03-08T11:36:30Z</time>
      </trkpt>
      <trkpt lat="48.71904" lon="7.31938">
        <ele>278</ele>
        <time>2014-03-08T11:36:36Z</time>
      </trkpt>
      <trkpt lat="48.71903" lon="7.31937">
        <ele>279</ele>
        <time>2014-03-08T11:36:39Z</time>
      </trkpt>
      <trkpt lat="48.71895" lon="7.31933">
        <ele>278</ele>
        <time>2014-03-08T11:36:51Z</time>
      </trkpt>
      <trkpt lat="48.71894" lon="7.31933">
        <ele>278</ele>
        <time>2014-03-08T11:36:53Z</time>
      </trkpt>
      <trkpt lat="48.7189" lon="7.31933">
        <ele>280</ele>
        <time>2014-03-08T11:37:05Z</time>
      </trkpt>
      <trkpt lat="48.71889" lon="7.31932">
        <ele>280</ele>
        <time>2014-03-08T11:37:08Z</time>
      </trkpt>
      <trkpt lat="48.71887" lon="7.3193">
        <ele>283</ele>
        <time>2014-03-08T11:37:13Z</time>
      </trkpt>
      <trkpt lat="48.71884" lon="7.3193">
        <ele>284</ele>
        <time>2014-03-08T11:37:17Z</time>
      </trkpt>
      <trkpt lat="48.71875" lon="7.31943">
        <ele>289</ele>
        <time>2014-03-08T11:37:32Z</time>
      </trkpt>
      <trkpt lat="48.71874" lon="7.31948">
        <ele>288</ele>
        <time>2014-03-08T11:37:36Z</time>
      </trkpt>
      <trkpt lat="48.71873" lon="7.31956">
        <ele>290</ele>
        <time>2014-03-08T11:37:42Z</time>
      </trkpt>
      <trkpt lat="48.71869" lon="7.31965">
        <ele>292</ele>
        <time>2014-03-08T11:37:58Z</time>
      </trkpt>
      <trkpt lat="48.71866" lon="7.31966">
        <ele>292</ele>
        <time>2014-03-08T11:38:05Z</time>
      </trkpt>
      <trkpt lat="48.71865" lon="7.31965">
        <ele>291</ele>
        <time>2014-03-08T11:38:07Z</time>
      </trkpt>
      <trkpt lat="48.71863" lon="7.31965">
        <ele>290</ele>
        <time>2014-03-08T11:38:09Z</time>
      </trkpt>
      <trkpt lat="48.71862" lon="7.31965">
        <ele>290</ele>
        <time>2014-03-08T11:38:11Z</time>
      </trkpt>
      <trkpt lat="48.71853" lon="7.31965">
        <ele>291</ele>
        <time>2014-03-08T11:38:19Z</time>
      </trkpt>
      <trkpt lat="48.71845" lon="7.3196">
        <ele>293</ele>
        <time>2014-03-08T11:38:29Z</time>
      </trkpt>
      <trkpt lat="48.71823" lon="7.31951">
        <ele>299</ele>
        <time>2014-03-08T11:38:57Z</time>
      </trkpt>
      <trkpt lat="48.71821" lon="7.31952">
        <ele>300</ele>
        <time>2014-03-08T11:38:59Z</time>
      </trkpt>
      <trkpt lat="48.7182" lon="7.31954">
        <ele>300</ele>
        <time>2014-03-08T11:39:01Z</time>
      </trkpt>
      <trkpt lat="48.71814" lon="7.3197">
        <ele>299</ele>
        <time>2014-03-08T11:39:43Z</time>
      </trkpt>
      <trkpt lat="48.71812" lon="7.31972">
        <ele>301</ele>
        <time>2014-03-08T11:39:45Z</time>
      </trkpt>
      <trkpt lat="48.718" lon="7.31987">
        <ele>301</ele>
        <time>2014-03-08T11:39:58Z</time>
      </trkpt>
      <trkpt lat="48.71798" lon="7.31987">
        <ele>304</ele>
        <time>2014-03-08T11:40:00Z</time>
      </trkpt>
      <trkpt lat="48.71793" lon="7.31983">
        <ele>305</ele>
        <time>2014-03-08T11:40:09Z</time>
      </trkpt>
      <trkpt lat="48.71792" lon="7.31981">
        <ele>307</ele>
        <time>2014-03-08T11:40:15Z</time>
      </trkpt>
      <trkpt lat="48.7179" lon="7.3198">
        <ele>309</ele>
        <time>2014-03-08T11:40:18Z</time>
      </trkpt>
      <trkpt lat="48.71781" lon="7.32">
        <ele>307</ele>
        <time>2014-03-08T11:40:40Z</time>
      </trkpt>
      <trkpt lat="48.7178" lon="7.32003">
        <ele>307</ele>
        <time>2014-03-08T11:40:42Z</time>
      </trkpt>
      <trkpt lat="48.71776" lon="7.32007">
        <ele>306</ele>
        <time>2014-03-08T11:40:46Z</time>
      </trkpt>
      <trkpt lat="48.71774" lon="7.32008">
        <ele>307</ele>
        <time>2014-03-08T11:40:48Z</time>
      </trkpt>
      <trkpt lat="48.71773" lon="7.32009">
        <ele>307</ele>
        <time>2014-03-08T11:40:50Z</time>
      </trkpt>
      <trkpt lat="48.71771" lon="7.32009">
        <ele>307</ele>
        <time>2014-03-08T11:40:53Z</time>
      </trkpt>
      <trkpt lat="48.71769" lon="7.32006">
        <ele>309</ele>
        <time>2014-03-08T11:40:57Z</time>
      </trkpt>
      <trkpt lat="48.71765" lon="7.32003">
        <ele>309</ele>
        <time>2014-03-08T11:41:01Z</time>
      </trkpt>
      <trkpt lat="48.71764" lon="7.32001">
        <ele>311</ele>
        <time>2014-03-08T11:41:03Z</time>
      </trkpt>
      <trkpt lat="48.71761" lon="7.31996">
        <ele>311</ele>
        <time>2014-03-08T11:41:06Z</time>
      </trkpt>
      <trkpt lat="48.71759" lon="7.31994">
        <ele>310</ele>
        <time>2014-03-08T11:41:08Z</time>
      </trkpt>
      <trkpt lat="48.71757" lon="7.31994">
        <ele>311</ele>
        <time>2014-03-08T11:41:10Z</time>
      </trkpt>
      <trkpt lat="48.71754" lon="7.31995">
        <ele>312</ele>
        <time>2014-03-08T11:41:12Z</time>
      </trkpt>
      <trkpt lat="48.71753" lon="7.32">
        <ele>309</ele>
        <time>2014-03-08T11:41:16Z</time>
      </trkpt>
      <trkpt lat="48.71752" lon="7.32009">
        <ele>309</ele>
        <time>2014-03-08T11:41:23Z</time>
      </trkpt>
      <trkpt lat="48.7175" lon="7.32012">
        <ele>313</ele>
        <time>2014-03-08T11:41:26Z</time>
      </trkpt>
      <trkpt lat="48.71748" lon="7.32013">
        <ele>312</ele>
        <time>2014-03-08T11:41:29Z</time>
      </trkpt>
      <trkpt lat="48.71746" lon="7.32013">
        <ele>313</ele>
        <time>2014-03-08T11:41:32Z</time>
      </trkpt>
      <trkpt lat="48.71744" lon="7.32014">
        <ele>313</ele>
        <time>2014-03-08T11:41:35Z</time>
      </trkpt>
      <trkpt lat="48.71731" lon="7.32052">
        <ele>316</ele>
        <time>2014-03-08T11:42:05Z</time>
      </trkpt>
      <trkpt lat="48.71728" lon="7.32055">
        <ele>316</ele>
        <time>2014-03-08T11:42:09Z</time>
      </trkpt>
      <trkpt lat="48.71726" lon="7.32055">
        <ele>317</ele>
        <time>2014-03-08T11:42:11Z</time>
      </trkpt>
      <trkpt lat="48.71725" lon="7.32056">
        <ele>317</ele>
        <time>2014-03-08T11:42:15Z</time>
      </trkpt>
      <trkpt lat="48.71723" lon="7.32055">
        <ele>319</ele>
        <time>2014-03-08T11:42:19Z</time>
      </trkpt>
      <trkpt lat="48.7171" lon="7.32031">
        <ele>325</ele>
        <time>2014-03-08T11:42:46Z</time>
      </trkpt>
      <trkpt lat="48.71709" lon="7.32028">
        <ele>327</ele>
        <time>2014-03-08T11:42:49Z</time>
      </trkpt>
      <trkpt lat="48.71706" lon="7.32027">
        <ele>329</ele>
        <time>2014-03-08T11:42:53Z</time>
      </trkpt>
      <trkpt lat="48.71702" lon="7.32031">
        <ele>328</ele>
        <time>2014-03-08T11:43:00Z</time>
      </trkpt>
      <trkpt lat="48.717" lon="7.32032">
        <ele>328</ele>
        <time>2014-03-08T11:43:02Z</time>
      </trkpt>
      <trkpt lat="48.7144" lon="7.32056">
        <ele>395</ele>
        <time>2014-03-08T11:54:54Z</time>
      </trkpt>
      <trkpt lat="48.71442" lon="7.3205">
        <ele>395</ele>
        <time>2014-03-08T11:58:53Z</time>
      </trkpt>
      <trkpt lat="48.71444" lon="7.32048">
        <ele>394</ele>
        <time>2014-03-08T11:59:03Z</time>
      </trkpt>
      <trkpt lat="48.71445" lon="7.32046">
        <ele>392</ele>
        <time>2014-03-08T11:59:08Z</time>
      </trkpt>
      <trkpt lat="48.7149" lon="7.32055">
        <ele>384</ele>
        <time>2014-03-08T11:59:28Z</time>
      </trkpt>
      <trkpt lat="48.71491" lon="7.32057">
        <ele>384</ele>
        <time>2014-03-08T11:59:30Z</time>
      </trkpt>
      <trkpt lat="48.71491" lon="7.3206">
        <ele>386</ele>
        <time>2014-03-08T11:59:32Z</time>
      </trkpt>
      <trkpt lat="48.71485" lon="7.32078">
        <ele>383</ele>
        <time>2014-03-08T11:59:38Z</time>
      </trkpt>
      <trkpt lat="48.71401" lon="7.32131">
        <ele>375</ele>
        <time>2014-03-08T12:00:08Z</time>
      </trkpt>
      <trkpt lat="48.71292" lon="7.32301">
        <ele>374</ele>
        <time>2014-03-08T12:00:38Z</time>
      </trkpt>
      <trkpt lat="48.71282" lon="7.32351">
        <ele>373</ele>
        <time>2014-03-08T12:00:46Z</time>
      </trkpt>
      <trkpt lat="48.71282" lon="7.3236">
        <ele>378</ele>
        <time>2014-03-08T12:00:48Z</time>
      </trkpt>
      <trkpt lat="48.71279" lon="7.32364">
        <ele>377</ele>
        <time>2014-03-08T12:00:49Z</time>
      </trkpt>
      <trkpt lat="48.71279" lon="7.32371">
        <ele>377</ele>
        <time>2014-03-08T12:00:50Z</time>
      </trkpt>
      <trkpt lat="48.71278" lon="7.32381">
        <ele>379</ele>
        <time>2014-03-08T12:00:52Z</time>
      </trkpt>
      <trkpt lat="48.71255" lon="7.3244">
        <ele>381</ele>
        <time>2014-03-08T12:01:03Z</time>
      </trkpt>
      <trkpt lat="48.71234" lon="7.32468">
        <ele>384</ele>
        <time>2014-03-08T12:01:12Z</time>
      </trkpt>
      <trkpt lat="48.71234" lon="7.32475">
        <ele>385</ele>
        <time>2014-03-08T12:01:21Z</time>
      </trkpt>
      <trkpt lat="48.71233" lon="7.32477">
        <ele>387</ele>
        <time>2014-03-08T12:01:30Z</time>
      </trkpt>
      <trkpt lat="48.71231" lon="7.32481">
        <ele>387</ele>
        <time>2014-03-08T12:02:01Z</time>
      </trkpt>
      <trkpt lat="48.71154" lon="7.32556">
        <ele>382</ele>
        <time>2014-03-08T12:02:31Z</time>
      </trkpt>
      <trkpt lat="48.7114" lon="7.32576">
        <ele>385</ele>
        <time>2014-03-08T12:02:38Z</time>
      </trkpt>
      <trkpt lat="48.71134" lon="7.32584">
        <ele>389</ele>
        <time>2014-03-08T12:02:41Z</time>
      </trkpt>
      <trkpt lat="48.7113" lon="7.32592">
        <ele>393</ele>
        <time>2014-03-08T12:02:44Z</time>
      </trkpt>
      <trkpt lat="48.71111" lon="7.32612">
        <ele>393</ele>
        <time>2014-03-08T12:02:53Z</time>
      </trkpt>
      <trkpt lat="48.71105" lon="7.32619">
        <ele>396</ele>
        <time>2014-03-08T12:02:56Z</time>
      </trkpt>
      <trkpt lat="48.71087" lon="7.32644">
        <ele>397</ele>
        <time>2014-03-08T12:03:07Z</time>
      </trkpt>
      <trkpt lat="48.7108" lon="7.32656">
        <ele>400</ele>
        <time>2014-03-08T12:03:11Z</time>
      </trkpt>
      <trkpt lat="48.71079" lon="7.32659">
        <ele>402</ele>
        <time>2014-03-08T12:03:12Z</time>
      </trkpt>
      <trkpt lat="48.71073" lon="7.32678">
        <ele>403</ele>
        <time>2014-03-08T12:03:19Z</time>
      </trkpt>
      <trkpt lat="48.71074" lon="7.32694">
        <ele>405</ele>
        <time>2014-03-08T12:03:24Z</time>
      </trkpt>
      <trkpt lat="48.71106" lon="7.32764">
        <ele>393</ele>
        <time>2014-03-08T12:03:46Z</time>
      </trkpt>
      <trkpt lat="48.71142" lon="7.32832">
        <ele>387</ele>
        <time>2014-03-08T12:04:17Z</time>
      </trkpt>
      <trkpt lat="48.71151" lon="7.32851">
        <ele>389</ele>
        <time>2014-03-08T12:04:25Z</time>
      </trkpt>
      <trkpt lat="48.71158" lon="7.32871">
        <ele>390</ele>
        <time>2014-03-08T12:04:32Z</time>
      </trkpt>
      <trkpt lat="48.7116" lon="7.32879">
        <ele>393</ele>
        <time>2014-03-08T12:04:35Z</time>
      </trkpt>
      <trkpt lat="48.71165" lon="7.32891">
        <ele>396</ele>
        <time>2014-03-08T12:04:41Z</time>
      </trkpt>
      <trkpt lat="48.71166" lon="7.32894">
        <ele>398</ele>
        <time>2014-03-08T12:04:43Z</time>
      </trkpt>
      <trkpt lat="48.71167" lon="7.32897">
        <ele>400</ele>
        <time>2014-03-08T12:04:45Z</time>
      </trkpt>
      <trkpt lat="48.71169" lon="7.32901">
        <ele>402</ele>
        <time>2014-03-08T12:04:47Z</time>
      </trkpt>
      <trkpt lat="48.71181" lon="7.32933">
        <ele>406</ele>
        <time>2014-03-08T12:05:03Z</time>
      </trkpt>
      <trkpt lat="48.71183" lon="7.32941">
        <ele>410</ele>
        <time>2014-03-08T12:05:07Z</time>
      </trkpt>
      <trkpt lat="48.71186" lon="7.32943">
        <ele>411</ele>
        <time>2014-03-08T12:05:09Z</time>
      </trkpt>
      <trkpt lat="48.71187" lon="7.32948">
        <ele>409</ele>
        <time>2014-03-08T12:05:12Z</time>
      </trkpt>
      <trkpt lat="48.71191" lon="7.32957">
        <ele>414</ele>
        <time>2014-03-08T12:05:16Z</time>
      </trkpt>
      <trkpt lat="48.71223" lon="7.32988">
        <ele>414</ele>
        <time>2014-03-08T12:05:33Z</time>
      </trkpt>
      <trkpt lat="48.71235" lon="7.32995">
        <ele>416</ele>
        <time>2014-03-08T12:05:39Z</time>
      </trkpt>
      <trkpt lat="48.71256" lon="7.3301">
        <ele>416</ele>
        <time>2014-03-08T12:05:52Z</time>
      </trkpt>
      <trkpt lat="48.71259" lon="7.33011">
        <ele>418</ele>
        <time>2014-03-08T12:05:54Z</time>
      </trkpt>
      <trkpt lat="48.71305" lon="7.3303">
        <ele>419</ele>
        <time>2014-03-08T12:06:16Z</time>
      </trkpt>
      <trkpt lat="48.71346" lon="7.33028">
        <ele>419</ele>
        <time>2014-03-08T12:06:36Z</time>
      </trkpt>
      <trkpt lat="48.71415" lon="7.33034">
        <ele>418</ele>
        <time>2014-03-08T12:07:06Z</time>
      </trkpt>
      <trkpt lat="48.7149" lon="7.33051">
        <ele>419</ele>
        <time>2014-03-08T12:07:37Z</time>
      </trkpt>
      <trkpt lat="48.715" lon="7.33055">
        <ele>420</ele>
        <time>2014-03-08T12:07:41Z</time>
      </trkpt>
      <trkpt lat="48.71524" lon="7.33067">
        <ele>424</ele>
        <time>2014-03-08T12:07:54Z</time>
      </trkpt>
      <trkpt lat="48.71524" lon="7.33071">
        <ele>424</ele>
        <time>2014-03-08T12:07:56Z</time>
      </trkpt>
      <trkpt lat="48.71522" lon="7.33072">
        <ele>423</ele>
        <time>2014-03-08T12:07:58Z</time>
      </trkpt>
      <trkpt lat="48.71448" lon="7.33074">
        <ele>417</ele>
        <time>2014-03-08T12:08:28Z</time>
      </trkpt>
      <trkpt lat="48.7144" lon="7.33074">
        <ele>418</ele>
        <time>2014-03-08T12:08:30Z</time>
      </trkpt>
      <trkpt lat="48.7139" lon="7.33086">
        <ele>419</ele>
        <time>2014-03-08T12:08:41Z</time>
      </trkpt>
      <trkpt lat="48.71386" lon="7.33087">
        <ele>422</ele>
        <time>2014-03-08T12:08:42Z</time>
      </trkpt>
      <trkpt lat="48.71263" lon="7.33118">
        <ele>417</ele>
        <time>2014-03-08T12:09:12Z</time>
      </trkpt>
      <trkpt lat="48.71237" lon="7.33124">
        <ele>417</ele>
        <time>2014-03-08T12:09:19Z</time>
      </trkpt>
      <trkpt lat="48.71226" lon="7.33129">
        <ele>420</ele>
        <time>2014-03-08T12:09:22Z</time>
      </trkpt>
      <trkpt lat="48.71189" lon="7.33154">
        <ele>424</ele>
        <time>2014-03-08T12:09:34Z</time>
      </trkpt>
      <trkpt lat="48.71186" lon="7.33159">
        <ele>424</ele>
        <time>2014-03-08T12:09:36Z</time>
      </trkpt>
      <trkpt lat="48.71185" lon="7.33163">
        <ele>424</ele>
        <time>2014-03-08T12:09:37Z</time>
      </trkpt>
      <trkpt lat="48.71186" lon="7.33168">
        <ele>424</ele>
        <time>2014-03-08T12:09:39Z</time>
      </trkpt>
      <trkpt lat="48.71187" lon="7.33167">
        <ele>421</ele>
        <time>2014-03-08T12:09:43Z</time>
      </trkpt>
      <trkpt lat="48.71189" lon="7.33168">
        <ele>423</ele>
        <time>2014-03-08T12:09:49Z</time>
      </trkpt>
      <trkpt lat="48.71191" lon="7.33171">
        <ele>422</ele>
        <time>2014-03-08T12:10:02Z</time>
      </trkpt>
      <trkpt lat="48.71201" lon="7.33174">
        <ele>422</ele>
        <time>2014-03-08T12:10:11Z</time>
      </trkpt>
      <trkpt lat="48.71215" lon="7.33186">
        <ele>423</ele>
        <time>2014-03-08T12:10:19Z</time>
      </trkpt>
      <trkpt lat="48.71244" lon="7.33196">
        <ele>428</ele>
        <time>2014-03-08T12:10:31Z</time>
      </trkpt>
      <trkpt lat="48.71246" lon="7.33197">
        <ele>430</ele>
        <time>2014-03-08T12:10:32Z</time>
      </trkpt>
      <trkpt lat="48.71285" lon="7.33195">
        <ele>436</ele>
        <time>2014-03-08T12:10:58Z</time>
      </trkpt>
      <trkpt lat="48.71311" lon="7.332">
        <ele>445</ele>
        <time>2014-03-08T12:11:15Z</time>
      </trkpt>
      <trkpt lat="48.71324" lon="7.33204">
        <ele>445</ele>
        <time>2014-03-08T12:11:25Z</time>
      </trkpt>
      <trkpt lat="48.71353" lon="7.33219">
        <ele>449</ele>
        <time>2014-03-08T12:11:56Z</time>
      </trkpt>
      <trkpt lat="48.71369" lon="7.33235">
        <ele>450</ele>
        <time>2014-03-08T12:12:12Z</time>
      </trkpt>
      <trkpt lat="48.71404" lon="7.33253">
        <ele>450</ele>
        <time>2014-03-08T12:12:42Z</time>
      </trkpt>
      <trkpt lat="48.71406" lon="7.33254">
        <ele>450</ele>
        <time>2014-03-08T12:12:44Z</time>
      </trkpt>
      <trkpt lat="48.71409" lon="7.33255">
        <ele>452</ele>
        <time>2014-03-08T12:12:46Z</time>
      </trkpt>
      <trkpt lat="48.71411" lon="7.33255">
        <ele>454</ele>
        <time>2014-03-08T12:12:48Z</time>
      </trkpt>
      <trkpt lat="48.71418" lon="7.33255">
        <ele>456</ele>
        <time>2014-03-08T12:12:54Z</time>
      </trkpt>
      <trkpt lat="48.71445" lon="7.33251">
        <ele>462</ele>
        <time>2014-03-08T12:13:25Z</time>
      </trkpt>
      <trkpt lat="48.71447" lon="7.33249">
        <ele>462</ele>
        <time>2014-03-08T12:13:35Z</time>
      </trkpt>
      <trkpt lat="48.71448" lon="7.33247">
        <ele>462</ele>
        <time>2014-03-08T12:13:38Z</time>
      </trkpt>
      <trkpt lat="48.7146" lon="7.33239">
        <ele>463</ele>
        <time>2014-03-08T12:14:01Z</time>
      </trkpt>
      <trkpt lat="48.71456" lon="7.33238">
        <ele>464</ele>
        <time>2014-03-08T12:15:09Z</time>
      </trkpt>
      <trkpt lat="48.71453" lon="7.33238">
        <ele>463</ele>
        <time>2014-03-08T12:15:15Z</time>
      </trkpt>
      <trkpt lat="48.71449" lon="7.33228">
        <ele>460</ele>
        <time>2014-03-08T12:15:30Z</time>
      </trkpt>
      <trkpt lat="48.71448" lon="7.33222">
        <ele>466</ele>
        <time>2014-03-08T12:16:32Z</time>
      </trkpt>
      <trkpt lat="48.7145" lon="7.33223">
        <ele>463</ele>
        <time>2014-03-08T12:16:34Z</time>
      </trkpt>
      <trkpt lat="48.7145" lon="7.33226">
        <ele>466</ele>
        <time>2014-03-08T12:16:44Z</time>
      </trkpt>
      <trkpt lat="48.71454" lon="7.33231">
        <ele>463</ele>
        <time>2014-03-08T12:16:52Z</time>
      </trkpt>
      <trkpt lat="48.71455" lon="7.33234">
        <ele>463</ele>
        <time>2014-03-08T12:16:55Z</time>
      </trkpt>
      <trkpt lat="48.71452" lon="7.33238">
        <ele>463</ele>
        <time>2014-03-08T12:17:07Z</time>
      </trkpt>
      <trkpt lat="48.71453" lon="7.33242">
        <ele>464</ele>
        <time>2014-03-08T12:17:11Z</time>
      </trkpt>
      <trkpt lat="48.71452" lon="7.33244">
        <ele>465</ele>
        <time>2014-03-08T12:17:13Z</time>
      </trkpt>
      <trkpt lat="48.71455" lon="7.33244">
        <ele>464</ele>
        <time>2014-03-08T12:18:51Z</time>
      </trkpt>
      <trkpt lat="48.71461" lon="7.33246">
        <ele>468</ele>
        <time>2014-03-08T12:19:01Z</time>
      </trkpt>
      <trkpt lat="48.71461" lon="7.33244">
        <ele>466</ele>
        <time>2014-03-08T12:19:15Z</time>
      </trkpt>
      <trkpt lat="48.71488" lon="7.33231">
        <ele>462</ele>
        <time>2014-03-08T12:19:45Z</time>
      </trkpt>
      <trkpt lat="48.71528" lon="7.33232">
        <ele>463</ele>
        <time>2014-03-08T12:19:56Z</time>
      </trkpt>
      <trkpt lat="48.71534" lon="7.33231">
        <ele>464</ele>
        <time>2014-03-08T12:20:13Z</time>
      </trkpt>
      <trkpt lat="48.71536" lon="7.33224">
        <ele>459</ele>
        <time>2014-03-08T12:20:30Z</time>
      </trkpt>
      <trkpt lat="48.71536" lon="7.3322">
        <ele>456</ele>
        <time>2014-03-08T12:20:33Z</time>
      </trkpt>
      <trkpt lat="48.71534" lon="7.33215">
        <ele>455</ele>
        <time>2014-03-08T12:20:35Z</time>
      </trkpt>
      <trkpt lat="48.71535" lon="7.33214">
        <ele>455</ele>
        <time>2014-03-08T12:20:36Z</time>
      </trkpt>
      <trkpt lat="48.71549" lon="7.33223">
        <ele>451</ele>
        <time>2014-03-08T12:20:44Z</time>
      </trkpt>
      <trkpt lat="48.7162" lon="7.33225">
        <ele>448</ele>
        <time>2014-03-08T12:21:14Z</time>
      </trkpt>
      <trkpt lat="48.71697" lon="7.33243">
        <ele>445</ele>
        <time>2014-03-08T12:21:44Z</time>
      </trkpt>
      <trkpt lat="48.71737" lon="7.33244">
        <ele>441</ele>
        <time>2014-03-08T12:22:15Z</time>
      </trkpt>
      <trkpt lat="48.71747" lon="7.33244">
        <ele>441</ele>
        <time>2014-03-08T12:22:28Z</time>
      </trkpt>
      <trkpt lat="48.71762" lon="7.33226">
        <ele>443</ele>
        <time>2014-03-08T12:23:01Z</time>
      </trkpt>
      <trkpt lat="48.71774" lon="7.33208">
        <ele>450</ele>
        <time>2014-03-08T12:23:24Z</time>
      </trkpt>
      <trkpt lat="48.71785" lon="7.33195">
        <ele>454</ele>
        <time>2014-03-08T12:23:55Z</time>
      </trkpt>
      <trkpt lat="48.71791" lon="7.33192">
        <ele>457</ele>
        <time>2014-03-08T12:24:03Z</time>
      </trkpt>
      <trkpt lat="48.71802" lon="7.33185">
        <ele>462</ele>
        <time>2014-03-08T12:24:16Z</time>
      </trkpt>
      <trkpt lat="48.71811" lon="7.33187">
        <ele>465</ele>
        <time>2014-03-08T12:24:30Z</time>
      </trkpt>
      <trkpt lat="48.71814" lon="7.33192">
        <ele>465</ele>
        <time>2014-03-08T12:24:36Z</time>
      </trkpt>
      <trkpt lat="48.71816" lon="7.33195">
        <ele>463</ele>
        <time>2014-03-08T12:24:44Z</time>
      </trkpt>
      <trkpt lat="48.71815" lon="7.33214">
        <ele>465</ele>
        <time>2014-03-08T12:24:54Z</time>
      </trkpt>
      <trkpt lat="48.71825" lon="7.33251">
        <ele>464</ele>
        <time>2014-03-08T12:25:11Z</time>
      </trkpt>
      <trkpt lat="48.71848" lon="7.33281">
        <ele>465</ele>
        <time>2014-03-08T12:25:34Z</time>
      </trkpt>
      <trkpt lat="48.71857" lon="7.33291">
        <ele>467</ele>
        <time>2014-03-08T12:25:44Z</time>
      </trkpt>
      <trkpt lat="48.71856" lon="7.33294">
        <ele>469</ele>
        <time>2014-03-08T12:26:05Z</time>
      </trkpt>
      <trkpt lat="48.71857" lon="7.33296">
        <ele>471</ele>
        <time>2014-03-08T12:26:50Z</time>
      </trkpt>
      <trkpt lat="48.71861" lon="7.33298">
        <ele>471</ele>
        <time>2014-03-08T12:26:56Z</time>
      </trkpt>
      <trkpt lat="48.71861" lon="7.33296">
        <ele>470</ele>
        <time>2014-03-08T12:27:03Z</time>
      </trkpt>
      <trkpt lat="48.71872" lon="7.33174">
        <ele>474</ele>
        <time>2014-03-08T12:31:11Z</time>
      </trkpt>
      <trkpt lat="48.71874" lon="7.33177">
        <ele>480</ele>
        <time>2014-03-08T12:31:16Z</time>
      </trkpt>
      <trkpt lat="48.71878" lon="7.33183">
        <ele>481</ele>
        <time>2014-03-08T12:31:23Z</time>
      </trkpt>
      <trkpt lat="48.71878" lon="7.33189">
        <ele>481</ele>
        <time>2014-03-08T12:31:29Z</time>
      </trkpt>
      <trkpt lat="48.71876" lon="7.33188">
        <ele>477</ele>
        <time>2014-03-08T12:31:38Z</time>
      </trkpt>
      <trkpt lat="48.71874" lon="7.3319">
        <ele>476</ele>
        <time>2014-03-08T12:31:45Z</time>
      </trkpt>
      <trkpt lat="48.71872" lon="7.33194">
        <ele>477</ele>
        <time>2014-03-08T12:31:47Z</time>
      </trkpt>
      <trkpt lat="48.71869" lon="7.33205">
        <ele>477</ele>
        <time>2014-03-08T12:31:57Z</time>
      </trkpt>
      <trkpt lat="48.71866" lon="7.33231">
        <ele>474</ele>
        <time>2014-03-08T12:32:13Z</time>
      </trkpt>
      <trkpt lat="48.71866" lon="7.33235">
        <ele>474</ele>
        <time>2014-03-08T12:32:15Z</time>
      </trkpt>
      <trkpt lat="48.71868" lon="7.33239">
        <ele>475</ele>
        <time>2014-03-08T12:32:19Z</time>
      </trkpt>
      <trkpt lat="48.71874" lon="7.33228">
        <ele>477</ele>
        <time>2014-03-08T12:32:29Z</time>
      </trkpt>
      <trkpt lat="48.71875" lon="7.33226">
        <ele>476</ele>
        <time>2014-03-08T12:33:06Z</time>
      </trkpt>
      <trkpt lat="48.71874" lon="7.33224">
        <ele>477</ele>
        <time>2014-03-08T12:33:09Z</time>
      </trkpt>
      <trkpt lat="48.71872" lon="7.33224">
        <ele>479</ele>
        <time>2014-03-08T12:33:12Z</time>
      </trkpt>
      <trkpt lat="48.7187" lon="7.33223">
        <ele>479</ele>
        <time>2014-03-08T12:33:16Z</time>
      </trkpt>
      <trkpt lat="48.71868" lon="7.33226">
        <ele>477</ele>
        <time>2014-03-08T12:33:35Z</time>
      </trkpt>
      <trkpt lat="48.71867" lon="7.33248">
        <ele>477</ele>
        <time>2014-03-08T12:33:49Z</time>
      </trkpt>
      <trkpt lat="48.71872" lon="7.33245">
        <ele>476</ele>
        <time>2014-03-08T12:33:56Z</time>
      </trkpt>
      <trkpt lat="48.71882" lon="7.33248">
        <ele>474</ele>
        <time>2014-03-08T12:34:06Z</time>
      </trkpt>
      <trkpt lat="48.71884" lon="7.33254">
        <ele>472</ele>
        <time>2014-03-08T12:34:10Z</time>
      </trkpt>
      <trkpt lat="48.71884" lon="7.33262">
        <ele>473</ele>
        <time>2014-03-08T12:34:14Z</time>
      </trkpt>
      <trkpt lat="48.71883" lon="7.33264">
        <ele>476</ele>
        <time>2014-03-08T12:34:33Z</time>
      </trkpt>
      <trkpt lat="48.7188" lon="7.33269">
        <ele>476</ele>
        <time>2014-03-08T12:34:37Z</time>
      </trkpt>
      <trkpt lat="48.71875" lon="7.3327">
        <ele>477</ele>
        <time>2014-03-08T12:34:41Z</time>
      </trkpt>
      <trkpt lat="48.71876" lon="7.33274">
        <ele>476</ele>
        <time>2014-03-08T12:34:51Z</time>
      </trkpt>
      <trkpt lat="48.71875" lon="7.33276">
        <ele>476</ele>
        <time>2014-03-08T12:34:53Z</time>
      </trkpt>
      <trkpt lat="48.71874" lon="7.33279">
        <ele>475</ele>
        <time>2014-03-08T12:34:57Z</time>
      </trkpt>
      <trkpt lat="48.71864" lon="7.33289">
        <ele>471</ele>
        <time>2014-03-08T12:35:10Z</time>
      </trkpt>
      <trkpt lat="48.71863" lon="7.33289">
        <ele>520</ele>
        <time>2014-03-08T12:48:38Z</time>
      </trkpt>
      <trkpt lat="48.71864" lon="7.33289">
        <ele>472</ele>
        <time>2014-03-08T12:48:39Z</time>
      </trkpt>
      <trkpt lat="48.71867" lon="7.33293">
        <ele>471</ele>
        <time>2014-03-08T12:49:22Z</time>
      </trkpt>
      <trkpt lat="48.71871" lon="7.33296">
        <ele>471</ele>
        <time>2014-03-08T12:49:25Z</time>
      </trkpt>
      <trkpt lat="48.71878" lon="7.33293">
        <ele>469</ele>
        <time>2014-03-08T12:49:31Z</time>
      </trkpt>
      <trkpt lat="48.71938" lon="7.33369">
        <ele>460</ele>
        <time>2014-03-08T12:50:01Z</time>
      </trkpt>
      <trkpt lat="48.71997" lon="7.33439">
        <ele>445</ele>
        <time>2014-03-08T12:50:32Z</time>
      </trkpt>
      <trkpt lat="48.72058" lon="7.33504">
        <ele>435</ele>
        <time>2014-03-08T12:50:56Z</time>
      </trkpt>
      <trkpt lat="48.72133" lon="7.33566">
        <ele>424</ele>
        <time>2014-03-08T12:51:26Z</time>
      </trkpt>
      <trkpt lat="48.72139" lon="7.3357">
        <ele>420</ele>
        <time>2014-03-08T12:51:29Z</time>
      </trkpt>
      <trkpt lat="48.7214" lon="7.33573">
        <ele>421</ele>
        <time>2014-03-08T12:51:31Z</time>
      </trkpt>
      <trkpt lat="48.7214" lon="7.3358">
        <ele>422</ele>
        <time>2014-03-08T12:51:35Z</time>
      </trkpt>
      <trkpt lat="48.72142" lon="7.33583">
        <ele>422</ele>
        <time>2014-03-08T12:51:37Z</time>
      </trkpt>
      <trkpt lat="48.72146" lon="7.33581">
        <ele>423</ele>
        <time>2014-03-08T12:51:40Z</time>
      </trkpt>
      <trkpt lat="48.7215" lon="7.3358">
        <ele>424</ele>
        <time>2014-03-08T12:51:46Z</time>
      </trkpt>
      <trkpt lat="48.7217" lon="7.33592">
        <ele>425</ele>
        <time>2014-03-08T12:51:56Z</time>
      </trkpt>
      <trkpt lat="48.72207" lon="7.33609">
        <ele>425</ele>
        <time>2014-03-08T12:52:13Z</time>
      </trkpt>
      <trkpt lat="48.72218" lon="7.33612">
        <ele>429</ele>
        <time>2014-03-08T12:52:19Z</time>
      </trkpt>
      <trkpt lat="48.7222" lon="7.33612">
        <ele>431</ele>
        <time>2014-03-08T12:52:20Z</time>
      </trkpt>
      <trkpt lat="48.72235" lon="7.33618">
        <ele>433</ele>
        <time>2014-03-08T12:52:31Z</time>
      </trkpt>
      <trkpt lat="48.72237" lon="7.3362">
        <ele>435</ele>
        <time>2014-03-08T12:52:33Z</time>
      </trkpt>
      <trkpt lat="48.72262" lon="7.33644">
        <ele>433</ele>
        <time>2014-03-08T12:53:04Z</time>
      </trkpt>
      <trkpt lat="48.72265" lon="7.33647">
        <ele>436</ele>
        <time>2014-03-08T12:53:15Z</time>
      </trkpt>
      <trkpt lat="48.72271" lon="7.33649">
        <ele>432</ele>
        <time>2014-03-08T12:53:43Z</time>
      </trkpt>
      <trkpt lat="48.7227" lon="7.33646">
        <ele>430</ele>
        <time>2014-03-08T12:54:19Z</time>
      </trkpt>
      <trkpt lat="48.72267" lon="7.33645">
        <ele>429</ele>
        <time>2014-03-08T12:54:30Z</time>
      </trkpt>
      <trkpt lat="48.72267" lon="7.33647">
        <ele>429</ele>
        <time>2014-03-08T12:54:31Z</time>
      </trkpt>
      <trkpt lat="48.72269" lon="7.3365">
        <ele>430</ele>
        <time>2014-03-08T12:54:33Z</time>
      </trkpt>
      <trkpt lat="48.72288" lon="7.3366">
        <ele>432</ele>
        <time>2014-03-08T12:54:41Z</time>
      </trkpt>
      <trkpt lat="48.72322" lon="7.33694">
        <ele>430</ele>
        <time>2014-03-08T12:55:11Z</time>
      </trkpt>
      <trkpt lat="48.72342" lon="7.33733">
        <ele>430</ele>
        <time>2014-03-08T12:55:22Z</time>
      </trkpt>
      <trkpt lat="48.72346" lon="7.33733">
        <ele>433</ele>
        <time>2014-03-08T12:55:45Z</time>
      </trkpt>
      <trkpt lat="48.72348" lon="7.33731">
        <ele>434</ele>
        <time>2014-03-08T12:55:48Z</time>
      </trkpt>
      <trkpt lat="48.7235" lon="7.33736">
        <ele>432</ele>
        <time>2014-03-08T12:56:53Z</time>
      </trkpt>
      <trkpt lat="48.72352" lon="7.33742">
        <ele>433</ele>
        <time>2014-03-08T12:56:57Z</time>
      </trkpt>
      <trkpt lat="48.72353" lon="7.33745">
        <ele>435</ele>
        <time>2014-03-08T12:56:58Z</time>
      </trkpt>
      <trkpt lat="48.72356" lon="7.33747">
        <ele>436</ele>
        <time>2014-03-08T12:57:00Z</time>
      </trkpt>
      <trkpt lat="48.72358" lon="7.33747">
        <ele>435</ele>
        <time>2014-03-08T12:57:01Z</time>
      </trkpt>
      <trkpt lat="48.72359" lon="7.33747">
        <ele>437</ele>
        <time>2014-03-08T12:57:09Z</time>
      </trkpt>
      <trkpt lat="48.7236" lon="7.33749">
        <ele>436</ele>
        <time>2014-03-08T12:57:23Z</time>
      </trkpt>
      <trkpt lat="48.72364" lon="7.33752">
        <ele>437</ele>
        <time>2014-03-08T12:57:26Z</time>
      </trkpt>
      <trkpt lat="48.72365" lon="7.33754">
        <ele>438</ele>
        <time>2014-03-08T12:57:27Z</time>
      </trkpt>
      <trkpt lat="48.72371" lon="7.33762">
        <ele>441</ele>
        <time>2014-03-08T12:57:30Z</time>
      </trkpt>
      <trkpt lat="48.72411" lon="7.33798">
        <ele>431</ele>
        <time>2014-03-08T12:58:00Z</time>
      </trkpt>
      <trkpt lat="48.7241" lon="7.33794">
        <ele>432</ele>
        <time>2014-03-08T12:58:17Z</time>
      </trkpt>
      <trkpt lat="48.72414" lon="7.33793">
        <ele>434</ele>
        <time>2014-03-08T12:58:22Z</time>
      </trkpt>
      <trkpt lat="48.72416" lon="7.33796">
        <ele>435</ele>
        <time>2014-03-08T12:58:24Z</time>
      </trkpt>
      <trkpt lat="48.72437" lon="7.33835">
        <ele>436</ele>
        <time>2014-03-08T12:58:42Z</time>
      </trkpt>
      <trkpt lat="48.72444" lon="7.33837">
        <ele>440</ele>
        <time>2014-03-08T12:59:12Z</time>
      </trkpt>
      <trkpt lat="48.72457" lon="7.33837">
        <ele>438</ele>
        <time>2014-03-08T12:59:32Z</time>
      </trkpt>
      <trkpt lat="48.72472" lon="7.33852">
        <ele>439</ele>
        <time>2014-03-08T12:59:51Z</time>
      </trkpt>
      <trkpt lat="48.72487" lon="7.33851">
        <ele>441</ele>
        <time>2014-03-08T13:00:13Z</time>
      </trkpt>
      <trkpt lat="48.72488" lon="7.33846">
        <ele>442</ele>
        <time>2014-03-08T13:00:17Z</time>
      </trkpt>
      <trkpt lat="48.72486" lon="7.33845">
        <ele>442</ele>
        <time>2014-03-08T13:00:19Z</time>
      </trkpt>
      <trkpt lat="48.72485" lon="7.33844">
        <ele>443</ele>
        <time>2014-03-08T13:00:21Z</time>
      </trkpt>
      <trkpt lat="48.72485" lon="7.33842">
        <ele>441</ele>
        <time>2014-03-08T13:00:28Z</time>
      </trkpt>
      <trkpt lat="48.72483" lon="7.33841">
        <ele>442</ele>
        <time>2014-03-08T13:00:45Z</time>
      </trkpt>
      <trkpt lat="48.72478" lon="7.3384">
        <ele>443</ele>
        <time>2014-03-08T13:00:49Z</time>
      </trkpt>
      <trkpt lat="48.72467" lon="7.33832">
        <ele>446</ele>
        <time>2014-03-08T13:01:01Z</time>
      </trkpt>
      <trkpt lat="48.72466" lon="7.33829">
        <ele>448</ele>
        <time>2014-03-08T13:01:07Z</time>
      </trkpt>
      <trkpt lat="48.72465" lon="7.33825">
        <ele>448</ele>
        <time>2014-03-08T13:01:09Z</time>
      </trkpt>
      <trkpt lat="48.72466" lon="7.33822">
        <ele>449</ele>
        <time>2014-03-08T13:01:53Z</time>
      </trkpt>
      <trkpt lat="48.72461" lon="7.33821">
        <ele>448</ele>
        <time>2014-03-08T13:02:16Z</time>
      </trkpt>
      <trkpt lat="48.72459" lon="7.33821">
        <ele>451</ele>
        <time>2014-03-08T13:02:28Z</time>
      </trkpt>
      <trkpt lat="48.72457" lon="7.3382">
        <ele>457</ele>
        <time>2014-03-08T13:02:55Z</time>
      </trkpt>
      <trkpt lat="48.72455" lon="7.33818">
        <ele>455</ele>
        <time>2014-03-08T13:03:02Z</time>
      </trkpt>
      <trkpt lat="48.72452" lon="7.33817">
        <ele>454</ele>
        <time>2014-03-08T13:03:29Z</time>
      </trkpt>
      <trkpt lat="48.72448" lon="7.3381">
        <ele>454</ele>
        <time>2014-03-08T13:03:35Z</time>
      </trkpt>
      <trkpt lat="48.72444" lon="7.33796">
        <ele>455</ele>
        <time>2014-03-08T13:03:45Z</time>
      </trkpt>
      <trkpt lat="48.72443" lon="7.33795">
        <ele>455</ele>
        <time>2014-03-08T13:03:46Z</time>
      </trkpt>
      <trkpt lat="48.72438" lon="7.33793">
        <ele>454</ele>
        <time>2014-03-08T13:03:54Z</time>
      </trkpt>
      <trkpt lat="48.72436" lon="7.33791">
        <ele>455</ele>
        <time>2014-03-08T13:03:56Z</time>
      </trkpt>
      <trkpt lat="48.72435" lon="7.33788">
        <ele>456</ele>
        <time>2014-03-08T13:03:58Z</time>
      </trkpt>
      <trkpt lat="48.72433" lon="7.33785">
        <ele>455</ele>
        <time>2014-03-08T13:04:00Z</time>
      </trkpt>
      <trkpt lat="48.72432" lon="7.33785">
        <ele>456</ele>
        <time>2014-03-08T13:04:01Z</time>
      </trkpt>
      <trkpt lat="48.72411" lon="7.33766">
        <ele>459</ele>
        <time>2014-03-08T13:04:24Z</time>
      </trkpt>
      <trkpt lat="48.72409" lon="7.33765">
        <ele>457</ele>
        <time>2014-03-08T13:04:33Z</time>
      </trkpt>
      <trkpt lat="48.72408" lon="7.33763">
        <ele>458</ele>
        <time>2014-03-08T13:04:35Z</time>
      </trkpt>
      <trkpt lat="48.72407" lon="7.33761">
        <ele>458</ele>
        <time>2014-03-08T13:04:38Z</time>
      </trkpt>
      <trkpt lat="48.72394" lon="7.33749">
        <ele>457</ele>
        <time>2014-03-08T13:04:53Z</time>
      </trkpt>
      <trkpt lat="48.72394" lon="7.33747">
        <ele>458</ele>
        <time>2014-03-08T13:05:23Z</time>
      </trkpt>
      <trkpt lat="48.72388" lon="7.33736">
        <ele>457</ele>
        <time>2014-03-08T13:05:33Z</time>
      </trkpt>
      <trkpt lat="48.72385" lon="7.33737">
        <ele>458</ele>
        <time>2014-03-08T13:05:53Z</time>
      </trkpt>
      <trkpt lat="48.72383" lon="7.33739">
        <ele>458</ele>
        <time>2014-03-08T13:05:57Z</time>
      </trkpt>
      <trkpt lat="48.72383" lon="7.33741">
        <ele>459</ele>
        <time>2014-03-08T13:06:17Z</time>
      </trkpt>
      <trkpt lat="48.72385" lon="7.33744">
        <ele>461</ele>
        <time>2014-03-08T13:06:24Z</time>
      </trkpt>
      <trkpt lat="48.72396" lon="7.33751">
        <ele>464</ele>
        <time>2014-03-08T13:06:53Z</time>
      </trkpt>
      <trkpt lat="48.72396" lon="7.33749">
        <ele>463</ele>
        <time>2014-03-08T13:07:00Z</time>
      </trkpt>
      <trkpt lat="48.72397" lon="7.33748">
        <ele>463</ele>
        <time>2014-03-08T13:07:03Z</time>
      </trkpt>
      <trkpt lat="48.72412" lon="7.33759">
        <ele>463</ele>
        <time>2014-03-08T13:07:34Z</time>
      </trkpt>
      <trkpt lat="48.72431" lon="7.33776">
        <ele>464</ele>
        <time>2014-03-08T13:08:04Z</time>
      </trkpt>
      <trkpt lat="48.72434" lon="7.33779">
        <ele>464</ele>
        <time>2014-03-08T13:08:08Z</time>
      </trkpt>
      <trkpt lat="48.72436" lon="7.33784">
        <ele>464</ele>
        <time>2014-03-08T13:08:14Z</time>
      </trkpt>
      <trkpt lat="48.72441" lon="7.33787">
        <ele>463</ele>
        <time>2014-03-08T13:08:21Z</time>
      </trkpt>
      <trkpt lat="48.72453" lon="7.3379">
        <ele>463</ele>
        <time>2014-03-08T13:08:33Z</time>
      </trkpt>
      <trkpt lat="48.72451" lon="7.33791">
        <ele>459</ele>
        <time>2014-03-08T13:08:44Z</time>
      </trkpt>
      <trkpt lat="48.72447" lon="7.33792">
        <ele>458</ele>
        <time>2014-03-08T13:08:47Z</time>
      </trkpt>
      <trkpt lat="48.72445" lon="7.33793">
        <ele>458</ele>
        <time>2014-03-08T13:08:48Z</time>
      </trkpt>
      <trkpt lat="48.72444" lon="7.33796">
        <ele>458</ele>
        <time>2014-03-08T13:08:50Z</time>
      </trkpt>
      <trkpt lat="48.72444" lon="7.33801">
        <ele>458</ele>
        <time>2014-03-08T13:08:52Z</time>
      </trkpt>
      <trkpt lat="48.72446" lon="7.33808">
        <ele>457</ele>
        <time>2014-03-08T13:08:56Z</time>
      </trkpt>
      <trkpt lat="48.72451" lon="7.33809">
        <ele>458</ele>
        <time>2014-03-08T13:09:11Z</time>
      </trkpt>
      <trkpt lat="48.72453" lon="7.33813">
        <ele>458</ele>
        <time>2014-03-08T13:09:14Z</time>
      </trkpt>
      <trkpt lat="48.72458" lon="7.33813">
        <ele>452</ele>
        <time>2014-03-08T13:09:25Z</time>
      </trkpt>
      <trkpt lat="48.72464" lon="7.33812">
        <ele>452</ele>
        <time>2014-03-08T13:09:46Z</time>
      </trkpt>
      <trkpt lat="48.72464" lon="7.33815">
        <ele>449</ele>
        <time>2014-03-08T13:09:54Z</time>
      </trkpt>
      <trkpt lat="48.72489" lon="7.33847">
        <ele>446</ele>
        <time>2014-03-08T13:10:28Z</time>
      </trkpt>
      <trkpt lat="48.72516" lon="7.33875">
        <ele>442</ele>
        <time>2014-03-08T13:10:58Z</time>
      </trkpt>
      <trkpt lat="48.7252" lon="7.33878">
        <ele>442</ele>
        <time>2014-03-08T13:11:03Z</time>
      </trkpt>
      <trkpt lat="48.72523" lon="7.33881">
        <ele>444</ele>
        <time>2014-03-08T13:11:17Z</time>
      </trkpt>
      <trkpt lat="48.72527" lon="7.3387">
        <ele>443</ele>
        <time>2014-03-08T13:11:26Z</time>
      </trkpt>
      <trkpt lat="48.72526" lon="7.33873">
        <ele>441</ele>
        <time>2014-03-08T13:11:38Z</time>
      </trkpt>
      <trkpt lat="48.72525" lon="7.33875">
        <ele>443</ele>
        <time>2014-03-08T13:11:39Z</time>
      </trkpt>
      <trkpt lat="48.72522" lon="7.33881">
        <ele>445</ele>
        <time>2014-03-08T13:11:44Z</time>
      </trkpt>
      <trkpt lat="48.7252" lon="7.33882">
        <ele>443</ele>
        <time>2014-03-08T13:11:50Z</time>
      </trkpt>
      <trkpt lat="48.72519" lon="7.33879">
        <ele>443</ele>
        <time>2014-03-08T13:11:53Z</time>
      </trkpt>
      <trkpt lat="48.72523" lon="7.33887">
        <ele>441</ele>
        <time>2014-03-08T13:12:15Z</time>
      </trkpt>
      <trkpt lat="48.72529" lon="7.33889">
        <ele>444</ele>
        <time>2014-03-08T13:12:23Z</time>
      </trkpt>
      <trkpt lat="48.72531" lon="7.33894">
        <ele>446</ele>
        <time>2014-03-08T13:12:28Z</time>
      </trkpt>
      <trkpt lat="48.72535" lon="7.33909">
        <ele>437</ele>
        <time>2014-03-08T13:12:44Z</time>
      </trkpt>
      <trkpt lat="48.72551" lon="7.33926">
        <ele>439</ele>
        <time>2014-03-08T13:12:59Z</time>
      </trkpt>
      <trkpt lat="48.72557" lon="7.33932">
        <ele>443</ele>
        <time>2014-03-08T13:13:05Z</time>
      </trkpt>
      <trkpt lat="48.72556" lon="7.33931">
        <ele>442</ele>
        <time>2014-03-08T13:13:08Z</time>
      </trkpt>
      <trkpt lat="48.72554" lon="7.33929">
        <ele>441</ele>
        <time>2014-03-08T13:13:10Z</time>
      </trkpt>
      <trkpt lat="48.72552" lon="7.33927">
        <ele>442</ele>
        <time>2014-03-08T13:13:13Z</time>
      </trkpt>
      <trkpt lat="48.7255" lon="7.33927">
        <ele>442</ele>
        <time>2014-03-08T13:13:19Z</time>
      </trkpt>
      <trkpt lat="48.72548" lon="7.33929">
        <ele>440</ele>
        <time>2014-03-08T13:13:21Z</time>
      </trkpt>
      <trkpt lat="48.72546" lon="7.33929">
        <ele>441</ele>
        <time>2014-03-08T13:13:23Z</time>
      </trkpt>
      <trkpt lat="48.72544" lon="7.33929">
        <ele>439</ele>
        <time>2014-03-08T13:13:27Z</time>
      </trkpt>
      <trkpt lat="48.72541" lon="7.33927">
        <ele>438</ele>
        <time>2014-03-08T13:13:31Z</time>
      </trkpt>
      <trkpt lat="48.7254" lon="7.33924">
        <ele>438</ele>
        <time>2014-03-08T13:13:43Z</time>
      </trkpt>
      <trkpt lat="48.72536" lon="7.33924">
        <ele>439</ele>
        <time>2014-03-08T13:13:46Z</time>
      </trkpt>
      <trkpt lat="48.72535" lon="7.33923">
        <ele>439</ele>
        <time>2014-03-08T13:13:47Z</time>
      </trkpt>
      <trkpt lat="48.72532" lon="7.33923">
        <ele>439</ele>
        <time>2014-03-08T13:13:49Z</time>
      </trkpt>
      <trkpt lat="48.72528" lon="7.33921">
        <ele>440</ele>
        <time>2014-03-08T13:13:53Z</time>
      </trkpt>
      <trkpt lat="48.72524" lon="7.33921">
        <ele>441</ele>
        <time>2014-03-08T13:13:56Z</time>
      </trkpt>
      <trkpt lat="48.72525" lon="7.33917">
        <ele>440</ele>
        <time>2014-03-08T13:14:03Z</time>
      </trkpt>
      <trkpt lat="48.72524" lon="7.33913">
        <ele>440</ele>
        <time>2014-03-08T13:14:21Z</time>
      </trkpt>
      <trkpt lat="48.72527" lon="7.33907">
        <ele>438</ele>
        <time>2014-03-08T13:14:40Z</time>
      </trkpt>
      <trkpt lat="48.72529" lon="7.33896">
        <ele>437</ele>
        <time>2014-03-08T13:14:44Z</time>
      </trkpt>
      <trkpt lat="48.72525" lon="7.33888">
        <ele>434</ele>
        <time>2014-03-08T13:14:53Z</time>
      </trkpt>
      <trkpt lat="48.72525" lon="7.33881">
        <ele>447</ele>
        <time>2014-03-08T13:15:30Z</time>
      </trkpt>
      <trkpt lat="48.72526" lon="7.33876">
        <ele>448</ele>
        <time>2014-03-08T13:16:00Z</time>
      </trkpt>
      <trkpt lat="48.72505" lon="7.33854">
        <ele>444</ele>
        <time>2014-03-08T13:16:14Z</time>
      </trkpt>
      <trkpt lat="48.72445" lon="7.33826">
        <ele>436</ele>
        <time>2014-03-08T13:16:40Z</time>
      </trkpt>
      <trkpt lat="48.7244" lon="7.33844">
        <ele>484</ele>
        <time>2014-03-08T13:21:45Z</time>
      </trkpt>
      <trkpt lat="48.7244" lon="7.33844">
        <ele>436</ele>
        <time>2014-03-08T13:21:46Z</time>
      </trkpt>
      <trkpt lat="48.72443" lon="7.33846">
        <ele>432</ele>
        <time>2014-03-08T13:23:06Z</time>
      </trkpt>
      <trkpt lat="48.72445" lon="7.33848">
        <ele>433</ele>
        <time>2014-03-08T13:23:07Z</time>
      </trkpt>
      <trkpt lat="48.72524" lon="7.33931">
        <ele>430</ele>
        <time>2014-03-08T13:23:29Z</time>
      </trkpt>
      <trkpt lat="48.72524" lon="7.3394">
        <ele>431</ele>
        <time>2014-03-08T13:23:30Z</time>
      </trkpt>
      <trkpt lat="48.72641" lon="7.34069">
        <ele>412</ele>
        <time>2014-03-08T13:23:59Z</time>
      </trkpt>
      <trkpt lat="48.72652" lon="7.34067">
        <ele>413</ele>
        <time>2014-03-08T13:24:02Z</time>
      </trkpt>
      <trkpt lat="48.72659" lon="7.34056">
        <ele>413</ele>
        <time>2014-03-08T13:24:05Z</time>
      </trkpt>
      <trkpt lat="48.72667" lon="7.33987">
        <ele>405</ele>
        <time>2014-03-08T13:24:23Z</time>
      </trkpt>
      <trkpt lat="48.72748" lon="7.34172">
        <ele>387</ele>
        <time>2014-03-08T13:24:53Z</time>
      </trkpt>
      <trkpt lat="48.72772" lon="7.34231">
        <ele>378</ele>
        <time>2014-03-08T13:25:00Z</time>
      </trkpt>
      <trkpt lat="48.72775" lon="7.34245">
        <ele>414</ele>
        <time>2014-03-08T13:25:02Z</time>
      </trkpt>
      <trkpt lat="48.72804" lon="7.3435">
        <ele>367</ele>
        <time>2014-03-08T13:25:21Z</time>
      </trkpt>
      <trkpt lat="48.72846" lon="7.34368">
        <ele>360</ele>
        <time>2014-03-08T13:25:43Z</time>
      </trkpt>
      <trkpt lat="48.72908" lon="7.3434">
        <ele>356</ele>
        <time>2014-03-08T13:26:04Z</time>
      </trkpt>
      <trkpt lat="48.73012" lon="7.34417">
        <ele>333</ele>
        <time>2014-03-08T13:26:34Z</time>
      </trkpt>
      <trkpt lat="48.73144" lon="7.34542">
        <ele>325</ele>
        <time>2014-03-08T13:27:04Z</time>
      </trkpt>
      <trkpt lat="48.73151" lon="7.34553">
        <ele>324</ele>
        <time>2014-03-08T13:27:06Z</time>
      </trkpt>
      <trkpt lat="48.73151" lon="7.3456">
        <ele>321</ele>
        <time>2014-03-08T13:27:08Z</time>
      </trkpt>
      <trkpt lat="48.73154" lon="7.34563">
        <ele>321</ele>
        <time>2014-03-08T13:27:10Z</time>
      </trkpt>
      <trkpt lat="48.73154" lon="7.34566">
        <ele>318</ele>
        <time>2014-03-08T13:27:12Z</time>
      </trkpt>
      <trkpt lat="48.73159" lon="7.34569">
        <ele>318</ele>
        <time>2014-03-08T13:27:16Z</time>
      </trkpt>
      <trkpt lat="48.73241" lon="7.34663">
        <ele>303</ele>
        <time>2014-03-08T13:27:46Z</time>
      </trkpt>
      <trkpt lat="48.73328" lon="7.34773">
        <ele>289</ele>
        <time>2014-03-08T13:28:16Z</time>
      </trkpt>
      <trkpt lat="48.7334" lon="7.34795">
        <ele>286</ele>
        <time>2014-03-08T13:28:24Z</time>
      </trkpt>
      <trkpt lat="48.73342" lon="7.34796">
        <ele>284</ele>
        <time>2014-03-08T13:28:27Z</time>
      </trkpt>
      <trkpt lat="48.73345" lon="7.34795">
        <ele>282</ele>
        <time>2014-03-08T13:29:29Z</time>
      </trkpt>
      <trkpt lat="48.73348" lon="7.34794">
        <ele>284</ele>
        <time>2014-03-08T13:29:39Z</time>
      </trkpt>
      <trkpt lat="48.73346" lon="7.34794">
        <ele>282</ele>
        <time>2014-03-08T13:34:31Z</time>
      </trkpt>
      <trkpt lat="48.73345" lon="7.34792">
        <ele>280</ele>
        <time>2014-03-08T13:34:53Z</time>
      </trkpt>
      <trkpt lat="48.73344" lon="7.3479">
        <ele>282</ele>
        <time>2014-03-08T13:34:55Z</time>
      </trkpt>
      <trkpt lat="48.7334" lon="7.3478">
        <ele>282</ele>
        <time>2014-03-08T13:35:02Z</time>
      </trkpt>
      <trkpt lat="48.7334" lon="7.34775">
        <ele>281</ele>
        <time>2014-03-08T13:35:04Z</time>
      </trkpt>
      <trkpt lat="48.73341" lon="7.34774">
        <ele>281</ele>
        <time>2014-03-08T13:35:05Z</time>
      </trkpt>
      <trkpt lat="48.73346" lon="7.34773">
        <ele>281</ele>
        <time>2014-03-08T13:35:09Z</time>
      </trkpt>
      <trkpt lat="48.73348" lon="7.34776">
        <ele>279</ele>
        <time>2014-03-08T13:35:11Z</time>
      </trkpt>
      <trkpt lat="48.734" lon="7.34825">
        <ele>273</ele>
        <time>2014-03-08T13:35:28Z</time>
      </trkpt>
      <trkpt lat="48.73538" lon="7.34843">
        <ele>266</ele>
        <time>2014-03-08T13:36:05Z</time>
      </trkpt>
      <trkpt lat="48.73635" lon="7.34881">
        <ele>257</ele>
        <time>2014-03-08T13:36:35Z</time>
      </trkpt>
      <trkpt lat="48.73633" lon="7.3488">
        <ele>256</ele>
        <time>2014-03-08T13:36:40Z</time>
      </trkpt>
      <trkpt lat="48.73633" lon="7.34876">
        <ele>255</ele>
        <time>2014-03-08T13:36:42Z</time>
      </trkpt>
      <trkpt lat="48.73631" lon="7.34874">
        <ele>255</ele>
        <time>2014-03-08T13:36:43Z</time>
      </trkpt>
      <trkpt lat="48.73574" lon="7.34855">
        <ele>262</ele>
        <time>2014-03-08T13:37:13Z</time>
      </trkpt>
      <trkpt lat="48.7353" lon="7.34835">
        <ele>266</ele>
        <time>2014-03-08T13:37:43Z</time>
      </trkpt>
      <trkpt lat="48.73481" lon="7.34828">
        <ele>270</ele>
        <time>2014-03-08T13:38:13Z</time>
      </trkpt>
      <trkpt lat="48.73431" lon="7.34823">
        <ele>272</ele>
        <time>2014-03-08T13:38:43Z</time>
      </trkpt>
      <trkpt lat="48.73427" lon="7.34823">
        <ele>272</ele>
        <time>2014-03-08T13:38:45Z</time>
      </trkpt>
      <trkpt lat="48.73384" lon="7.34812">
        <ele>275</ele>
        <time>2014-03-08T13:39:11Z</time>
      </trkpt>
      <trkpt lat="48.73339" lon="7.34746">
        <ele>278</ele>
        <time>2014-03-08T13:39:41Z</time>
      </trkpt>
      <trkpt lat="48.73337" lon="7.34744">
        <ele>278</ele>
        <time>2014-03-08T13:39:42Z</time>
      </trkpt>
      <trkpt lat="48.73282" lon="7.34662">
        <ele>275</ele>
        <time>2014-03-08T13:40:12Z</time>
      </trkpt>
      <trkpt lat="48.73271" lon="7.34643">
        <ele>278</ele>
        <time>2014-03-08T13:40:17Z</time>
      </trkpt>
      <trkpt lat="48.73268" lon="7.34639">
        <ele>280</ele>
        <time>2014-03-08T13:40:18Z</time>
      </trkpt>
      <trkpt lat="48.73255" lon="7.34604">
        <ele>283</ele>
        <time>2014-03-08T13:40:28Z</time>
      </trkpt>
      <trkpt lat="48.73246" lon="7.34586">
        <ele>288</ele>
        <time>2014-03-08T13:40:42Z</time>
      </trkpt>
      <trkpt lat="48.73247" lon="7.34581">
        <ele>292</ele>
        <time>2014-03-08T13:41:02Z</time>
      </trkpt>
      <trkpt lat="48.73215" lon="7.34493">
        <ele>288</ele>
        <time>2014-03-08T13:41:32Z</time>
      </trkpt>
      <trkpt lat="48.73214" lon="7.34491">
        <ele>288</ele>
        <time>2014-03-08T13:41:33Z</time>
      </trkpt>
      <trkpt lat="48.73201" lon="7.34467">
        <ele>289</ele>
        <time>2014-03-08T13:41:47Z</time>
      </trkpt>
      <trkpt lat="48.73197" lon="7.34458">
        <ele>291</ele>
        <time>2014-03-08T13:41:54Z</time>
      </trkpt>
      <trkpt lat="48.73193" lon="7.34448">
        <ele>292</ele>
        <time>2014-03-08T13:42:01Z</time>
      </trkpt>
      <trkpt lat="48.73191" lon="7.34444">
        <ele>295</ele>
        <time>2014-03-08T13:42:10Z</time>
      </trkpt>
      <trkpt lat="48.73193" lon="7.34437">
        <ele>294</ele>
        <time>2014-03-08T13:42:49Z</time>
      </trkpt>
      <trkpt lat="48.73192" lon="7.34434">
        <ele>295</ele>
        <time>2014-03-08T13:42:51Z</time>
      </trkpt>
      <trkpt lat="48.73191" lon="7.34431">
        <ele>296</ele>
        <time>2014-03-08T13:42:53Z</time>
      </trkpt>
      <trkpt lat="48.73154" lon="7.34353">
        <ele>289</ele>
        <time>2014-03-08T13:43:23Z</time>
      </trkpt>
      <trkpt lat="48.73134" lon="7.34313">
        <ele>289</ele>
        <time>2014-03-08T13:43:41Z</time>
      </trkpt>
      <trkpt lat="48.73136" lon="7.3431">
        <ele>288</ele>
        <time>2014-03-08T13:43:44Z</time>
      </trkpt>
      <trkpt lat="48.73134" lon="7.34306">
        <ele>291</ele>
        <time>2014-03-08T13:44:07Z</time>
      </trkpt>
      <trkpt lat="48.73132" lon="7.34305">
        <ele>289</ele>
        <time>2014-03-08T13:44:09Z</time>
      </trkpt>
      <trkpt lat="48.73111" lon="7.34283">
        <ele>290</ele>
        <time>2014-03-08T13:44:19Z</time>
      </trkpt>
      <trkpt lat="48.73027" lon="7.3416">
        <ele>284</ele>
        <time>2014-03-08T13:44:49Z</time>
      </trkpt>
      <trkpt lat="48.72961" lon="7.33948">
        <ele>270</ele>
        <time>2014-03-08T13:45:19Z</time>
      </trkpt>
      <trkpt lat="48.72962" lon="7.33942">
        <ele>270</ele>
        <time>2014-03-08T13:45:20Z</time>
      </trkpt>
      <trkpt lat="48.72974" lon="7.33729">
        <ele>247</ele>
        <time>2014-03-08T13:45:50Z</time>
      </trkpt>
      <trkpt lat="48.72965" lon="7.33578">
        <ele>247</ele>
        <time>2014-03-08T13:46:18Z</time>
      </trkpt>
      <trkpt lat="48.7289" lon="7.33464">
        <ele>231</ele>
        <time>2014-03-08T13:46:48Z</time>
      </trkpt>
      <trkpt lat="48.72785" lon="7.3335">
        <ele>223</ele>
        <time>2014-03-08T13:47:18Z</time>
      </trkpt>
      <trkpt lat="48.72745" lon="7.33306">
        <ele>223</ele>
        <time>2014-03-08T13:47:30Z</time>
      </trkpt>
      <trkpt lat="48.72633" lon="7.33187">
        <ele>216</ele>
        <time>2014-03-08T13:48:00Z</time>
      </trkpt>
      <trkpt lat="48.72624" lon="7.33168">
        <ele>217</ele>
        <time>2014-03-08T13:48:05Z</time>
      </trkpt>
      <trkpt lat="48.72624" lon="7.33165">
        <ele>222</ele>
        <time>2014-03-08T13:51:22Z</time>
      </trkpt>
      <trkpt lat="48.72622" lon="7.33163">
        <ele>224</ele>
        <time>2014-03-08T13:51:24Z</time>
      </trkpt>
      <trkpt lat="48.72606" lon="7.33136">
        <ele>228</ele>
        <time>2014-03-08T13:51:37Z</time>
      </trkpt>
      <trkpt lat="48.72577" lon="7.33019">
        <ele>217</ele>
        <time>2014-03-08T13:52:07Z</time>
      </trkpt>
      <trkpt lat="48.7256" lon="7.32896">
        <ele>214</ele>
        <time>2014-03-08T13:52:37Z</time>
      </trkpt>
      <trkpt lat="48.72488" lon="7.32783">
        <ele>217</ele>
        <time>2014-03-08T13:53:07Z</time>
      </trkpt>
      <trkpt lat="48.72473" lon="7.32741">
        <ele>218</ele>
        <time>2014-03-08T13:53:22Z</time>
      </trkpt>
      <trkpt lat="48.72438" lon="7.32657">
        <ele>220</ele>
        <time>2014-03-08T13:53:52Z</time>
      </trkpt>
      <trkpt lat="48.72412" lon="7.32609">
        <ele>224</ele>
        <time>2014-03-08T13:54:04Z</time>
      </trkpt>
      <trkpt lat="48.72383" lon="7.32561">
        <ele>227</ele>
        <time>2014-03-08T13:54:13Z</time>
      </trkpt>
      <trkpt lat="48.72378" lon="7.32557">
        <ele>229</ele>
        <time>2014-03-08T13:54:14Z</time>
      </trkpt>
      <trkpt lat="48.72377" lon="7.32552">
        <ele>229</ele>
        <time>2014-03-08T13:54:15Z</time>
      </trkpt>
      <trkpt lat="48.72298" lon="7.32415">
        <ele>223</ele>
        <time>2014-03-08T13:54:45Z</time>
      </trkpt>
      <trkpt lat="48.72293" lon="7.32405">
        <ele>224</ele>
        <time>2014-03-08T13:54:47Z</time>
      </trkpt>
      <trkpt lat="48.72279" lon="7.32375">
        <ele>224</ele>
        <time>2014-03-08T13:54:52Z</time>
      </trkpt>
      <trkpt lat="48.72212" lon="7.32218">
        <ele>224</ele>
        <time>2014-03-08T13:55:22Z</time>
      </trkpt>
      <trkpt lat="48.7216" lon="7.32096">
        <ele>222</ele>
        <time>2014-03-08T13:55:52Z</time>
      </trkpt>
      <trkpt lat="48.72126" lon="7.32058">
        <ele>220</ele>
        <time>2014-03-08T13:56:04Z</time>
      </trkpt>
      <trkpt lat="48.72069" lon="7.32073">
        <ele>211</ele>
        <time>2014-03-08T13:56:31Z</time>
      </trkpt>
      <trkpt lat="48.72068" lon="7.32069">
        <ele>216</ele>
        <time>2014-03-08T13:56:33Z</time>
      </trkpt>
      <trkpt lat="48.72068" lon="7.32066">
        <ele>217</ele>
        <time>2014-03-08T13:56:35Z</time>
      </trkpt>
      <trkpt lat="48.72068" lon="7.32062">
        <ele>217</ele>
        <time>2014-03-08T13:56:37Z</time>
      </trkpt>
      <trkpt lat="48.7207" lon="7.32055">
        <ele>219</ele>
        <time>2014-03-08T13:56:41Z</time>
      </trkpt>
      <trkpt lat="48.72077" lon="7.32045">
        <ele>223</ele>
        <time>2014-03-08T13:56:50Z</time>
      </trkpt>
      <trkpt lat="48.7208" lon="7.32035">
        <ele>223</ele>
        <time>2014-03-08T13:56:54Z</time>
      </trkpt>
      <trkpt lat="48.72107" lon="7.31977">
        <ele>216</ele>
        <time>2014-03-08T13:57:26Z</time>
      </trkpt>
      <trkpt lat="48.72109" lon="7.31955">
        <ele>219</ele>
        <time>2014-03-08T13:57:34Z</time>
      </trkpt>
      <trkpt lat="48.72111" lon="7.31953">
        <ele>223</ele>
        <time>2014-03-08T13:57:46Z</time>
      </trkpt>
      <trkpt lat="48.72104" lon="7.31918">
        <ele>224</ele>
        <time>2014-03-08T13:57:56Z</time>
      </trkpt>
      <trkpt lat="48.72099" lon="7.31901">
        <ele>226</ele>
        <time>2014-03-08T13:58:02Z</time>
      </trkpt>
      <trkpt lat="48.72098" lon="7.31896">
        <ele>230</ele>
        <time>2014-03-08T13:58:04Z</time>
      </trkpt>
      <trkpt lat="48.72095" lon="7.31884">
        <ele>233</ele>
        <time>2014-03-08T13:58:08Z</time>
      </trkpt>
      <trkpt lat="48.72073" lon="7.31811">
        <ele>232</ele>
        <time>2014-03-08T13:58:28Z</time>
      </trkpt>
      <trkpt lat="48.72073" lon="7.31799">
        <ele>236</ele>
        <time>2014-03-08T13:58:32Z</time>
      </trkpt>
      <trkpt lat="48.72037" lon="7.3165">
        <ele>222</ele>
        <time>2014-03-08T13:59:02Z</time>
      </trkpt>
      <trkpt lat="48.72007" lon="7.31428">
        <ele>207</ele>
        <time>2014-03-08T13:59:29Z</time>
      </trkpt>
      <trkpt lat="48.72008" lon="7.31426">
        <ele>204</ele>
        <time>2014-03-08T13:59:31Z</time>
      </trkpt>
      <trkpt lat="48.72016" lon="7.31432">
        <ele>203</ele>
        <time>2014-03-08T13:59:33Z</time>
      </trkpt>
      <trkpt lat="48.72017" lon="7.31437">
        <ele>201</ele>
        <time>2014-03-08T13:59:34Z</time>
      </trkpt>
      <trkpt lat="48.72058" lon="7.3154">
        <ele>198</ele>
        <time>2014-03-08T13:59:52Z</time>
      </trkpt>
      <trkpt lat="48.72063" lon="7.31537">
        <ele>198</ele>
        <time>2014-03-08T13:59:54Z</time>
      </trkpt>
      <trkpt lat="48.72065" lon="7.31525">
        <ele>197</ele>
        <time>2014-03-08T13:59:57Z</time>
      </trkpt>
      <trkpt lat="48.72067" lon="7.31496">
        <ele>196</ele>
        <time>2014-03-08T14:00:04Z</time>
      </trkpt>
      <trkpt lat="48.72068" lon="7.31497">
        <ele>196</ele>
        <time>2014-03-08T14:00:51Z</time>
      </trkpt>
      <trkpt lat="48.72114" lon="7.31493">
        <ele>194</ele>
        <time>2014-03-08T14:01:13Z</time>
      </trkpt>
      <trkpt lat="48.72139" lon="7.31543">
        <ele>194</ele>
        <time>2014-03-08T14:01:32Z</time>
      </trkpt>
      <trkpt lat="48.72142" lon="7.31547">
        <ele>195</ele>
        <time>2014-03-08T14:01:36Z</time>
      </trkpt>
      <trkpt lat="48.72148" lon="7.31555">
        <ele>198</ele>
        <time>2014-03-08T14:01:44Z</time>
      </trkpt>
      <trkpt lat="48.72149" lon="7.31553">
        <ele>198</ele>
        <time>2014-03-08T14:01:47Z</time>
      </trkpt>
      <trkpt lat="48.72149" lon="7.3155">
        <ele>197</ele>
        <time>2014-03-08T14:01:49Z</time>
      </trkpt>
      <trkpt lat="48.72147" lon="7.31544">
        <ele>198</ele>
        <time>2014-03-08T14:01:53Z</time>
      </trkpt>
      <trkpt lat="48.72147" lon="7.31548">
        <ele>198</ele>
        <time>2014-03-08T14:01:57Z</time>
      </trkpt>
      <trkpt lat="48.72151" lon="7.31563">
        <ele>200</ele>
        <time>2014-03-08T14:02:04Z</time>
      </trkpt>
      <trkpt lat="48.72153" lon="7.31563">
        <ele>200</ele>
        <time>2014-03-08T14:02:06Z</time>
      </trkpt>
      <trkpt lat="48.72154" lon="7.31561">
        <ele>200</ele>
        <time>2014-03-08T14:02:07Z</time>
      </trkpt>
      <trkpt lat="48.72153" lon="7.31559">
        <ele>200</ele>
        <time>2014-03-08T14:02:08Z</time>
      </trkpt>
      <trkpt lat="48.72152" lon="7.31557">
        <ele>200</ele>
        <time>2014-03-08T14:02:09Z</time>
      </trkpt>
      <trkpt lat="48.72151" lon="7.31555">
        <ele>200</ele>
        <time>2014-03-08T14:02:10Z</time>
      </trkpt>
      <trkpt lat="48.7215" lon="7.31551">
        <ele>200</ele>
        <time>2014-03-08T14:02:12Z</time>
      </trkpt>
      <trkpt lat="48.72146" lon="7.31532">
        <ele>200</ele>
        <time>2014-03-08T14:02:21Z</time>
      </trkpt>
      <trkpt lat="48.72143" lon="7.31532">
        <ele>201</ele>
        <time>2014-03-08T14:02:23Z</time>
      </trkpt>
      <trkpt lat="48.72143" lon="7.31534">
        <ele>199</ele>
        <time>2014-03-08T14:02:32Z</time>
      </trkpt>
      <trkpt lat="48.72144" lon="7.31536">
        <ele>198</ele>
        <time>2014-03-08T14:02:49Z</time>
      </trkpt>
      <trkpt lat="48.72161" lon="7.31602">
        <ele>201</ele>
        <time>2014-03-08T14:03:11Z</time>
      </trkpt>
      <trkpt lat="48.7216" lon="7.31607">
        <ele>202</ele>
        <time>2014-03-08T14:03:24Z</time>
      </trkpt>
      <trkpt lat="48.72163" lon="7.31611">
        <ele>201</ele>
        <time>2014-03-08T14:03:27Z</time>
      </trkpt>
      <trkpt lat="48.72166" lon="7.31613">
        <ele>201</ele>
        <time>2014-03-08T14:03:30Z</time>
      </trkpt>
      <trkpt lat="48.72171" lon="7.31613">
        <ele>203</ele>
        <time>2014-03-08T14:03:36Z</time>
      </trkpt>
      <trkpt lat="48.72181" lon="7.3161">
        <ele>199</ele>
        <time>2014-03-08T14:03:54Z</time>
      </trkpt>
      <trkpt lat="48.72185" lon="7.31615">
        <ele>198</ele>
        <time>2014-03-08T14:03:56Z</time>
      </trkpt>
      <trkpt lat="48.72209" lon="7.31825">
        <ele>198</ele>
        <time>2014-03-08T14:04:26Z</time>
      </trkpt>
      <trkpt lat="48.72263" lon="7.32028">
        <ele>194</ele>
        <time>2014-03-08T14:04:56Z</time>
      </trkpt>
      <trkpt lat="48.72349" lon="7.32178">
        <ele>191</ele>
        <time>2014-03-08T14:05:26Z</time>
      </trkpt>
      <trkpt lat="48.72362" lon="7.32198">
        <ele>192</ele>
        <time>2014-03-08T14:05:30Z</time>
      </trkpt>
      <trkpt lat="48.724" lon="7.32252">
        <ele>194</ele>
        <time>2014-03-08T14:05:41Z</time>
      </trkpt>
      <trkpt lat="48.72403" lon="7.3226">
        <ele>196</ele>
        <time>2014-03-08T14:05:42Z</time>
      </trkpt>
      <trkpt lat="48.72526" lon="7.32418">
        <ele>187</ele>
        <time>2014-03-08T14:06:12Z</time>
      </trkpt>
      <trkpt lat="48.72637" lon="7.32628">
        <ele>187</ele>
        <time>2014-03-08T14:06:41Z</time>
      </trkpt>
      <trkpt lat="48.72638" lon="7.32644">
        <ele>189</ele>
        <time>2014-03-08T14:06:43Z</time>
      </trkpt>
      <trkpt lat="48.72645" lon="7.32653">
        <ele>189</ele>
        <time>2014-03-08T14:06:44Z</time>
      </trkpt>
      <trkpt lat="48.72646" lon="7.32663">
        <ele>189</ele>
        <time>2014-03-08T14:06:45Z</time>
      </trkpt>
      <trkpt lat="48.72648" lon="7.3267">
        <ele>191</ele>
        <time>2014-03-08T14:06:46Z</time>
      </trkpt>
      <trkpt lat="48.72655" lon="7.32687">
        <ele>191</ele>
        <time>2014-03-08T14:06:48Z</time>
      </trkpt>
      <trkpt lat="48.72656" lon="7.32696">
        <ele>190</ele>
        <time>2014-03-08T14:06:49Z</time>
      </trkpt>
      <trkpt lat="48.72654" lon="7.32702">
        <ele>193</ele>
        <time>2014-03-08T14:06:50Z</time>
      </trkpt>
      <trkpt lat="48.72659" lon="7.32718">
        <ele>195</ele>
        <time>2014-03-08T14:06:52Z</time>
      </trkpt>
      <trkpt lat="48.72658" lon="7.32733">
        <ele>196</ele>
        <time>2014-03-08T14:06:54Z</time>
      </trkpt>
      <trkpt lat="48.72697" lon="7.32964">
        <ele>197</ele>
        <time>2014-03-08T14:07:23Z</time>
      </trkpt>
      <trkpt lat="48.727" lon="7.32991">
        <ele>197</ele>
        <time>2014-03-08T14:07:27Z</time>
      </trkpt>
      <trkpt lat="48.72713" lon="7.33005">
        <ele>197</ele>
        <time>2014-03-08T14:07:29Z</time>
      </trkpt>
      <trkpt lat="48.72716" lon="7.33018">
        <ele>197</ele>
        <time>2014-03-08T14:07:31Z</time>
      </trkpt>
      <trkpt lat="48.72721" lon="7.33024">
        <ele>196</ele>
        <time>2014-03-08T14:07:32Z</time>
      </trkpt>
      <trkpt lat="48.72743" lon="7.3308">
        <ele>195</ele>
        <time>2014-03-08T14:07:41Z</time>
      </trkpt>
      <trkpt lat="48.72825" lon="7.33155">
        <ele>185</ele>
        <time>2014-03-08T14:08:01Z</time>
      </trkpt>
      <trkpt lat="48.72961" lon="7.33219">
        <ele>184</ele>
        <time>2014-03-08T14:08:31Z</time>
      </trkpt>
      <trkpt lat="48.73071" lon="7.33309">
        <ele>187</ele>
        <time>2014-03-08T14:09:00Z</time>
      </trkpt>
      <trkpt lat="48.73086" lon="7.33343">
        <ele>187</ele>
        <time>2014-03-08T14:09:05Z</time>
      </trkpt>
      <trkpt lat="48.73117" lon="7.33542">
        <ele>190</ele>
        <time>2014-03-08T14:09:35Z</time>
      </trkpt>
      <trkpt lat="48.73134" lon="7.33581">
        <ele>193</ele>
        <time>2014-03-08T14:09:49Z</time>
      </trkpt>
      <trkpt lat="48.73132" lon="7.33581">
        <ele>198</ele>
        <time>2014-03-08T14:13:04Z</time>
      </trkpt>
      <trkpt lat="48.73131" lon="7.3358">
        <ele>198</ele>
        <time>2014-03-08T14:13:07Z</time>
      </trkpt>
      <trkpt lat="48.7313" lon="7.33578">
        <ele>198</ele>
        <time>2014-03-08T14:13:09Z</time>
      </trkpt>
      <trkpt lat="48.73128" lon="7.33561">
        <ele>197</ele>
        <time>2014-03-08T14:13:14Z</time>
      </trkpt>
      <trkpt lat="48.7313" lon="7.33553">
        <ele>194</ele>
        <time>2014-03-08T14:13:19Z</time>
      </trkpt>
      <trkpt lat="48.73129" lon="7.33551">
        <ele>192</ele>
        <time>2014-03-08T14:13:21Z</time>
      </trkpt>
      <trkpt lat="48.73129" lon="7.33552">
        <ele>192</ele>
        <time>2014-03-08T14:13:52Z</time>
      </trkpt>
      <trkpt lat="48.7313" lon="7.33556">
        <ele>193</ele>
        <time>2014-03-08T14:13:54Z</time>
      </trkpt>
      <trkpt lat="48.73132" lon="7.33559">
        <ele>193</ele>
        <time>2014-03-08T14:14:29Z</time>
      </trkpt>
      <trkpt lat="48.73162" lon="7.33585">
        <ele>194</ele>
        <time>2014-03-08T14:15:05Z</time>
      </trkpt>
      <trkpt lat="48.73166" lon="7.3359">
        <ele>194</ele>
        <time>2014-03-08T14:15:15Z</time>
      </trkpt>
      <trkpt lat="48.73165" lon="7.33589">
        <ele>194</ele>
        <time>2014-03-08T14:15:17Z</time>
      </trkpt>
      <trkpt lat="48.73164" lon="7.33588">
        <ele>194</ele>
        <time>2014-03-08T14:15:19Z</time>
      </trkpt>
      <trkpt lat="48.73162" lon="7.33588">
        <ele>192</ele>
        <time>2014-03-08T14:15:30Z</time>
      </trkpt>
      <trkpt lat="48.73159" lon="7.33587">
        <ele>192</ele>
        <time>2014-03-08T14:15:32Z</time>
      </trkpt>
      <trkpt lat="48.73136" lon="7.33562">
        <ele>191</ele>
        <time>2014-03-08T14:15:54Z</time>
      </trkpt>
      <trkpt lat="48.73133" lon="7.33565">
        <ele>193</ele>
        <time>2014-03-08T14:15:56Z</time>
      </trkpt>
      <trkpt lat="48.73133" lon="7.33571">
        <ele>194</ele>
        <time>2014-03-08T14:15:58Z</time>
      </trkpt>
      <trkpt lat="48.73164" lon="7.33707">
        <ele>188</ele>
        <time>2014-03-08T14:16:28Z</time>
      </trkpt>
      <trkpt lat="48.73154" lon="7.33809">
        <ele>187</ele>
        <time>2014-03-08T14:16:58Z</time>
      </trkpt>
      <trkpt lat="48.73156" lon="7.33857">
        <ele>192</ele>
        <time>2014-03-08T14:17:08Z</time>
      </trkpt>
      <trkpt lat="48.7316" lon="7.3389">
        <ele>195</ele>
        <time>2014-03-08T14:17:14Z</time>
      </trkpt>
      <trkpt lat="48.7323" lon="7.34063">
        <ele>192</ele>
        <time>2014-03-08T14:17:44Z</time>
      </trkpt>
      <trkpt lat="48.73334" lon="7.34131">
        <ele>188</ele>
        <time>2014-03-08T14:18:13Z</time>
      </trkpt>
      <trkpt lat="48.73348" lon="7.34089">
        <ele>193</ele>
        <time>2014-03-08T14:18:26Z</time>
      </trkpt>
      <trkpt lat="48.73353" lon="7.34038">
        <ele>193</ele>
        <time>2014-03-08T14:18:38Z</time>
      </trkpt>
      <trkpt lat="48.73333" lon="7.34008">
        <ele>191</ele>
        <time>2014-03-08T14:18:47Z</time>
      </trkpt>
      <trkpt lat="48.73271" lon="7.33965">
        <ele>189</ele>
        <time>2014-03-08T14:19:03Z</time>
      </trkpt>
      <trkpt lat="48.73269" lon="7.33961">
        <ele>195</ele>
        <time>2014-03-08T14:19:04Z</time>
      </trkpt>
      <trkpt lat="48.7325" lon="7.33946">
        <ele>197</ele>
        <time>2014-03-08T14:19:09Z</time>
      </trkpt>
      <trkpt lat="48.73211" lon="7.33878">
        <ele>194</ele>
        <time>2014-03-08T14:19:39Z</time>
      </trkpt>
      <trkpt lat="48.73209" lon="7.33628">
        <ele>189</ele>
        <time>2014-03-08T14:20:09Z</time>
      </trkpt>
      <trkpt lat="48.73189" lon="7.33496">
        <ele>193</ele>
        <time>2014-03-08T14:20:33Z</time>
      </trkpt>
      <trkpt lat="48.73143" lon="7.33381">
        <ele>192</ele>
        <time>2014-03-08T14:21:04Z</time>
      </trkpt>
      <trkpt lat="48.73111" lon="7.33305">
        <ele>195</ele>
        <time>2014-03-08T14:21:26Z</time>
      </trkpt>
      <trkpt lat="48.73112" lon="7.33302">
        <ele>195</ele>
        <time>2014-03-08T14:21:27Z</time>
      </trkpt>
      <trkpt lat="48.73113" lon="7.33298">
        <ele>196</ele>
        <time>2014-03-08T14:21:29Z</time>
      </trkpt>
      <trkpt lat="48.73127" lon="7.33257">
        <ele>205</ele>
        <time>2014-03-08T14:21:58Z</time>
      </trkpt>
      <trkpt lat="48.73127" lon="7.33253">
        <ele>207</ele>
        <time>2014-03-08T14:22:00Z</time>
      </trkpt>
      <trkpt lat="48.73128" lon="7.33249">
        <ele>209</ele>
        <time>2014-03-08T14:22:02Z</time>
      </trkpt>
      <trkpt lat="48.73131" lon="7.33238">
        <ele>212</ele>
        <time>2014-03-08T14:22:08Z</time>
      </trkpt>
      <trkpt lat="48.73134" lon="7.33234">
        <ele>216</ele>
        <time>2014-03-08T14:22:12Z</time>
      </trkpt>
      <trkpt lat="48.73136" lon="7.33228">
        <ele>218</ele>
        <time>2014-03-08T14:22:17Z</time>
      </trkpt>
      <trkpt lat="48.73143" lon="7.33204">
        <ele>219</ele>
        <time>2014-03-08T14:22:28Z</time>
      </trkpt>
      <trkpt lat="48.73146" lon="7.33198">
        <ele>219</ele>
        <time>2014-03-08T14:22:31Z</time>
      </trkpt>
      <trkpt lat="48.73147" lon="7.33196">
        <ele>221</ele>
        <time>2014-03-08T14:22:32Z</time>
      </trkpt>
      <trkpt lat="48.73157" lon="7.33192">
        <ele>220</ele>
        <time>2014-03-08T14:22:40Z</time>
      </trkpt>
      <trkpt lat="48.7316" lon="7.33193">
        <ele>221</ele>
        <time>2014-03-08T14:22:42Z</time>
      </trkpt>
      <trkpt lat="48.73162" lon="7.33196">
        <ele>220</ele>
        <time>2014-03-08T14:22:44Z</time>
      </trkpt>
      <trkpt lat="48.73164" lon="7.33208">
        <ele>222</ele>
        <time>2014-03-08T14:22:50Z</time>
      </trkpt>
      <trkpt lat="48.73164" lon="7.33215">
        <ele>222</ele>
        <time>2014-03-08T14:22:54Z</time>
      </trkpt>
      <trkpt lat="48.73167" lon="7.33226">
        <ele>223</ele>
        <time>2014-03-08T14:23:00Z</time>
      </trkpt>
      <trkpt lat="48.73166" lon="7.33234">
        <ele>224</ele>
        <time>2014-03-08T14:23:05Z</time>
      </trkpt>
      <trkpt lat="48.73164" lon="7.33237">
        <ele>225</ele>
        <time>2014-03-08T14:23:07Z</time>
      </trkpt>
      <trkpt lat="48.73163" lon="7.3324">
        <ele>225</ele>
        <time>2014-03-08T14:23:09Z</time>
      </trkpt>
      <trkpt lat="48.73164" lon="7.33243">
        <ele>224</ele>
        <time>2014-03-08T14:23:11Z</time>
      </trkpt>
      <trkpt lat="48.73196" lon="7.33328">
        <ele>215</ele>
        <time>2014-03-08T14:23:41Z</time>
      </trkpt>
      <trkpt lat="48.73197" lon="7.33332">
        <ele>216</ele>
        <time>2014-03-08T14:23:42Z</time>
      </trkpt>
      <trkpt lat="48.73217" lon="7.3338">
        <ele>223</ele>
        <time>2014-03-08T14:23:53Z</time>
      </trkpt>
      <trkpt lat="48.73227" lon="7.33402">
        <ele>225</ele>
        <time>2014-03-08T14:23:59Z</time>
      </trkpt>
      <trkpt lat="48.73231" lon="7.33411">
        <ele>229</ele>
        <time>2014-03-08T14:24:03Z</time>
      </trkpt>
      <trkpt lat="48.73236" lon="7.33423">
        <ele>228</ele>
        <time>2014-03-08T14:24:09Z</time>
      </trkpt>
      <trkpt lat="48.73256" lon="7.33473">
        <ele>237</ele>
        <time>2014-03-08T14:24:31Z</time>
      </trkpt>
      <trkpt lat="48.73267" lon="7.33499">
        <ele>240</ele>
        <time>2014-03-08T14:24:45Z</time>
      </trkpt>
      <trkpt lat="48.73281" lon="7.3356">
        <ele>241</ele>
        <time>2014-03-08T14:25:10Z</time>
      </trkpt>
      <trkpt lat="48.73286" lon="7.33595">
        <ele>246</ele>
        <time>2014-03-08T14:25:23Z</time>
      </trkpt>
      <trkpt lat="48.73288" lon="7.33615">
        <ele>248</ele>
        <time>2014-03-08T14:25:31Z</time>
      </trkpt>
      <trkpt lat="48.73287" lon="7.3362">
        <ele>252</ele>
        <time>2014-03-08T14:25:33Z</time>
      </trkpt>
      <trkpt lat="48.73287" lon="7.33634">
        <ele>255</ele>
        <time>2014-03-08T14:25:39Z</time>
      </trkpt>
      <trkpt lat="48.73286" lon="7.33639">
        <ele>259</ele>
        <time>2014-03-08T14:25:41Z</time>
      </trkpt>
      <trkpt lat="48.73283" lon="7.33735">
        <ele>256</ele>
        <time>2014-03-08T14:26:11Z</time>
      </trkpt>
      <trkpt lat="48.73306" lon="7.33806">
        <ele>254</ele>
        <time>2014-03-08T14:26:42Z</time>
      </trkpt>
      <trkpt lat="48.73314" lon="7.33817">
        <ele>257</ele>
        <time>2014-03-08T14:26:50Z</time>
      </trkpt>
      <trkpt lat="48.73349" lon="7.33845">
        <ele>259</ele>
        <time>2014-03-08T14:27:21Z</time>
      </trkpt>
      <trkpt lat="48.73389" lon="7.33871">
        <ele>255</ele>
        <time>2014-03-08T14:27:51Z</time>
      </trkpt>
      <trkpt lat="48.73394" lon="7.33872">
        <ele>256</ele>
        <time>2014-03-08T14:28:16Z</time>
      </trkpt>
      <trkpt lat="48.73395" lon="7.33871">
        <ele>255</ele>
        <time>2014-03-08T14:28:18Z</time>
      </trkpt>
      <trkpt lat="48.73396" lon="7.33869">
        <ele>255</ele>
        <time>2014-03-08T14:28:19Z</time>
      </trkpt>
      <trkpt lat="48.73395" lon="7.33867">
        <ele>252</ele>
        <time>2014-03-08T14:28:20Z</time>
      </trkpt>
      <trkpt lat="48.7339" lon="7.33847">
        <ele>246</ele>
        <time>2014-03-08T14:28:29Z</time>
      </trkpt>
      <trkpt lat="48.73374" lon="7.33825">
        <ele>250</ele>
        <time>2014-03-08T14:28:48Z</time>
      </trkpt>
      <trkpt lat="48.7337" lon="7.33815">
        <ele>251</ele>
        <time>2014-03-08T14:28:54Z</time>
      </trkpt>
      <trkpt lat="48.73369" lon="7.33812">
        <ele>253</ele>
        <time>2014-03-08T14:28:56Z</time>
      </trkpt>
      <trkpt lat="48.73366" lon="7.3381">
        <ele>254</ele>
        <time>2014-03-08T14:28:58Z</time>
      </trkpt>
      <trkpt lat="48.73365" lon="7.33808">
        <ele>253</ele>
        <time>2014-03-08T14:29:00Z</time>
      </trkpt>
      <trkpt lat="48.73363" lon="7.33798">
        <ele>253</ele>
        <time>2014-03-08T14:29:06Z</time>
      </trkpt>
      <trkpt lat="48.73362" lon="7.33794">
        <ele>255</ele>
        <time>2014-03-08T14:29:08Z</time>
      </trkpt>
      <trkpt lat="48.73358" lon="7.33779">
        <ele>259</ele>
        <time>2014-03-08T14:29:18Z</time>
      </trkpt>
      <trkpt lat="48.73358" lon="7.33777">
        <ele>261</ele>
        <time>2014-03-08T14:29:19Z</time>
      </trkpt>
      <trkpt lat="48.73358" lon="7.33775">
        <ele>260</ele>
        <time>2014-03-08T14:29:20Z</time>
      </trkpt>
      <trkpt lat="48.73357" lon="7.33766">
        <ele>263</ele>
        <time>2014-03-08T14:29:24Z</time>
      </trkpt>
      <trkpt lat="48.73356" lon="7.33735">
        <ele>266</ele>
        <time>2014-03-08T14:29:47Z</time>
      </trkpt>
      <trkpt lat="48.73378" lon="7.33636">
        <ele>259</ele>
        <time>2014-03-08T14:30:17Z</time>
      </trkpt>
      <trkpt lat="48.73381" lon="7.33621">
        <ele>261</ele>
        <time>2014-03-08T14:30:22Z</time>
      </trkpt>
      <trkpt lat="48.73381" lon="7.33611">
        <ele>263</ele>
        <time>2014-03-08T14:30:26Z</time>
      </trkpt>
      <trkpt lat="48.73381" lon="7.33603">
        <ele>264</ele>
        <time>2014-03-08T14:30:30Z</time>
      </trkpt>
      <trkpt lat="48.73382" lon="7.336">
        <ele>267</ele>
        <time>2014-03-08T14:30:32Z</time>
      </trkpt>
      <trkpt lat="48.73383" lon="7.33597">
        <ele>266</ele>
        <time>2014-03-08T14:30:34Z</time>
      </trkpt>
      <trkpt lat="48.73385" lon="7.33594">
        <ele>266</ele>
        <time>2014-03-08T14:30:43Z</time>
      </trkpt>
      <trkpt lat="48.73388" lon="7.33596">
        <ele>268</ele>
        <time>2014-03-08T14:30:49Z</time>
      </trkpt>
      <trkpt lat="48.73391" lon="7.33603">
        <ele>268</ele>
        <time>2014-03-08T14:30:55Z</time>
      </trkpt>
      <trkpt lat="48.73395" lon="7.3362">
        <ele>274</ele>
        <time>2014-03-08T14:31:03Z</time>
      </trkpt>
      <trkpt lat="48.73399" lon="7.33634">
        <ele>279</ele>
        <time>2014-03-08T14:31:08Z</time>
      </trkpt>
      <trkpt lat="48.73413" lon="7.33673">
        <ele>283</ele>
        <time>2014-03-08T14:31:19Z</time>
      </trkpt>
      <trkpt lat="48.73424" lon="7.33701">
        <ele>284</ele>
        <time>2014-03-08T14:31:29Z</time>
      </trkpt>
      <trkpt lat="48.73426" lon="7.33709">
        <ele>283</ele>
        <time>2014-03-08T14:31:33Z</time>
      </trkpt>
      <trkpt lat="48.73428" lon="7.33692">
        <ele>284</ele>
        <time>2014-03-08T14:31:49Z</time>
      </trkpt>
      <trkpt lat="48.73439" lon="7.33633">
        <ele>281</ele>
        <time>2014-03-08T14:32:19Z</time>
      </trkpt>
      <trkpt lat="48.73445" lon="7.33587">
        <ele>286</ele>
        <time>2014-03-08T14:32:45Z</time>
      </trkpt>
      <trkpt lat="48.73449" lon="7.33551">
        <ele>288</ele>
        <time>2014-03-08T14:33:05Z</time>
      </trkpt>
      <trkpt lat="48.73452" lon="7.33546">
        <ele>288</ele>
        <time>2014-03-08T14:33:35Z</time>
      </trkpt>
      <trkpt lat="48.73453" lon="7.33543">
        <ele>288</ele>
        <time>2014-03-08T14:33:38Z</time>
      </trkpt>
      <trkpt lat="48.73455" lon="7.33541">
        <ele>290</ele>
        <time>2014-03-08T14:33:42Z</time>
      </trkpt>
      <trkpt lat="48.73455" lon="7.33538">
        <ele>293</ele>
        <time>2014-03-08T14:33:58Z</time>
      </trkpt>
      <trkpt lat="48.73458" lon="7.3349">
        <ele>298</ele>
        <time>2014-03-08T14:34:21Z</time>
      </trkpt>
      <trkpt lat="48.73462" lon="7.33465">
        <ele>298</ele>
        <time>2014-03-08T14:34:33Z</time>
      </trkpt>
      <trkpt lat="48.73468" lon="7.33426">
        <ele>305</ele>
        <time>2014-03-08T14:34:53Z</time>
      </trkpt>
      <trkpt lat="48.7347" lon="7.33411">
        <ele>309</ele>
        <time>2014-03-08T14:35:01Z</time>
      </trkpt>
      <trkpt lat="48.73472" lon="7.33409">
        <ele>301</ele>
        <time>2014-03-08T14:35:35Z</time>
      </trkpt>
      <trkpt lat="48.73474" lon="7.33405">
        <ele>304</ele>
        <time>2014-03-08T14:35:40Z</time>
      </trkpt>
      <trkpt lat="48.73475" lon="7.33401">
        <ele>306</ele>
        <time>2014-03-08T14:35:42Z</time>
      </trkpt>
      <trkpt lat="48.73477" lon="7.33385">
        <ele>310</ele>
        <time>2014-03-08T14:35:50Z</time>
      </trkpt>
      <trkpt lat="48.7348" lon="7.33355">
        <ele>318</ele>
        <time>2014-03-08T14:36:20Z</time>
      </trkpt>
      <trkpt lat="48.7349" lon="7.33317">
        <ele>319</ele>
        <time>2014-03-08T14:36:51Z</time>
      </trkpt>
      <trkpt lat="48.7349" lon="7.33314">
        <ele>319</ele>
        <time>2014-03-08T14:36:54Z</time>
      </trkpt>
      <trkpt lat="48.73489" lon="7.3331">
        <ele>321</ele>
        <time>2014-03-08T14:36:57Z</time>
      </trkpt>
      <trkpt lat="48.73489" lon="7.33308">
        <ele>323</ele>
        <time>2014-03-08T14:37:00Z</time>
      </trkpt>
      <trkpt lat="48.73487" lon="7.33304">
        <ele>326</ele>
        <time>2014-03-08T14:37:08Z</time>
      </trkpt>
      <trkpt lat="48.73486" lon="7.33301">
        <ele>329</ele>
        <time>2014-03-08T14:37:10Z</time>
      </trkpt>
      <trkpt lat="48.73486" lon="7.33298">
        <ele>333</ele>
        <time>2014-03-08T14:37:13Z</time>
      </trkpt>
      <trkpt lat="48.73485" lon="7.33295">
        <ele>335</ele>
        <time>2014-03-08T14:37:16Z</time>
      </trkpt>
      <trkpt lat="48.73485" lon="7.33281">
        <ele>338</ele>
        <time>2014-03-08T14:37:25Z</time>
      </trkpt>
      <trkpt lat="48.73484" lon="7.33266">
        <ele>339</ele>
        <time>2014-03-08T14:37:36Z</time>
      </trkpt>
      <trkpt lat="48.73487" lon="7.3326">
        <ele>338</ele>
        <time>2014-03-08T14:37:42Z</time>
      </trkpt>
      <trkpt lat="48.73486" lon="7.33239">
        <ele>340</ele>
        <time>2014-03-08T14:37:56Z</time>
      </trkpt>
      <trkpt lat="48.73488" lon="7.3323">
        <ele>342</ele>
        <time>2014-03-08T14:38:02Z</time>
      </trkpt>
      <trkpt lat="48.73488" lon="7.33194">
        <ele>344</ele>
        <time>2014-03-08T14:38:32Z</time>
      </trkpt>
      <trkpt lat="48.73491" lon="7.33149">
        <ele>344</ele>
        <time>2014-03-08T14:38:52Z</time>
      </trkpt>
      <trkpt lat="48.73488" lon="7.33139">
        <ele>347</ele>
        <time>2014-03-08T14:38:56Z</time>
      </trkpt>
      <trkpt lat="48.73485" lon="7.33119">
        <ele>350</ele>
        <time>2014-03-08T14:39:06Z</time>
      </trkpt>
      <trkpt lat="48.73484" lon="7.33113">
        <ele>353</ele>
        <time>2014-03-08T14:39:14Z</time>
      </trkpt>
      <trkpt lat="48.73481" lon="7.33101">
        <ele>355</ele>
        <time>2014-03-08T14:39:21Z</time>
      </trkpt>
      <trkpt lat="48.7348" lon="7.33098">
        <ele>357</ele>
        <time>2014-03-08T14:39:24Z</time>
      </trkpt>
      <trkpt lat="48.73477" lon="7.33048">
        <ele>358</ele>
        <time>2014-03-08T14:39:52Z</time>
      </trkpt>
      <trkpt lat="48.73471" lon="7.32999">
        <ele>362</ele>
        <time>2014-03-08T14:40:17Z</time>
      </trkpt>
      <trkpt lat="48.73462" lon="7.32932">
        <ele>357</ele>
        <time>2014-03-08T14:40:49Z</time>
      </trkpt>
      <trkpt lat="48.73461" lon="7.32929">
        <ele>356</ele>
        <time>2014-03-08T14:40:52Z</time>
      </trkpt>
      <trkpt lat="48.73461" lon="7.32925">
        <ele>356</ele>
        <time>2014-03-08T14:40:56Z</time>
      </trkpt>
      <trkpt lat="48.7346" lon="7.32921">
        <ele>362</ele>
        <time>2014-03-08T14:41:13Z</time>
      </trkpt>
      <trkpt lat="48.73458" lon="7.32914">
        <ele>360</ele>
        <time>2014-03-08T14:41:25Z</time>
      </trkpt>
      <trkpt lat="48.73451" lon="7.32889">
        <ele>363</ele>
        <time>2014-03-08T14:41:51Z</time>
      </trkpt>
      <trkpt lat="48.73448" lon="7.32877">
        <ele>364</ele>
        <time>2014-03-08T14:41:57Z</time>
      </trkpt>
      <trkpt lat="48.73449" lon="7.32845">
        <ele>361</ele>
        <time>2014-03-08T14:42:27Z</time>
      </trkpt>
      <trkpt lat="48.73443" lon="7.32804">
        <ele>361</ele>
        <time>2014-03-08T14:42:56Z</time>
      </trkpt>
      <trkpt lat="48.73441" lon="7.32801">
        <ele>364</ele>
        <time>2014-03-08T14:42:58Z</time>
      </trkpt>
      <trkpt lat="48.73436" lon="7.32792">
        <ele>367</ele>
        <time>2014-03-08T14:43:04Z</time>
      </trkpt>
      <trkpt lat="48.73435" lon="7.32788">
        <ele>370</ele>
        <time>2014-03-08T14:43:06Z</time>
      </trkpt>
      <trkpt lat="48.73433" lon="7.32786">
        <ele>372</ele>
        <time>2014-03-08T14:43:08Z</time>
      </trkpt>
      <trkpt lat="48.73428" lon="7.32777">
        <ele>376</ele>
        <time>2014-03-08T14:43:15Z</time>
      </trkpt>
      <trkpt lat="48.73427" lon="7.32774">
        <ele>378</ele>
        <time>2014-03-08T14:43:18Z</time>
      </trkpt>
      <trkpt lat="48.73425" lon="7.32771">
        <ele>381</ele>
        <time>2014-03-08T14:43:23Z</time>
      </trkpt>
      <trkpt lat="48.73412" lon="7.32739">
        <ele>381</ele>
        <time>2014-03-08T14:43:41Z</time>
      </trkpt>
      <trkpt lat="48.73407" lon="7.32726">
        <ele>384</ele>
        <time>2014-03-08T14:43:47Z</time>
      </trkpt>
      <trkpt lat="48.73397" lon="7.32705">
        <ele>389</ele>
        <time>2014-03-08T14:44:02Z</time>
      </trkpt>
      <trkpt lat="48.73389" lon="7.32675">
        <ele>390</ele>
        <time>2014-03-08T14:44:38Z</time>
      </trkpt>
      <trkpt lat="48.73386" lon="7.32668">
        <ele>386</ele>
        <time>2014-03-08T14:44:43Z</time>
      </trkpt>
      <trkpt lat="48.73386" lon="7.32665">
        <ele>387</ele>
        <time>2014-03-08T14:44:45Z</time>
      </trkpt>
      <trkpt lat="48.73382" lon="7.32658">
        <ele>389</ele>
        <time>2014-03-08T14:44:52Z</time>
      </trkpt>
      <trkpt lat="48.73379" lon="7.32651">
        <ele>394</ele>
        <time>2014-03-08T14:44:57Z</time>
      </trkpt>
      <trkpt lat="48.73371" lon="7.32643">
        <ele>391</ele>
        <time>2014-03-08T14:45:06Z</time>
      </trkpt>
      <trkpt lat="48.73371" lon="7.32638">
        <ele>393</ele>
        <time>2014-03-08T14:45:10Z</time>
      </trkpt>
      <trkpt lat="48.73369" lon="7.32633">
        <ele>392</ele>
        <time>2014-03-08T14:45:16Z</time>
      </trkpt>
      <trkpt lat="48.73371" lon="7.3263">
        <ele>394</ele>
        <time>2014-03-08T14:45:23Z</time>
      </trkpt>
      <trkpt lat="48.73373" lon="7.32629">
        <ele>397</ele>
        <time>2014-03-08T14:45:26Z</time>
      </trkpt>
      <trkpt lat="48.73387" lon="7.32623">
        <ele>390</ele>
        <time>2014-03-08T14:45:43Z</time>
      </trkpt>
      <trkpt lat="48.73387" lon="7.3262">
        <ele>390</ele>
        <time>2014-03-08T14:45:53Z</time>
      </trkpt>
      <trkpt lat="48.73385" lon="7.32612">
        <ele>392</ele>
        <time>2014-03-08T14:46:03Z</time>
      </trkpt>
      <trkpt lat="48.73382" lon="7.32608">
        <ele>392</ele>
        <time>2014-03-08T14:46:07Z</time>
      </trkpt>
      <trkpt lat="48.73376" lon="7.32598">
        <ele>395</ele>
        <time>2014-03-08T14:46:15Z</time>
      </trkpt>
      <trkpt lat="48.73371" lon="7.32593">
        <ele>398</ele>
        <time>2014-03-08T14:46:19Z</time>
      </trkpt>
      <trkpt lat="48.73366" lon="7.32587">
        <ele>401</ele>
        <time>2014-03-08T14:46:23Z</time>
      </trkpt>
      <trkpt lat="48.73356" lon="7.3258">
        <ele>403</ele>
        <time>2014-03-08T14:46:33Z</time>
      </trkpt>
      <trkpt lat="48.73353" lon="7.32578">
        <ele>405</ele>
        <time>2014-03-08T14:46:36Z</time>
      </trkpt>
      <trkpt lat="48.73348" lon="7.32574">
        <ele>408</ele>
        <time>2014-03-08T14:46:42Z</time>
      </trkpt>
      <trkpt lat="48.73347" lon="7.32571">
        <ele>408</ele>
        <time>2014-03-08T14:46:44Z</time>
      </trkpt>
      <trkpt lat="48.73346" lon="7.32568">
        <ele>405</ele>
        <time>2014-03-08T14:46:46Z</time>
      </trkpt>
      <trkpt lat="48.73349" lon="7.32567">
        <ele>405</ele>
        <time>2014-03-08T14:46:52Z</time>
      </trkpt>
      <trkpt lat="48.7343" lon="7.32692">
        <ele>401</ele>
        <time>2014-03-08T14:47:22Z</time>
      </trkpt>
      <trkpt lat="48.73434" lon="7.32697">
        <ele>401</ele>
        <time>2014-03-08T14:47:24Z</time>
      </trkpt>
      <trkpt lat="48.73434" lon="7.32702">
        <ele>403</ele>
        <time>2014-03-08T14:47:26Z</time>
      </trkpt>
      <trkpt lat="48.73494" lon="7.32843">
        <ele>404</ele>
        <time>2014-03-08T14:47:53Z</time>
      </trkpt>
      <trkpt lat="48.73541" lon="7.3304">
        <ele>401</ele>
        <time>2014-03-08T14:48:23Z</time>
      </trkpt>
      <trkpt lat="48.73575" lon="7.33229">
        <ele>381</ele>
        <time>2014-03-08T14:48:56Z</time>
      </trkpt>
      <trkpt lat="48.73576" lon="7.33237">
        <ele>378</ele>
        <time>2014-03-08T14:49:03Z</time>
      </trkpt>
      <trkpt lat="48.73575" lon="7.33241">
        <ele>379</ele>
        <time>2014-03-08T14:49:07Z</time>
      </trkpt>
      <trkpt lat="48.73574" lon="7.33244">
        <ele>377</ele>
        <time>2014-03-08T14:49:10Z</time>
      </trkpt>
      <trkpt lat="48.73573" lon="7.33245">
        <ele>377</ele>
        <time>2014-03-08T14:49:13Z</time>
      </trkpt>
      <trkpt lat="48.7357" lon="7.33246">
        <ele>375</ele>
        <time>2014-03-08T14:49:15Z</time>
      </trkpt>
      <trkpt lat="48.73567" lon="7.33247">
        <ele>376</ele>
        <time>2014-03-08T14:49:17Z</time>
      </trkpt>
      <trkpt lat="48.73565" lon="7.33253">
        <ele>374</ele>
        <time>2014-03-08T14:49:20Z</time>
      </trkpt>
      <trkpt lat="48.73566" lon="7.33257">
        <ele>372</ele>
        <time>2014-03-08T14:49:22Z</time>
      </trkpt>
      <trkpt lat="48.73566" lon="7.33259">
        <ele>371</ele>
        <time>2014-03-08T14:49:23Z</time>
      </trkpt>
      <trkpt lat="48.73567" lon="7.33269">
        <ele>366</ele>
        <time>2014-03-08T14:49:30Z</time>
      </trkpt>
      <trkpt lat="48.73566" lon="7.33272">
        <ele>364</ele>
        <time>2014-03-08T14:49:32Z</time>
      </trkpt>
      <trkpt lat="48.73565" lon="7.33275">
        <ele>363</ele>
        <time>2014-03-08T14:49:36Z</time>
      </trkpt>
      <trkpt lat="48.73564" lon="7.33276">
        <ele>364</ele>
        <time>2014-03-08T14:49:38Z</time>
      </trkpt>
      <trkpt lat="48.73553" lon="7.33281">
        <ele>359</ele>
        <time>2014-03-08T14:49:50Z</time>
      </trkpt>
      <trkpt lat="48.73552" lon="7.33284">
        <ele>360</ele>
        <time>2014-03-08T14:49:54Z</time>
      </trkpt>
      <trkpt lat="48.73552" lon="7.33294">
        <ele>360</ele>
        <time>2014-03-08T14:50:02Z</time>
      </trkpt>
      <trkpt lat="48.73553" lon="7.333">
        <ele>360</ele>
        <time>2014-03-08T14:50:06Z</time>
      </trkpt>
      <trkpt lat="48.73554" lon="7.33307">
        <ele>360</ele>
        <time>2014-03-08T14:50:12Z</time>
      </trkpt>
      <trkpt lat="48.73556" lon="7.33314">
        <ele>360</ele>
        <time>2014-03-08T14:50:16Z</time>
      </trkpt>
      <trkpt lat="48.7356" lon="7.33321">
        <ele>363</ele>
        <time>2014-03-08T14:50:20Z</time>
      </trkpt>
      <trkpt lat="48.73559" lon="7.33325">
        <ele>365</ele>
        <time>2014-03-08T14:50:22Z</time>
      </trkpt>
      <trkpt lat="48.73559" lon="7.33328">
        <ele>367</ele>
        <time>2014-03-08T14:50:24Z</time>
      </trkpt>
      <trkpt lat="48.73559" lon="7.33332">
        <ele>371</ele>
        <time>2014-03-08T14:50:26Z</time>
      </trkpt>
      <trkpt lat="48.7356" lon="7.33356">
        <ele>374</ele>
        <time>2014-03-08T14:50:39Z</time>
      </trkpt>
      <trkpt lat="48.73559" lon="7.33375">
        <ele>377</ele>
        <time>2014-03-08T14:50:47Z</time>
      </trkpt>
      <trkpt lat="48.73562" lon="7.3338">
        <ele>376</ele>
        <time>2014-03-08T14:51:09Z</time>
      </trkpt>
      <trkpt lat="48.73563" lon="7.3338">
        <ele>379</ele>
        <time>2014-03-08T14:51:51Z</time>
      </trkpt>
      <trkpt lat="48.73565" lon="7.33378">
        <ele>379</ele>
        <time>2014-03-08T14:51:54Z</time>
      </trkpt>
      <trkpt lat="48.73567" lon="7.33372">
        <ele>380</ele>
        <time>2014-03-08T14:52:03Z</time>
      </trkpt>
      <trkpt lat="48.73566" lon="7.33368">
        <ele>383</ele>
        <time>2014-03-08T14:52:07Z</time>
      </trkpt>
      <trkpt lat="48.73566" lon="7.33363">
        <ele>384</ele>
        <time>2014-03-08T14:52:20Z</time>
      </trkpt>
      <trkpt lat="48.73567" lon="7.33362">
        <ele>384</ele>
        <time>2014-03-08T14:52:23Z</time>
      </trkpt>
      <trkpt lat="48.73569" lon="7.33362">
        <ele>385</ele>
        <time>2014-03-08T14:52:26Z</time>
      </trkpt>
      <trkpt lat="48.7357" lon="7.33362">
        <ele>383</ele>
        <time>2014-03-08T14:52:30Z</time>
      </trkpt>
      <trkpt lat="48.73574" lon="7.33362">
        <ele>379</ele>
        <time>2014-03-08T14:52:37Z</time>
      </trkpt>
      <trkpt lat="48.73575" lon="7.33359">
        <ele>374</ele>
        <time>2014-03-08T14:52:44Z</time>
      </trkpt>
      <trkpt lat="48.73575" lon="7.33357">
        <ele>374</ele>
        <time>2014-03-08T14:52:46Z</time>
      </trkpt>
      <trkpt lat="48.73577" lon="7.33358">
        <ele>370</ele>
        <time>2014-03-08T14:52:59Z</time>
      </trkpt>
      <trkpt lat="48.7358" lon="7.33364">
        <ele>370</ele>
        <time>2014-03-08T14:53:03Z</time>
      </trkpt>
      <trkpt lat="48.73582" lon="7.33364">
        <ele>371</ele>
        <time>2014-03-08T14:53:05Z</time>
      </trkpt>
      <trkpt lat="48.73588" lon="7.33358">
        <ele>374</ele>
        <time>2014-03-08T14:53:20Z</time>
      </trkpt>
      <trkpt lat="48.73593" lon="7.33348">
        <ele>368</ele>
        <time>2014-03-08T14:53:26Z</time>
      </trkpt>
      <trkpt lat="48.73594" lon="7.33349">
        <ele>370</ele>
        <time>2014-03-08T14:53:34Z</time>
      </trkpt>
      <trkpt lat="48.73591" lon="7.33355">
        <ele>370</ele>
        <time>2014-03-08T14:53:38Z</time>
      </trkpt>
      <trkpt lat="48.73586" lon="7.33369">
        <ele>371</ele>
        <time>2014-03-08T14:53:51Z</time>
      </trkpt>
      <trkpt lat="48.73585" lon="7.33371">
        <ele>374</ele>
        <time>2014-03-08T14:53:54Z</time>
      </trkpt>
      <trkpt lat="48.73583" lon="7.33369">
        <ele>374</ele>
        <time>2014-03-08T14:53:59Z</time>
      </trkpt>
      <trkpt lat="48.73582" lon="7.33371">
        <ele>372</ele>
        <time>2014-03-08T14:54:05Z</time>
      </trkpt>
      <trkpt lat="48.73581" lon="7.33378">
        <ele>374</ele>
        <time>2014-03-08T14:54:09Z</time>
      </trkpt>
      <trkpt lat="48.73581" lon="7.33381">
        <ele>373</ele>
        <time>2014-03-08T14:54:12Z</time>
      </trkpt>
      <trkpt lat="48.73582" lon="7.33383">
        <ele>371</ele>
        <time>2014-03-08T14:54:15Z</time>
      </trkpt>
      <trkpt lat="48.73582" lon="7.33386">
        <ele>373</ele>
        <time>2014-03-08T14:55:28Z</time>
      </trkpt>
      <trkpt lat="48.7358" lon="7.33388">
        <ele>378</ele>
        <time>2014-03-08T14:55:32Z</time>
      </trkpt>
      <trkpt lat="48.73579" lon="7.3339">
        <ele>382</ele>
        <time>2014-03-08T14:55:41Z</time>
      </trkpt>
      <trkpt lat="48.73577" lon="7.33393">
        <ele>384</ele>
        <time>2014-03-08T14:56:22Z</time>
      </trkpt>
      <trkpt lat="48.73587" lon="7.33393">
        <ele>379</ele>
        <time>2014-03-08T14:57:14Z</time>
      </trkpt>
      <trkpt lat="48.73588" lon="7.33399">
        <ele>371</ele>
        <time>2014-03-08T14:57:24Z</time>
      </trkpt>
      <trkpt lat="48.73586" lon="7.33401">
        <ele>370</ele>
        <time>2014-03-08T14:57:26Z</time>
      </trkpt>
      <trkpt lat="48.73582" lon="7.33404">
        <ele>370</ele>
        <time>2014-03-08T14:57:31Z</time>
      </trkpt>
      <trkpt lat="48.73579" lon="7.3341">
        <ele>370</ele>
        <time>2014-03-08T14:57:37Z</time>
      </trkpt>
      <trkpt lat="48.73585" lon="7.33421">
        <ele>370</ele>
        <time>2014-03-08T14:57:52Z</time>
      </trkpt>
      <trkpt lat="48.73588" lon="7.33424">
        <ele>370</ele>
        <time>2014-03-08T14:57:54Z</time>
      </trkpt>
      <trkpt lat="48.73589" lon="7.3343">
        <ele>371</ele>
        <time>2014-03-08T14:58:04Z</time>
      </trkpt>
      <trkpt lat="48.73589" lon="7.33433">
        <ele>372</ele>
        <time>2014-03-08T14:58:12Z</time>
      </trkpt>
      <trkpt lat="48.73589" lon="7.33437">
        <ele>371</ele>
        <time>2014-03-08T14:58:14Z</time>
      </trkpt>
      <trkpt lat="48.73586" lon="7.33446">
        <ele>372</ele>
        <time>2014-03-08T14:58:26Z</time>
      </trkpt>
      <trkpt lat="48.73586" lon="7.3345">
        <ele>373</ele>
        <time>2014-03-08T14:58:29Z</time>
      </trkpt>
      <trkpt lat="48.73586" lon="7.33454">
        <ele>375</ele>
        <time>2014-03-08T14:58:33Z</time>
      </trkpt>
      <trkpt lat="48.73585" lon="7.33458">
        <ele>378</ele>
        <time>2014-03-08T14:58:35Z</time>
      </trkpt>
      <trkpt lat="48.73583" lon="7.33462">
        <ele>379</ele>
        <time>2014-03-08T14:58:36Z</time>
      </trkpt>
      <trkpt lat="48.73581" lon="7.33467">
        <ele>381</ele>
        <time>2014-03-08T14:58:39Z</time>
      </trkpt>
      <trkpt lat="48.73582" lon="7.33466">
        <ele>381</ele>
        <time>2014-03-08T14:58:45Z</time>
      </trkpt>
      <trkpt lat="48.73584" lon="7.3346">
        <ele>376</ele>
        <time>2014-03-08T14:59:00Z</time>
      </trkpt>
      <trkpt lat="48.73589" lon="7.3344">
        <ele>373</ele>
        <time>2014-03-08T14:59:06Z</time>
      </trkpt>
      <trkpt lat="48.73587" lon="7.33437">
        <ele>374</ele>
        <time>2014-03-08T14:59:08Z</time>
      </trkpt>
      <trkpt lat="48.73586" lon="7.33434">
        <ele>374</ele>
        <time>2014-03-08T14:59:10Z</time>
      </trkpt>
      <trkpt lat="48.73583" lon="7.3343">
        <ele>376</ele>
        <time>2014-03-08T14:59:12Z</time>
      </trkpt>
      <trkpt lat="48.73577" lon="7.33422">
        <ele>376</ele>
        <time>2014-03-08T14:59:17Z</time>
      </trkpt>
      <trkpt lat="48.73579" lon="7.33415">
        <ele>373</ele>
        <time>2014-03-08T14:59:21Z</time>
      </trkpt>
      <trkpt lat="48.7358" lon="7.33411">
        <ele>373</ele>
        <time>2014-03-08T14:59:23Z</time>
      </trkpt>
      <trkpt lat="48.73585" lon="7.33403">
        <ele>373</ele>
        <time>2014-03-08T14:59:29Z</time>
      </trkpt>
      <trkpt lat="48.73584" lon="7.33398">
        <ele>373</ele>
        <time>2014-03-08T14:59:32Z</time>
      </trkpt>
      <trkpt lat="48.73581" lon="7.33366">
        <ele>424</ele>
        <time>2014-03-08T15:00:42Z</time>
      </trkpt>
      <trkpt lat="48.73581" lon="7.33366">
        <ele>375</ele>
        <time>2014-03-08T15:00:43Z</time>
      </trkpt>
      <trkpt lat="48.73575" lon="7.33364">
        <ele>372</ele>
        <time>2014-03-08T15:00:46Z</time>
      </trkpt>
      <trkpt lat="48.73572" lon="7.33366">
        <ele>377</ele>
        <time>2014-03-08T15:00:49Z</time>
      </trkpt>
      <trkpt lat="48.73569" lon="7.33371">
        <ele>379</ele>
        <time>2014-03-08T15:00:52Z</time>
      </trkpt>
      <trkpt lat="48.73567" lon="7.33376">
        <ele>380</ele>
        <time>2014-03-08T15:00:55Z</time>
      </trkpt>
      <trkpt lat="48.73564" lon="7.3338">
        <ele>382</ele>
        <time>2014-03-08T15:00:58Z</time>
      </trkpt>
      <trkpt lat="48.73556" lon="7.33384">
        <ele>384</ele>
        <time>2014-03-08T15:01:02Z</time>
      </trkpt>
      <trkpt lat="48.73559" lon="7.33387">
        <ele>380</ele>
        <time>2014-03-08T15:01:36Z</time>
      </trkpt>
      <trkpt lat="48.73561" lon="7.33389">
        <ele>379</ele>
        <time>2014-03-08T15:02:15Z</time>
      </trkpt>
      <trkpt lat="48.73562" lon="7.33393">
        <ele>375</ele>
        <time>2014-03-08T15:03:09Z</time>
      </trkpt>
      <trkpt lat="48.73562" lon="7.33397">
        <ele>374</ele>
        <time>2014-03-08T15:03:11Z</time>
      </trkpt>
      <trkpt lat="48.73578" lon="7.33538">
        <ele>365</ele>
        <time>2014-03-08T15:03:39Z</time>
      </trkpt>
      <trkpt lat="48.73581" lon="7.33543">
        <ele>362</ele>
        <time>2014-03-08T15:03:43Z</time>
      </trkpt>
      <trkpt lat="48.73582" lon="7.33547">
        <ele>358</ele>
        <time>2014-03-08T15:04:13Z</time>
      </trkpt>
      <trkpt lat="48.73582" lon="7.33551">
        <ele>357</ele>
        <time>2014-03-08T15:04:15Z</time>
      </trkpt>
      <trkpt lat="48.73585" lon="7.33652">
        <ele>344</ele>
        <time>2014-03-08T15:04:48Z</time>
      </trkpt>
      <trkpt lat="48.73582" lon="7.33652">
        <ele>344</ele>
        <time>2014-03-08T15:04:51Z</time>
      </trkpt>
      <trkpt lat="48.7358" lon="7.33651">
        <ele>344</ele>
        <time>2014-03-08T15:04:53Z</time>
      </trkpt>
      <trkpt lat="48.73578" lon="7.33651">
        <ele>343</ele>
        <time>2014-03-08T15:04:55Z</time>
      </trkpt>
      <trkpt lat="48.73576" lon="7.33652">
        <ele>343</ele>
        <time>2014-03-08T15:04:58Z</time>
      </trkpt>
      <trkpt lat="48.73576" lon="7.33654">
        <ele>343</ele>
        <time>2014-03-08T15:05:02Z</time>
      </trkpt>
      <trkpt lat="48.73576" lon="7.33657">
        <ele>344</ele>
        <time>2014-03-08T15:05:04Z</time>
      </trkpt>
      <trkpt lat="48.73577" lon="7.33661">
        <ele>342</ele>
        <time>2014-03-08T15:05:06Z</time>
      </trkpt>
      <trkpt lat="48.73581" lon="7.33711">
        <ele>330</ele>
        <time>2014-03-08T15:05:36Z</time>
      </trkpt>
      <trkpt lat="48.73583" lon="7.33721">
        <ele>326</ele>
        <time>2014-03-08T15:05:42Z</time>
      </trkpt>
      <trkpt lat="48.73586" lon="7.33772">
        <ele>318</ele>
        <time>2014-03-08T15:06:12Z</time>
      </trkpt>
      <trkpt lat="48.73587" lon="7.33774">
        <ele>319</ele>
        <time>2014-03-08T15:06:13Z</time>
      </trkpt>
      <trkpt lat="48.7359" lon="7.33778">
        <ele>320</ele>
        <time>2014-03-08T15:06:16Z</time>
      </trkpt>
      <trkpt lat="48.73602" lon="7.33813">
        <ele>309</ele>
        <time>2014-03-08T15:06:46Z</time>
      </trkpt>
      <trkpt lat="48.73614" lon="7.33859">
        <ele>301</ele>
        <time>2014-03-08T15:07:02Z</time>
      </trkpt>
      <trkpt lat="48.73611" lon="7.33922">
        <ele>289</ele>
        <time>2014-03-08T15:07:21Z</time>
      </trkpt>
      <trkpt lat="48.73592" lon="7.33943">
        <ele>287</ele>
        <time>2014-03-08T15:07:29Z</time>
      </trkpt>
      <trkpt lat="48.7359" lon="7.33943">
        <ele>288</ele>
        <time>2014-03-08T15:07:31Z</time>
      </trkpt>
      <trkpt lat="48.73588" lon="7.33945">
        <ele>288</ele>
        <time>2014-03-08T15:07:33Z</time>
      </trkpt>
      <trkpt lat="48.73588" lon="7.33949">
        <ele>288</ele>
        <time>2014-03-08T15:07:35Z</time>
      </trkpt>
      <trkpt lat="48.73589" lon="7.33951">
        <ele>287</ele>
        <time>2014-03-08T15:07:36Z</time>
      </trkpt>
      <trkpt lat="48.73604" lon="7.33973">
        <ele>282</ele>
        <time>2014-03-08T15:08:33Z</time>
      </trkpt>
      <trkpt lat="48.73623" lon="7.34006">
        <ele>282</ele>
        <time>2014-03-08T15:08:41Z</time>
      </trkpt>
      <trkpt lat="48.73717" lon="7.33907">
        <ele>270</ele>
        <time>2014-03-08T15:09:11Z</time>
      </trkpt>
      <trkpt lat="48.7376" lon="7.33868">
        <ele>260</ele>
        <time>2014-03-08T15:09:47Z</time>
      </trkpt>
      <trkpt lat="48.73805" lon="7.33742">
        <ele>241</ele>
        <time>2014-03-08T15:10:17Z</time>
      </trkpt>
      <trkpt lat="48.73819" lon="7.33706">
        <ele>241</ele>
        <time>2014-03-08T15:10:22Z</time>
      </trkpt>
      <trkpt lat="48.73818" lon="7.33703">
        <ele>240</ele>
        <time>2014-03-08T15:10:23Z</time>
      </trkpt>
      <trkpt lat="48.73819" lon="7.33701">
        <ele>239</ele>
        <time>2014-03-08T15:10:24Z</time>
      </trkpt>
      <trkpt lat="48.73821" lon="7.33698">
        <ele>239</ele>
        <time>2014-03-08T15:10:25Z</time>
      </trkpt>
      <trkpt lat="48.73823" lon="7.33696">
        <ele>238</ele>
        <time>2014-03-08T15:10:42Z</time>
      </trkpt>
      <trkpt lat="48.73829" lon="7.33702">
        <ele>241</ele>
        <time>2014-03-08T15:10:46Z</time>
      </trkpt>
      <trkpt lat="48.7386" lon="7.33889">
        <ele>230</ele>
        <time>2014-03-08T15:11:16Z</time>
      </trkpt>
      <trkpt lat="48.73866" lon="7.339">
        <ele>232</ele>
        <time>2014-03-08T15:11:19Z</time>
      </trkpt>
      <trkpt lat="48.73865" lon="7.33935">
        <ele>222</ele>
        <time>2014-03-08T15:11:28Z</time>
      </trkpt>
      <trkpt lat="48.73872" lon="7.33941">
        <ele>222</ele>
        <time>2014-03-08T15:11:32Z</time>
      </trkpt>
      <trkpt lat="48.73878" lon="7.33949">
        <ele>222</ele>
        <time>2014-03-08T15:11:36Z</time>
      </trkpt>
      <trkpt lat="48.73879" lon="7.33955">
        <ele>224</ele>
        <time>2014-03-08T15:11:38Z</time>
      </trkpt>
      <trkpt lat="48.73881" lon="7.33958">
        <ele>226</ele>
        <time>2014-03-08T15:11:40Z</time>
      </trkpt>
      <trkpt lat="48.7389" lon="7.33968">
        <ele>225</ele>
        <time>2014-03-08T15:11:48Z</time>
      </trkpt>
      <trkpt lat="48.73894" lon="7.33967">
        <ele>223</ele>
        <time>2014-03-08T15:11:55Z</time>
      </trkpt>
      <trkpt lat="48.73898" lon="7.33969">
        <ele>223</ele>
        <time>2014-03-08T15:12:12Z</time>
      </trkpt>
      <trkpt lat="48.739" lon="7.33971">
        <ele>224</ele>
        <time>2014-03-08T15:13:01Z</time>
      </trkpt>
      <trkpt lat="48.73899" lon="7.33976">
        <ele>225</ele>
        <time>2014-03-08T15:13:03Z</time>
      </trkpt>
      <trkpt lat="48.73905" lon="7.34056">
        <ele>226</ele>
        <time>2014-03-08T15:13:22Z</time>
      </trkpt>
      <trkpt lat="48.73927" lon="7.34277">
        <ele>211</ele>
        <time>2014-03-08T15:13:52Z</time>
      </trkpt>
      <trkpt lat="48.73933" lon="7.34316">
        <ele>212</ele>
        <time>2014-03-08T15:13:59Z</time>
      </trkpt>
      <trkpt lat="48.7392" lon="7.34424">
        <ele>212</ele>
        <time>2014-03-08T15:14:11Z</time>
      </trkpt>
      <trkpt lat="48.73892" lon="7.34572">
        <ele>210</ele>
        <time>2014-03-08T15:14:32Z</time>
      </trkpt>
      <trkpt lat="48.7389" lon="7.34574">
        <ele>212</ele>
        <time>2014-03-08T15:14:34Z</time>
      </trkpt>
      <trkpt lat="48.73889" lon="7.34573">
        <ele>212</ele>
        <time>2014-03-08T15:14:35Z</time>
      </trkpt>
      <trkpt lat="48.73888" lon="7.34571">
        <ele>212</ele>
        <time>2014-03-08T15:14:36Z</time>
      </trkpt>
      <trkpt lat="48.73889" lon="7.34565">
        <ele>213</ele>
        <time>2014-03-08T15:14:39Z</time>
      </trkpt>
      <trkpt lat="48.7389" lon="7.34564">
        <ele>213</ele>
        <time>2014-03-08T15:14:40Z</time>
      </trkpt>
      <trkpt lat="48.73892" lon="7.34564">
        <ele>214</ele>
        <time>2014-03-08T15:14:41Z</time>
      </trkpt>
      <trkpt lat="48.73893" lon="7.34569">
        <ele>213</ele>
        <time>2014-03-08T15:14:43Z</time>
      </trkpt>
      <trkpt lat="48.73912" lon="7.34652">
        <ele>202</ele>
        <time>2014-03-08T15:14:59Z</time>
      </trkpt>
      <trkpt lat="48.74048" lon="7.34683">
        <ele>191</ele>
        <time>2014-03-08T15:15:29Z</time>
      </trkpt>
      <trkpt lat="48.74141" lon="7.34744">
        <ele>191</ele>
        <time>2014-03-08T15:15:58Z</time>
      </trkpt>
      <trkpt lat="48.74178" lon="7.34797">
        <ele>193</ele>
        <time>2014-03-08T15:16:11Z</time>
      </trkpt>
      <trkpt lat="48.7422" lon="7.34823">
        <ele>196</ele>
        <time>2014-03-08T15:16:21Z</time>
      </trkpt>
      <trkpt lat="48.74311" lon="7.34872">
        <ele>190</ele>
        <time>2014-03-08T15:16:51Z</time>
      </trkpt>
      <trkpt lat="48.74363" lon="7.34901">
        <ele>195</ele>
        <time>2014-03-08T15:17:10Z</time>
      </trkpt>
      <trkpt lat="48.74366" lon="7.34901">
        <ele>197</ele>
        <time>2014-03-08T15:17:11Z</time>
      </trkpt>
      <trkpt lat="48.74405" lon="7.3487">
        <ele>196</ele>
        <time>2014-03-08T15:17:31Z</time>
      </trkpt>
      <trkpt lat="48.74405" lon="7.34868">
        <ele>195</ele>
        <time>2014-03-08T15:17:32Z</time>
      </trkpt>
      <trkpt lat="48.74409" lon="7.34759">
        <ele>197</ele>
        <time>2014-03-08T15:18:02Z</time>
      </trkpt>
      <trkpt lat="48.74433" lon="7.34621">
        <ele>199</ele>
        <time>2014-03-08T15:18:32Z</time>
      </trkpt>
      <trkpt lat="48.74455" lon="7.34527">
        <ele>204</ele>
        <time>2014-03-08T15:19:02Z</time>
      </trkpt>
      <trkpt lat="48.74463" lon="7.34497">
        <ele>204</ele>
        <time>2014-03-08T15:19:17Z</time>
      </trkpt>
      <trkpt lat="48.7446" lon="7.34496">
        <ele>205</ele>
        <time>2014-03-08T15:19:22Z</time>
      </trkpt>
      <trkpt lat="48.7446" lon="7.34493">
        <ele>205</ele>
        <time>2014-03-08T15:19:28Z</time>
      </trkpt>
      <trkpt lat="48.74461" lon="7.34491">
        <ele>207</ele>
        <time>2014-03-08T15:19:32Z</time>
      </trkpt>
      <trkpt lat="48.7446" lon="7.34487">
        <ele>209</ele>
        <time>2014-03-08T15:19:57Z</time>
      </trkpt>
      <trkpt lat="48.74462" lon="7.34481">
        <ele>213</ele>
        <time>2014-03-08T15:20:04Z</time>
      </trkpt>
      <trkpt lat="48.74465" lon="7.34474">
        <ele>216</ele>
        <time>2014-03-08T15:20:10Z</time>
      </trkpt>
      <trkpt lat="48.74465" lon="7.34459">
        <ele>210</ele>
        <time>2014-03-08T15:20:29Z</time>
      </trkpt>
      <trkpt lat="48.74467" lon="7.34452">
        <ele>209</ele>
        <time>2014-03-08T15:20:40Z</time>
      </trkpt>
      <trkpt lat="48.74477" lon="7.34429">
        <ele>214</ele>
        <time>2014-03-08T15:21:10Z</time>
      </trkpt>
      <trkpt lat="48.74478" lon="7.34424">
        <ele>212</ele>
        <time>2014-03-08T15:21:12Z</time>
      </trkpt>
      <trkpt lat="48.74478" lon="7.3442">
        <ele>214</ele>
        <time>2014-03-08T15:21:14Z</time>
      </trkpt>
      <trkpt lat="48.74485" lon="7.34402">
        <ele>216</ele>
        <time>2014-03-08T15:21:21Z</time>
      </trkpt>
      <trkpt lat="48.74521" lon="7.34334">
        <ele>219</ele>
        <time>2014-03-08T15:21:45Z</time>
      </trkpt>
      <trkpt lat="48.74539" lon="7.3429">
        <ele>221</ele>
        <time>2014-03-08T15:22:02Z</time>
      </trkpt>
      <trkpt lat="48.74542" lon="7.34282">
        <ele>223</ele>
        <time>2014-03-08T15:22:05Z</time>
      </trkpt>
      <trkpt lat="48.74553" lon="7.34261">
        <ele>226</ele>
        <time>2014-03-08T15:22:15Z</time>
      </trkpt>
      <trkpt lat="48.74592" lon="7.34174">
        <ele>223</ele>
        <time>2014-03-08T15:22:45Z</time>
      </trkpt>
      <trkpt lat="48.74615" lon="7.34081">
        <ele>226</ele>
        <time>2014-03-08T15:23:15Z</time>
      </trkpt>
      <trkpt lat="48.74622" lon="7.34056">
        <ele>228</ele>
        <time>2014-03-08T15:23:23Z</time>
      </trkpt>
      <trkpt lat="48.74655" lon="7.33957">
        <ele>232</ele>
        <time>2014-03-08T15:23:52Z</time>
      </trkpt>
      <trkpt lat="48.74667" lon="7.33929">
        <ele>235</ele>
        <time>2014-03-08T15:24:01Z</time>
      </trkpt>
      <trkpt lat="48.74669" lon="7.33923">
        <ele>237</ele>
        <time>2014-03-08T15:24:03Z</time>
      </trkpt>
      <trkpt lat="48.74674" lon="7.33906">
        <ele>240</ele>
        <time>2014-03-08T15:24:08Z</time>
      </trkpt>
      <trkpt lat="48.74686" lon="7.33866">
        <ele>241</ele>
        <time>2014-03-08T15:24:19Z</time>
      </trkpt>
      <trkpt lat="48.74691" lon="7.33849">
        <ele>246</ele>
        <time>2014-03-08T15:24:24Z</time>
      </trkpt>
      <trkpt lat="48.74708" lon="7.338">
        <ele>247</ele>
        <time>2014-03-08T15:24:43Z</time>
      </trkpt>
      <trkpt lat="48.74709" lon="7.33789">
        <ele>250</ele>
        <time>2014-03-08T15:24:47Z</time>
      </trkpt>
      <trkpt lat="48.74709" lon="7.33785">
        <ele>254</ele>
        <time>2014-03-08T15:24:49Z</time>
      </trkpt>
      <trkpt lat="48.7471" lon="7.33782">
        <ele>256</ele>
        <time>2014-03-08T15:24:51Z</time>
      </trkpt>
      <trkpt lat="48.74713" lon="7.3377">
        <ele>256</ele>
        <time>2014-03-08T15:24:55Z</time>
      </trkpt>
      <trkpt lat="48.74714" lon="7.3375">
        <ele>254</ele>
        <time>2014-03-08T15:25:01Z</time>
      </trkpt>
      <trkpt lat="48.74736" lon="7.33704">
        <ele>253</ele>
        <time>2014-03-08T15:25:22Z</time>
      </trkpt>
      <trkpt lat="48.7474" lon="7.33699">
        <ele>255</ele>
        <time>2014-03-08T15:25:24Z</time>
      </trkpt>
      <trkpt lat="48.7475" lon="7.33693">
        <ele>258</ele>
        <time>2014-03-08T15:25:29Z</time>
      </trkpt>
      <trkpt lat="48.74816" lon="7.33625">
        <ele>252</ele>
        <time>2014-03-08T15:25:59Z</time>
      </trkpt>
      <trkpt lat="48.74844" lon="7.33609">
        <ele>252</ele>
        <time>2014-03-08T15:26:12Z</time>
      </trkpt>
      <trkpt lat="48.7485" lon="7.33604">
        <ele>254</ele>
        <time>2014-03-08T15:26:16Z</time>
      </trkpt>
      <trkpt lat="48.74859" lon="7.33595">
        <ele>255</ele>
        <time>2014-03-08T15:26:22Z</time>
      </trkpt>
      <trkpt lat="48.74866" lon="7.33588">
        <ele>257</ele>
        <time>2014-03-08T15:26:26Z</time>
      </trkpt>
      <trkpt lat="48.74869" lon="7.33585">
        <ele>259</ele>
        <time>2014-03-08T15:26:28Z</time>
      </trkpt>
      <trkpt lat="48.74909" lon="7.33553">
        <ele>256</ele>
        <time>2014-03-08T15:26:52Z</time>
      </trkpt>
      <trkpt lat="48.7492" lon="7.33541">
        <ele>260</ele>
        <time>2014-03-08T15:27:01Z</time>
      </trkpt>
      <trkpt lat="48.74922" lon="7.33549">
        <ele>259</ele>
        <time>2014-03-08T15:27:09Z</time>
      </trkpt>
      <trkpt lat="48.74927" lon="7.33561">
        <ele>253</ele>
        <time>2014-03-08T15:27:13Z</time>
      </trkpt>
      <trkpt lat="48.74935" lon="7.33566">
        <ele>253</ele>
        <time>2014-03-08T15:27:18Z</time>
      </trkpt>
      <trkpt lat="48.74931" lon="7.33572">
        <ele>263</ele>
        <time>2014-03-08T15:28:09Z</time>
      </trkpt>
      <trkpt lat="48.74929" lon="7.33578">
        <ele>261</ele>
        <time>2014-03-08T15:28:11Z</time>
      </trkpt>
      <trkpt lat="48.74815" lon="7.33744">
        <ele>253</ele>
        <time>2014-03-08T15:28:41Z</time>
      </trkpt>
      <trkpt lat="48.74787" lon="7.33793">
        <ele>249</ele>
        <time>2014-03-08T15:28:48Z</time>
      </trkpt>
      <trkpt lat="48.74787" lon="7.33799">
        <ele>247</ele>
        <time>2014-03-08T15:28:49Z</time>
      </trkpt>
      <trkpt lat="48.74716" lon="7.34044">
        <ele>230</ele>
        <time>2014-03-08T15:29:19Z</time>
      </trkpt>
      <trkpt lat="48.74709" lon="7.34072">
        <ele>234</ele>
        <time>2014-03-08T15:29:25Z</time>
      </trkpt>
      <trkpt lat="48.74663" lon="7.34238">
        <ele>222</ele>
        <time>2014-03-08T15:29:55Z</time>
      </trkpt>
      <trkpt lat="48.74595" lon="7.34363">
        <ele>223</ele>
        <time>2014-03-08T15:30:25Z</time>
      </trkpt>
      <trkpt lat="48.7459" lon="7.34375">
        <ele>224</ele>
        <time>2014-03-08T15:30:27Z</time>
      </trkpt>
      <trkpt lat="48.74584" lon="7.34392">
        <ele>224</ele>
        <time>2014-03-08T15:30:30Z</time>
      </trkpt>
      <trkpt lat="48.74575" lon="7.34409">
        <ele>227</ele>
        <time>2014-03-08T15:30:33Z</time>
      </trkpt>
      <trkpt lat="48.74562" lon="7.34438">
        <ele>228</ele>
        <time>2014-03-08T15:30:43Z</time>
      </trkpt>
      <trkpt lat="48.74552" lon="7.34459">
        <ele>231</ele>
        <time>2014-03-08T15:30:49Z</time>
      </trkpt>
      <trkpt lat="48.74522" lon="7.34649">
        <ele>226</ele>
        <time>2014-03-08T15:31:19Z</time>
      </trkpt>
      <trkpt lat="48.7451" lon="7.34991">
        <ele>214</ele>
        <time>2014-03-08T15:31:49Z</time>
      </trkpt>
      <trkpt lat="48.74553" lon="7.35149">
        <ele>205</ele>
        <time>2014-03-08T15:32:19Z</time>
      </trkpt>
      <trkpt lat="48.74611" lon="7.35309">
        <ele>204</ele>
        <time>2014-03-08T15:32:49Z</time>
      </trkpt>
      <trkpt lat="48.74602" lon="7.3536">
        <ele>206</ele>
        <time>2014-03-08T15:32:59Z</time>
      </trkpt>
      <trkpt lat="48.74567" lon="7.3552">
        <ele>203</ele>
        <time>2014-03-08T15:33:29Z</time>
      </trkpt>
      <trkpt lat="48.74563" lon="7.3553">
        <ele>203</ele>
        <time>2014-03-08T15:33:31Z</time>
      </trkpt>
      <trkpt lat="48.74554" lon="7.35557">
        <ele>204</ele>
        <time>2014-03-08T15:33:39Z</time>
      </trkpt>
      <trkpt lat="48.74425" lon="7.35622">
        <ele>196</ele>
        <time>2014-03-08T15:34:09Z</time>
      </trkpt>
      <trkpt lat="48.74378" lon="7.35679">
        <ele>193</ele>
        <time>2014-03-08T15:34:30Z</time>
      </trkpt>
      <trkpt lat="48.74317" lon="7.35937">
        <ele>190</ele>
        <time>2014-03-08T15:35:00Z</time>
      </trkpt>
      <trkpt lat="48.74298" lon="7.35965">
        <ele>191</ele>
        <time>2014-03-08T15:35:05Z</time>
      </trkpt>
      <trkpt lat="48.74288" lon="7.35983">
        <ele>194</ele>
        <time>2014-03-08T15:35:09Z</time>
      </trkpt>
      <trkpt lat="48.74289" lon="7.35987">
        <ele>193</ele>
        <time>2014-03-08T15:35:10Z</time>
      </trkpt>
      <trkpt lat="48.74295" lon="7.35994">
        <ele>195</ele>
        <time>2014-03-08T15:35:12Z</time>
      </trkpt>
      <trkpt lat="48.74304" lon="7.36008">
        <ele>195</ele>
        <time>2014-03-08T15:35:15Z</time>
      </trkpt>
      <trkpt lat="48.74307" lon="7.36011">
        <ele>197</ele>
        <time>2014-03-08T15:35:16Z</time>
      </trkpt>
      <trkpt lat="48.74328" lon="7.36039">
        <ele>202</ele>
        <time>2014-03-08T15:35:24Z</time>
      </trkpt>
      <trkpt lat="48.74422" lon="7.36164">
        <ele>193</ele>
        <time>2014-03-08T15:35:54Z</time>
      </trkpt>
    </trkseg>
  </trk>
</gpx>